Time,TemperatureF,DewpointF,PressureIn,WindDirection,WindDirectionDegrees,WindSpeedMPH,WindSpeedGustMPH,Humidity,HourlyPrecipIn,Conditions,Clouds,dailyrainin,SoftwareType,DateUTC
2013-01-01 00:00:00,10.7,5.8,30.53,SSE,159,0.0,0.0,80,0.00,,SKC,0.00,VWS V14.01,2013-01-01 07:00:00,
2013-01-01 00:01:00,10.6,5.7,30.53,SSE,157,0.0,0.0,80,0.00,,SKC,0.00,VWS V14.01,2013-01-01 07:01:00,
2013-01-01 00:02:00,10.6,5.7,30.53,SSE,161,0.0,1.0,80,0.00,,SKC,0.00,VWS V14.01,2013-01-01 07:02:00,
2013-01-01 00:03:00,10.6,5.7,30.53,SSE,152,0.0,0.0,80,0.00,,SKC,0.00,VWS V14.01,2013-01-01 07:03:00,
2013-01-01 00:04:00,10.6,5.7,30.53,SSE,156,0.0,0.0,80,0.00,,SKC,0.00,VWS V14.01,2013-01-01 07:04:00,
2013-01-01 00:05:00,10.6,5.4,30.53,SSE,159,0.0,0.0,79,0.00,,SKC,0.00,VWS V14.01,2013-01-01 07:05:00,
2013-01-01 00:06:00,10.6,5.4,30.53,SSE,157,0.0,0.0,79,0.00,,SKC,0.00,VWS V14.01,2013-01-01 07:06:00,
2013-01-01 00:07:00,10.6,5.4,30.53,SSE,157,0.0,0.0,79,0.00,,SKC,0.00,VWS V14.01,2013-01-01 07:07:00,
2013-01-01 00:08:00,10.5,5.3,30.53,SSE,164,0.0,0.0,79,0.00,,SKC,0.00,VWS V14.01,2013-01-01 07:08:00,
2013-01-01 00:09:00,10.5,5.3,30.53,SSE,155,0.0,0.0,79,0.00,,SKC,0.00,VWS V14.01,2013-01-01 07:09:00,
2013-01-01 00:10:00,10.5,5.3,30.53,SSE,157,0.0,0.0,79,0.00,,SKC,0.00,VWS V14.01,2013-01-01 07:10:00,
2013-01-01 00:11:00,10.5,5.3,30.53,SSE,154,1.0,2.0,79,0.00,,SKC,0.00,VWS V14.01,2013-01-01 07:11:00,
2013-01-01 00:12:00,10.4,5.2,30.53,SSE,156,0.0,2.0,79,0.00,,SKC,0.00,VWS V14.01,2013-01-01 07:12:00,
2013-01-01 00:13:00,10.4,5.2,30.53,North,360,0.0,1.0,79,0.00,,SKC,0.00,VWS V14.01,2013-01-01 07:13:00,
2013-01-01 00:14:00,10.4,4.9,30.53,SSE,156,0.0,0.0,78,0.00,,SKC,0.00,VWS V14.01,2013-01-01 07:14:00,
2013-01-01 00:15:00,10.4,4.9,30.53,SSE,159,0.0,0.0,78,0.00,,SKC,0.00,VWS V14.01,2013-01-01 07:15:00,
2013-01-01 00:16:00,10.4,4.9,30.53,SSE,157,0.0,0.0,78,0.00,,SKC,0.00,VWS V14.01,2013-01-01 07:16:00,
2013-01-01 00:17:00,10.3,4.8,30.53,SSE,159,0.0,0.0,78,0.00,,SKC,0.00,VWS V14.01,2013-01-01 07:17:00,
2013-01-01 00:18:00,10.3,5.1,30.53,SSE,155,1.0,1.0,79,0.00,,SKC,0.00,VWS V14.01,2013-01-01 07:18:00,
2013-01-01 00:19:00,10.3,5.1,30.53,SSE,153,0.0,1.0,79,0.00,,SKC,0.00,VWS V14.01,2013-01-01 07:19:00,
2013-01-01 00:20:00,10.3,5.1,30.54,SSE,160,0.0,0.0,79,0.00,,SKC,0.00,VWS V14.01,2013-01-01 07:20:00,
2013-01-01 00:21:00,10.3,5.4,30.54,SSE,155,0.0,0.0,80,0.00,,SKC,0.00,VWS V14.01,2013-01-01 07:21:00,
2013-01-01 00:22:00,10.4,5.5,30.53,SSE,151,1.0,1.0,80,0.00,,SKC,0.00,VWS V14.01,2013-01-01 07:22:00,
2013-01-01 00:23:00,10.4,5.5,30.54,SSE,152,0.0,2.0,80,0.00,,SKC,0.00,VWS V14.01,2013-01-01 07:23:00,
2013-01-01 00:24:00,10.4,5.5,30.53,SSE,159,0.0,0.0,80,0.00,,SKC,0.00,VWS V14.01,2013-01-01 07:24:00,
2013-01-01 00:25:00,10.5,5.6,30.53,SSE,151,1.0,2.0,80,0.00,,SKC,0.00,VWS V14.01,2013-01-01 07:25:00,
2013-01-01 00:26:00,10.6,5.7,30.54,SSE,161,1.0,2.0,80,0.00,,SKC,0.00,VWS V14.01,2013-01-01 07:26:00,
2013-01-01 00:27:00,10.8,5.9,30.53,South,185,3.0,4.0,80,0.00,,SKC,0.00,VWS V14.01,2013-01-01 07:27:00,
2013-01-01 00:28:00,10.9,5.9,30.54,South,184,3.0,4.0,80,0.00,,SKC,0.00,VWS V14.01,2013-01-01 07:28:00,
2013-01-01 00:29:00,11.0,6.1,30.54,South,181,3.0,4.0,80,0.00,,SKC,0.00,VWS V14.01,2013-01-01 07:29:00,
2013-01-01 00:30:00,11.2,6.0,30.53,South,185,0.0,3.0,79,0.00,,SKC,0.00,VWS V14.01,2013-01-01 07:30:00,
2013-01-01 00:31:00,11.2,6.0,30.53,South,184,0.0,0.0,79,0.00,,SKC,0.00,VWS V14.01,2013-01-01 07:31:00,
2013-01-01 00:32:00,11.3,5.8,30.54,South,180,0.0,0.0,78,0.00,,SKC,0.00,VWS V14.01,2013-01-01 07:32:00,
2013-01-01 00:33:00,11.3,5.8,30.53,South,180,0.0,0.0,78,0.00,,SKC,0.00,VWS V14.01,2013-01-01 07:33:00,
2013-01-01 00:34:00,11.3,5.8,30.53,South,185,0.0,0.0,78,0.00,,SKC,0.00,VWS V14.01,2013-01-01 07:34:00,
2013-01-01 00:35:00,11.3,5.8,30.53,South,186,0.0,0.0,78,0.00,,SKC,0.00,VWS V14.01,2013-01-01 07:35:00,
2013-01-01 00:36:00,11.2,5.4,30.53,South,187,0.0,1.0,77,0.00,,SKC,0.00,VWS V14.01,2013-01-01 07:36:00,
2013-01-01 00:37:00,11.2,5.4,30.53,South,175,0.0,1.0,77,0.00,,SKC,0.00,VWS V14.01,2013-01-01 07:37:00,
2013-01-01 00:38:00,11.2,5.4,30.54,South,184,0.0,1.0,77,0.00,,SKC,0.00,VWS V14.01,2013-01-01 07:38:00,
2013-01-01 00:39:00,11.3,5.2,30.53,North,360,0.0,0.0,76,0.00,,SKC,0.00,VWS V14.01,2013-01-01 07:39:00,
2013-01-01 00:40:00,11.3,5.2,30.53,South,186,0.0,0.0,76,0.00,,SKC,0.00,VWS V14.01,2013-01-01 07:40:00,
2013-01-01 00:41:00,11.3,5.2,30.53,South,185,0.0,0.0,76,0.00,,SKC,0.00,VWS V14.01,2013-01-01 07:41:00,
2013-01-01 00:42:00,11.3,5.2,30.53,South,184,0.0,0.0,76,0.00,,SKC,0.00,VWS V14.01,2013-01-01 07:42:00,
2013-01-01 00:43:00,11.4,5.0,30.53,South,180,0.0,1.0,75,0.00,,SKC,0.00,VWS V14.01,2013-01-01 07:43:00,
2013-01-01 00:44:00,11.4,5.0,30.53,South,182,0.0,0.0,75,0.00,,SKC,0.00,VWS V14.01,2013-01-01 07:44:00,
2013-01-01 00:45:00,11.4,5.0,30.53,South,184,0.0,0.0,75,0.00,,SKC,0.00,VWS V14.01,2013-01-01 07:45:00,
2013-01-01 00:46:00,11.5,5.1,30.53,South,180,0.0,0.0,75,0.00,,SKC,0.00,VWS V14.01,2013-01-01 07:46:00,
2013-01-01 00:47:00,11.4,5.0,30.54,South,183,0.0,1.0,75,0.00,,SKC,0.00,VWS V14.01,2013-01-01 07:47:00,
2013-01-01 00:48:00,11.4,5.0,30.54,South,186,1.0,2.0,75,0.00,,SKC,0.00,VWS V14.01,2013-01-01 07:48:00,
2013-01-01 00:49:00,11.4,5.0,30.54,South,185,4.0,4.0,75,0.00,,SKC,0.00,VWS V14.01,2013-01-01 07:49:00,
2013-01-01 00:50:00,11.3,4.6,30.54,South,184,3.0,4.0,74,0.00,,SKC,0.00,VWS V14.01,2013-01-01 07:50:00,
2013-01-01 00:51:00,11.3,4.6,30.54,South,181,3.0,4.0,74,0.00,,SKC,0.00,VWS V14.01,2013-01-01 07:51:00,
2013-01-01 00:52:00,11.2,4.8,30.54,South,186,0.0,3.0,75,0.00,,SKC,0.00,VWS V14.01,2013-01-01 07:52:00,
2013-01-01 00:53:00,11.2,4.8,30.54,South,186,0.0,0.0,75,0.00,,SKC,0.00,VWS V14.01,2013-01-01 07:53:00,
2013-01-01 00:54:00,11.2,4.8,30.54,South,179,0.0,2.0,75,0.00,,SKC,0.00,VWS V14.01,2013-01-01 07:54:00,
2013-01-01 00:55:00,11.2,4.8,30.54,South,183,0.0,0.0,75,0.00,,SKC,0.00,VWS V14.01,2013-01-01 07:55:00,
2013-01-01 00:56:00,11.3,4.9,30.54,South,183,0.0,0.0,75,0.00,,SKC,0.00,VWS V14.01,2013-01-01 07:56:00,
2013-01-01 00:57:00,11.3,4.9,30.54,South,180,0.0,0.0,75,0.00,,SKC,0.00,VWS V14.01,2013-01-01 07:57:00,
2013-01-01 00:58:00,11.4,5.0,30.54,South,189,0.0,0.0,75,0.00,,SKC,0.00,VWS V14.01,2013-01-01 07:58:00,
2013-01-01 00:59:00,11.5,5.1,30.54,South,188,0.0,0.0,75,0.00,,SKC,0.00,VWS V14.01,2013-01-01 07:59:00,
2013-01-01 01:00:00,11.6,5.2,30.54,South,180,0.0,0.0,75,0.00,,SKC,0.00,VWS V14.01,2013-01-01 08:00:00,
2013-01-01 01:01:00,11.6,5.2,30.54,North,360,0.0,0.0,75,0.00,,SKC,0.00,VWS V14.01,2013-01-01 08:01:00,
2013-01-01 01:02:00,11.6,4.9,30.54,South,186,0.0,0.0,74,0.00,,SKC,0.00,VWS V14.01,2013-01-01 08:02:00,
2013-01-01 01:03:00,11.6,4.9,30.54,South,186,0.0,0.0,74,0.00,,SKC,0.00,VWS V14.01,2013-01-01 08:03:00,
2013-01-01 01:04:00,11.6,4.9,30.54,South,184,0.0,0.0,74,0.00,,SKC,0.00,VWS V14.01,2013-01-01 08:04:00,
2013-01-01 01:05:00,11.6,4.9,30.54,South,180,0.0,0.0,74,0.00,,SKC,0.00,VWS V14.01,2013-01-01 08:05:00,
2013-01-01 01:06:00,11.6,4.9,30.54,South,181,0.0,0.0,74,0.00,,SKC,0.00,VWS V14.01,2013-01-01 08:06:00,
2013-01-01 01:07:00,11.6,4.9,30.54,South,182,0.0,0.0,74,0.00,,SKC,0.00,VWS V14.01,2013-01-01 08:07:00,
2013-01-01 01:08:00,11.6,4.9,30.54,South,185,0.0,0.0,74,0.00,,SKC,0.00,VWS V14.01,2013-01-01 08:08:00,
2013-01-01 01:09:00,11.6,4.9,30.54,South,180,0.0,0.0,74,0.00,,SKC,0.00,VWS V14.01,2013-01-01 08:09:00,
2013-01-01 01:10:00,11.5,4.8,30.54,South,182,0.0,0.0,74,0.00,,SKC,0.00,VWS V14.01,2013-01-01 08:10:00,
2013-01-01 01:11:00,11.5,4.8,30.54,South,184,0.0,0.0,74,0.00,,SKC,0.00,VWS V14.01,2013-01-01 08:11:00,
2013-01-01 01:12:00,11.5,4.8,30.54,North,360,0.0,0.0,74,0.00,,SKC,0.00,VWS V14.01,2013-01-01 08:12:00,
2013-01-01 01:13:00,11.5,4.8,30.54,South,183,0.0,0.0,74,0.00,,SKC,0.00,VWS V14.01,2013-01-01 08:13:00,
2013-01-01 01:14:00,11.4,4.7,30.54,South,182,0.0,0.0,74,0.00,,SKC,0.00,VWS V14.01,2013-01-01 08:14:00,
2013-01-01 01:15:00,11.4,4.7,30.54,South,187,0.0,0.0,74,0.00,,SKC,0.00,VWS V14.01,2013-01-01 08:15:00,
2013-01-01 01:16:00,11.4,4.7,30.54,South,185,0.0,1.0,74,0.00,,SKC,0.00,VWS V14.01,2013-01-01 08:16:00,
2013-01-01 01:17:00,11.4,4.7,30.54,South,182,0.0,0.0,74,0.00,,SKC,0.00,VWS V14.01,2013-01-01 08:17:00,
2013-01-01 01:18:00,11.4,4.7,30.54,South,184,0.0,0.0,74,0.00,,SKC,0.00,VWS V14.01,2013-01-01 08:18:00,
2013-01-01 01:19:00,11.4,4.7,30.54,South,184,0.0,0.0,74,0.00,,SKC,0.00,VWS V14.01,2013-01-01 08:19:00,
2013-01-01 01:20:00,11.4,4.7,30.54,South,183,0.0,0.0,74,0.00,,SKC,0.00,VWS V14.01,2013-01-01 08:20:00,
2013-01-01 01:21:00,11.5,4.8,30.54,South,184,0.0,0.0,74,0.00,,SKC,0.00,VWS V14.01,2013-01-01 08:21:00,
2013-01-01 01:22:00,11.6,4.9,30.55,South,182,0.0,0.0,74,0.00,,SKC,0.00,VWS V14.01,2013-01-01 08:22:00,
2013-01-01 01:23:00,11.6,4.9,30.55,South,178,0.0,0.0,74,0.00,,SKC,0.00,VWS V14.01,2013-01-01 08:23:00,
2013-01-01 01:24:00,11.7,5.0,30.55,South,181,0.0,0.0,74,0.00,,SKC,0.00,VWS V14.01,2013-01-01 08:24:00,
2013-01-01 01:25:00,11.8,4.8,30.55,South,183,0.0,0.0,73,0.00,,SKC,0.00,VWS V14.01,2013-01-01 08:25:00,
2013-01-01 01:26:00,11.8,4.8,30.55,North,360,0.0,0.0,73,0.00,,SKC,0.00,VWS V14.01,2013-01-01 08:26:00,
2013-01-01 01:27:00,11.9,4.6,30.55,South,181,0.0,0.0,72,0.00,,SKC,0.00,VWS V14.01,2013-01-01 08:27:00,
2013-01-01 01:28:00,12.0,4.7,30.55,North,360,0.0,0.0,72,0.00,,SKC,0.00,VWS V14.01,2013-01-01 08:28:00,
2013-01-01 01:29:00,12.2,4.9,30.54,South,180,0.0,0.0,72,0.00,,SKC,0.00,VWS V14.01,2013-01-01 08:29:00,
2013-01-01 01:30:00,12.3,4.7,30.55,South,181,0.0,0.0,71,0.00,,SKC,0.00,VWS V14.01,2013-01-01 08:30:00,
2013-01-01 01:31:00,12.4,4.8,30.55,South,182,0.0,0.0,71,0.00,,SKC,0.00,VWS V14.01,2013-01-01 08:31:00,
2013-01-01 01:32:00,12.5,4.9,30.55,South,185,0.0,0.0,71,0.00,,SKC,0.00,VWS V14.01,2013-01-01 08:32:00,
2013-01-01 01:33:00,12.6,4.7,30.55,South,185,0.0,0.0,70,0.00,,SKC,0.00,VWS V14.01,2013-01-01 08:33:00,
2013-01-01 01:34:00,12.7,4.8,30.55,South,185,0.0,0.0,70,0.00,,SKC,0.00,VWS V14.01,2013-01-01 08:34:00,
2013-01-01 01:35:00,12.7,4.8,30.55,South,179,2.0,3.0,70,0.00,,SKC,0.00,VWS V14.01,2013-01-01 08:35:00,
2013-01-01 01:36:00,12.8,4.9,30.55,South,185,0.0,2.0,70,0.00,,SKC,0.00,VWS V14.01,2013-01-01 08:36:00,
2013-01-01 01:37:00,12.8,4.9,30.55,South,182,0.0,2.0,70,0.00,,SKC,0.00,VWS V14.01,2013-01-01 08:37:00,
2013-01-01 01:38:00,12.8,4.9,30.55,South,184,0.0,1.0,70,0.00,,SKC,0.00,VWS V14.01,2013-01-01 08:38:00,
2013-01-01 01:39:00,12.8,4.6,30.55,South,181,0.0,1.0,69,0.00,,SKC,0.00,VWS V14.01,2013-01-01 08:39:00,
2013-01-01 01:40:00,12.9,4.7,30.55,South,182,0.0,0.0,69,0.00,,SKC,0.00,VWS V14.01,2013-01-01 08:40:00,
2013-01-01 01:41:00,12.9,4.7,30.55,South,185,1.0,3.0,69,0.00,,SKC,0.00,VWS V14.01,2013-01-01 08:41:00,
2013-01-01 01:42:00,12.9,4.7,30.55,North,360,1.0,3.0,69,0.00,,SKC,0.00,VWS V14.01,2013-01-01 08:42:00,
2013-01-01 01:43:00,13.0,4.8,30.55,South,180,2.0,3.0,69,0.00,,SKC,0.00,VWS V14.01,2013-01-01 08:43:00,
2013-01-01 01:44:00,13.0,4.4,30.55,South,184,0.0,3.0,68,0.00,,SKC,0.00,VWS V14.01,2013-01-01 08:44:00,
2013-01-01 01:45:00,13.0,4.4,30.55,South,180,0.0,1.0,68,0.00,,SKC,0.00,VWS V14.01,2013-01-01 08:45:00,
2013-01-01 01:46:00,13.0,4.4,30.55,South,175,0.0,0.0,68,0.00,,SKC,0.00,VWS V14.01,2013-01-01 08:46:00,
2013-01-01 01:47:00,13.0,4.4,30.55,South,182,2.0,2.0,68,0.00,,SKC,0.00,VWS V14.01,2013-01-01 08:47:00,
2013-01-01 01:48:00,13.1,4.2,30.55,South,186,0.0,2.0,67,0.00,,SKC,0.00,VWS V14.01,2013-01-01 08:48:00,
2013-01-01 01:49:00,13.1,4.2,30.55,WSW,244,0.0,6.0,67,0.00,,SKC,0.00,VWS V14.01,2013-01-01 08:49:00,
2013-01-01 01:50:00,13.2,4.3,30.55,WSW,248,5.0,5.0,67,0.00,,SKC,0.00,VWS V14.01,2013-01-01 08:50:00,
2013-01-01 01:51:00,13.3,4.1,30.55,WSW,248,5.0,6.0,66,0.00,,SKC,0.00,VWS V14.01,2013-01-01 08:51:00,
2013-01-01 01:52:00,13.4,4.2,30.55,WSW,245,0.0,5.0,66,0.00,,SKC,0.00,VWS V14.01,2013-01-01 08:52:00,
2013-01-01 01:53:00,13.4,4.2,30.55,WSW,248,0.0,0.0,66,0.00,,SKC,0.00,VWS V14.01,2013-01-01 08:53:00,
2013-01-01 01:54:00,13.5,4.3,30.55,WSW,247,0.0,2.0,66,0.00,,SKC,0.00,VWS V14.01,2013-01-01 08:54:00,
2013-01-01 01:55:00,13.5,4.3,30.55,WSW,246,0.0,1.0,66,0.00,,SKC,0.00,VWS V14.01,2013-01-01 08:55:00,
2013-01-01 01:56:00,13.6,4.4,30.55,WSW,246,0.0,0.0,66,0.00,,SKC,0.00,VWS V14.01,2013-01-01 08:56:00,
2013-01-01 01:57:00,13.6,4.4,30.56,WSW,246,0.0,0.0,66,0.00,,SKC,0.00,VWS V14.01,2013-01-01 08:57:00,
2013-01-01 01:58:00,13.6,4.0,30.56,WSW,245,0.0,0.0,65,0.00,,SKC,0.00,VWS V14.01,2013-01-01 08:58:00,
2013-01-01 01:59:00,13.6,4.0,30.56,WSW,254,1.0,2.0,65,0.00,,SKC,0.00,VWS V14.01,2013-01-01 08:59:00,
2013-01-01 02:00:00,13.7,4.1,30.55,WSW,252,0.0,2.0,65,0.00,,SKC,0.00,VWS V14.01,2013-01-01 09:00:00,
2013-01-01 02:01:00,13.7,4.1,30.55,WSW,250,2.0,2.0,65,0.00,,SKC,0.00,VWS V14.01,2013-01-01 09:01:00,
2013-01-01 02:02:00,13.7,3.8,30.56,WSW,248,3.0,4.0,64,0.00,,SKC,0.00,VWS V14.01,2013-01-01 09:02:00,
2013-01-01 02:03:00,13.8,4.2,30.56,North,360,1.0,4.0,65,0.00,,SKC,0.00,VWS V14.01,2013-01-01 09:03:00,
2013-01-01 02:04:00,13.9,4.0,30.56,WSW,250,0.0,3.0,64,0.00,,SKC,0.00,VWS V14.01,2013-01-01 09:04:00,
2013-01-01 02:05:00,14.0,4.1,30.56,WSW,249,0.0,1.0,64,0.00,,SKC,0.00,VWS V14.01,2013-01-01 09:05:00,
2013-01-01 02:06:00,14.1,4.2,30.56,WSW,250,0.0,2.0,64,0.00,,SKC,0.00,VWS V14.01,2013-01-01 09:06:00,
2013-01-01 02:07:00,14.1,4.2,30.56,WSW,248,1.0,2.0,64,0.00,,SKC,0.00,VWS V14.01,2013-01-01 09:07:00,
2013-01-01 02:08:00,14.1,4.5,30.56,WSW,246,1.0,2.0,65,0.00,,SKC,0.00,VWS V14.01,2013-01-01 09:08:00,
2013-01-01 02:09:00,14.1,4.8,30.56,North,360,0.0,1.0,66,0.00,,SKC,0.00,VWS V14.01,2013-01-01 09:09:00,
2013-01-01 02:10:00,14.1,4.8,30.56,WSW,250,3.0,3.0,66,0.00,,SKC,0.00,VWS V14.01,2013-01-01 09:10:00,
2013-01-01 02:11:00,14.0,4.4,30.56,WSW,246,2.0,4.0,65,0.00,,SKC,0.00,VWS V14.01,2013-01-01 09:11:00,
2013-01-01 02:12:00,14.0,4.4,30.56,WSW,249,0.0,3.0,65,0.00,,SKC,0.00,VWS V14.01,2013-01-01 09:12:00,
2013-01-01 02:13:00,14.1,3.8,30.56,WSW,247,0.0,0.0,63,0.00,,SKC,0.00,VWS V14.01,2013-01-01 09:13:00,
2013-01-01 02:14:00,14.2,3.9,30.56,WSW,251,3.0,6.0,63,0.00,,SKC,0.00,VWS V14.01,2013-01-01 09:14:00,
2013-01-01 02:15:00,14.3,4.0,30.56,WSW,244,3.0,3.0,63,0.00,,SKC,0.00,VWS V14.01,2013-01-01 09:15:00,
2013-01-01 02:16:00,14.4,3.8,30.56,WSW,246,0.0,3.0,62,0.00,,SKC,0.00,VWS V14.01,2013-01-01 09:16:00,
2013-01-01 02:17:00,14.5,3.9,30.56,North,360,0.0,3.0,62,0.00,,SKC,0.00,VWS V14.01,2013-01-01 09:17:00,
2013-01-01 02:18:00,14.6,4.0,30.56,WSW,244,0.0,1.0,62,0.00,,SKC,0.00,VWS V14.01,2013-01-01 09:18:00,
2013-01-01 02:19:00,14.7,4.1,30.56,WSW,248,0.0,1.0,62,0.00,,SKC,0.00,VWS V14.01,2013-01-01 09:19:00,
2013-01-01 02:20:00,14.7,4.1,30.56,WSW,249,1.0,5.0,62,0.00,,SKC,0.00,VWS V14.01,2013-01-01 09:20:00,
2013-01-01 02:21:00,14.8,4.2,30.57,WSW,252,2.0,4.0,62,0.00,,SKC,0.00,VWS V14.01,2013-01-01 09:21:00,
2013-01-01 02:22:00,14.8,3.8,30.57,WSW,250,1.0,4.0,61,0.00,,SKC,0.00,VWS V14.01,2013-01-01 09:22:00,
2013-01-01 02:23:00,14.9,3.9,30.57,WSW,246,0.0,3.0,61,0.00,,SKC,0.00,VWS V14.01,2013-01-01 09:23:00,
2013-01-01 02:24:00,14.9,3.9,30.56,WSW,254,3.0,5.0,61,0.00,,SKC,0.00,VWS V14.01,2013-01-01 09:24:00,
2013-01-01 02:25:00,15.0,4.0,30.57,WSW,249,3.0,5.0,61,0.00,,SKC,0.00,VWS V14.01,2013-01-01 09:25:00,
2013-01-01 02:26:00,15.0,4.0,30.57,WSW,248,0.0,3.0,61,0.00,,SKC,0.00,VWS V14.01,2013-01-01 09:26:00,
2013-01-01 02:27:00,15.0,4.0,30.57,WSW,252,2.0,4.0,61,0.00,,SKC,0.00,VWS V14.01,2013-01-01 09:27:00,
2013-01-01 02:28:00,15.0,4.3,30.57,WSW,245,1.0,2.0,62,0.00,,SKC,0.00,VWS V14.01,2013-01-01 09:28:00,
2013-01-01 02:29:00,15.0,5.0,30.57,WSW,250,1.0,1.0,64,0.00,,SKC,0.00,VWS V14.01,2013-01-01 09:29:00,
2013-01-01 02:30:00,14.8,4.8,30.57,WSW,252,2.0,2.0,64,0.00,,SKC,0.00,VWS V14.01,2013-01-01 09:30:00,
2013-01-01 02:31:00,14.7,5.1,30.57,WSW,249,1.0,2.0,65,0.00,,SKC,0.00,VWS V14.01,2013-01-01 09:31:00,
2013-01-01 02:32:00,14.5,4.9,30.57,WSW,250,1.0,2.0,65,0.00,,SKC,0.00,VWS V14.01,2013-01-01 09:32:00,
2013-01-01 02:33:00,14.3,5.0,30.57,WSW,251,1.0,3.0,66,0.00,,SKC,0.00,VWS V14.01,2013-01-01 09:33:00,
2013-01-01 02:34:00,14.2,4.9,30.57,WSW,248,3.0,5.0,66,0.00,,SKC,0.00,VWS V14.01,2013-01-01 09:34:00,
2013-01-01 02:35:00,14.0,4.4,30.57,WSW,253,2.0,3.0,65,0.00,,SKC,0.00,VWS V14.01,2013-01-01 09:35:00,
2013-01-01 02:36:00,13.9,4.7,30.57,WSW,250,3.0,5.0,66,0.00,,SKC,0.00,VWS V14.01,2013-01-01 09:36:00,
2013-01-01 02:37:00,13.9,4.7,30.57,North,360,0.0,5.0,66,0.00,,SKC,0.00,VWS V14.01,2013-01-01 09:37:00,
2013-01-01 02:38:00,13.8,4.9,30.57,WSW,250,0.0,1.0,67,0.00,,SKC,0.00,VWS V14.01,2013-01-01 09:38:00,
2013-01-01 02:39:00,13.7,4.8,30.57,WSW,250,0.0,1.0,67,0.00,,SKC,0.00,VWS V14.01,2013-01-01 09:39:00,
2013-01-01 02:40:00,13.6,4.7,30.57,WSW,250,0.0,1.0,67,0.00,,SKC,0.00,VWS V14.01,2013-01-01 09:40:00,
2013-01-01 02:41:00,13.5,4.6,30.57,North,360,0.0,1.0,67,0.00,,SKC,0.00,VWS V14.01,2013-01-01 09:41:00,
2013-01-01 02:42:00,13.5,4.9,30.57,WSW,246,0.0,0.0,68,0.00,,SKC,0.00,VWS V14.01,2013-01-01 09:42:00,
2013-01-01 02:43:00,13.4,4.8,30.57,North,360,0.0,0.0,68,0.00,,SKC,0.00,VWS V14.01,2013-01-01 09:43:00,
2013-01-01 02:44:00,13.3,4.4,30.57,WSW,245,0.0,0.0,67,0.00,,SKC,0.00,VWS V14.01,2013-01-01 09:44:00,
2013-01-01 02:45:00,13.3,4.4,30.57,WSW,250,0.0,0.0,67,0.00,,SKC,0.00,VWS V14.01,2013-01-01 09:45:00,
2013-01-01 02:46:00,13.3,4.4,30.57,WSW,248,0.0,0.0,67,0.00,,SKC,0.00,VWS V14.01,2013-01-01 09:46:00,
2013-01-01 02:47:00,13.3,4.4,30.57,WSW,249,0.0,0.0,67,0.00,,SKC,0.00,VWS V14.01,2013-01-01 09:47:00,
2013-01-01 02:48:00,13.4,4.5,30.57,WSW,250,0.0,0.0,67,0.00,,SKC,0.00,VWS V14.01,2013-01-01 09:48:00,
2013-01-01 02:49:00,13.5,4.6,30.57,North,360,0.0,1.0,67,0.00,,SKC,0.00,VWS V14.01,2013-01-01 09:49:00,
2013-01-01 02:50:00,13.5,4.6,30.57,North,360,0.0,0.0,67,0.00,,SKC,0.00,VWS V14.01,2013-01-01 09:50:00,
2013-01-01 02:51:00,13.6,4.7,30.57,WSW,251,0.0,0.0,67,0.00,,SKC,0.00,VWS V14.01,2013-01-01 09:51:00,
2013-01-01 02:52:00,13.6,4.7,30.57,WSW,248,0.0,1.0,67,0.00,,SKC,0.00,VWS V14.01,2013-01-01 09:52:00,
2013-01-01 02:53:00,13.6,4.7,30.57,WSW,250,0.0,0.0,67,0.00,,SKC,0.00,VWS V14.01,2013-01-01 09:53:00,
2013-01-01 02:54:00,13.6,4.7,30.57,WSW,251,0.0,0.0,67,0.00,,SKC,0.00,VWS V14.01,2013-01-01 09:54:00,
2013-01-01 02:55:00,13.6,4.7,30.57,WSW,251,0.0,0.0,67,0.00,,SKC,0.00,VWS V14.01,2013-01-01 09:55:00,
2013-01-01 02:56:00,13.6,4.7,30.57,WSW,247,0.0,0.0,67,0.00,,SKC,0.00,VWS V14.01,2013-01-01 09:56:00,
2013-01-01 02:57:00,13.6,4.4,30.57,WSW,252,0.0,0.0,66,0.00,,SKC,0.00,VWS V14.01,2013-01-01 09:57:00,
2013-01-01 02:58:00,13.7,4.5,30.57,WSW,252,0.0,0.0,66,0.00,,SKC,0.00,VWS V14.01,2013-01-01 09:58:00,
2013-01-01 02:59:00,13.6,4.4,30.57,WSW,249,0.0,0.0,66,0.00,,SKC,0.00,VWS V14.01,2013-01-01 09:59:00,
2013-01-01 03:00:00,13.6,4.4,30.57,WSW,252,0.0,0.0,66,0.00,,SKC,0.00,VWS V14.01,2013-01-01 10:00:00,
2013-01-01 03:01:00,13.6,4.4,30.57,WSW,247,0.0,0.0,66,0.00,,SKC,0.00,VWS V14.01,2013-01-01 10:01:00,
2013-01-01 03:02:00,13.6,4.4,30.57,WSW,251,0.0,0.0,66,0.00,,SKC,0.00,VWS V14.01,2013-01-01 10:02:00,
2013-01-01 03:03:00,13.5,4.3,30.57,WSW,250,0.0,0.0,66,0.00,,SKC,0.00,VWS V14.01,2013-01-01 10:03:00,
2013-01-01 03:04:00,13.5,4.3,30.57,WSW,249,0.0,0.0,66,0.00,,SKC,0.00,VWS V14.01,2013-01-01 10:04:00,
2013-01-01 03:05:00,13.5,4.6,30.57,North,360,0.0,0.0,67,0.00,,SKC,0.00,VWS V14.01,2013-01-01 10:05:00,
2013-01-01 03:06:00,13.4,4.5,30.57,WSW,250,0.0,1.0,67,0.00,,SKC,0.00,VWS V14.01,2013-01-01 10:06:00,
2013-01-01 03:07:00,13.4,4.5,30.58,WSW,249,2.0,2.0,67,0.00,,SKC,0.00,VWS V14.01,2013-01-01 10:07:00,
2013-01-01 03:08:00,13.3,4.4,30.58,WSW,257,1.0,2.0,67,0.00,,SKC,0.00,VWS V14.01,2013-01-01 10:08:00,
2013-01-01 03:09:00,13.2,4.3,30.58,WSW,248,1.0,1.0,67,0.00,,SKC,0.00,VWS V14.01,2013-01-01 10:09:00,
2013-01-01 03:10:00,13.2,4.3,30.58,North,360,3.0,3.0,67,0.00,,SKC,0.00,VWS V14.01,2013-01-01 10:10:00,
2013-01-01 03:11:00,13.1,4.2,30.58,WSW,249,3.0,4.0,67,0.00,,SKC,0.00,VWS V14.01,2013-01-01 10:11:00,
2013-01-01 03:12:00,13.0,4.1,30.58,North,360,1.0,3.0,67,0.00,,SKC,0.00,VWS V14.01,2013-01-01 10:12:00,
2013-01-01 03:13:00,13.0,4.1,30.58,WSW,250,1.0,2.0,67,0.00,,SKC,0.00,VWS V14.01,2013-01-01 10:13:00,
2013-01-01 03:14:00,12.9,4.0,30.58,WSW,253,2.0,2.0,67,0.00,,SKC,0.00,VWS V14.01,2013-01-01 10:14:00,
2013-01-01 03:15:00,12.8,3.9,30.58,WSW,248,0.0,2.0,67,0.00,,SKC,0.00,VWS V14.01,2013-01-01 10:15:00,
2013-01-01 03:16:00,12.7,3.8,30.58,WSW,243,3.0,3.0,67,0.00,,SKC,0.00,VWS V14.01,2013-01-01 10:16:00,
2013-01-01 03:17:00,12.7,3.8,30.58,WSW,250,6.0,6.0,67,0.00,,SKC,0.00,VWS V14.01,2013-01-01 10:17:00,
2013-01-01 03:18:00,12.3,3.8,30.58,WSW,251,3.0,6.0,68,0.00,,SKC,0.00,VWS V14.01,2013-01-01 10:18:00,
2013-01-01 03:19:00,12.1,3.6,30.59,WSW,247,0.0,5.0,68,0.00,,SKC,0.00,VWS V14.01,2013-01-01 10:19:00,
2013-01-01 03:20:00,11.8,3.6,30.59,WSW,254,0.0,0.0,69,0.00,,SKC,0.00,VWS V14.01,2013-01-01 10:20:00,
2013-01-01 03:21:00,11.6,4.0,30.59,WSW,248,0.0,2.0,71,0.00,,SKC,0.00,VWS V14.01,2013-01-01 10:21:00,
2013-01-01 03:22:00,11.5,3.9,30.59,WSW,252,1.0,1.0,71,0.00,,SKC,0.00,VWS V14.01,2013-01-01 10:22:00,
2013-01-01 03:23:00,11.4,4.1,30.59,WSW,250,0.0,2.0,72,0.00,,SKC,0.00,VWS V14.01,2013-01-01 10:23:00,
2013-01-01 03:24:00,11.4,4.1,30.59,North,360,0.0,1.0,72,0.00,,SKC,0.00,VWS V14.01,2013-01-01 10:24:00,
2013-01-01 03:25:00,11.3,4.1,30.59,WSW,250,0.0,0.0,72,0.00,,SKC,0.00,VWS V14.01,2013-01-01 10:25:00,
2013-01-01 03:26:00,11.3,4.1,30.59,WSW,250,0.0,0.0,72,0.00,,SKC,0.00,VWS V14.01,2013-01-01 10:26:00,
2013-01-01 03:27:00,11.3,4.1,30.59,WSW,249,0.0,0.0,72,0.00,,SKC,0.00,VWS V14.01,2013-01-01 10:27:00,
2013-01-01 03:28:00,11.2,4.2,30.59,WSW,244,0.0,0.0,73,0.00,,SKC,0.00,VWS V14.01,2013-01-01 10:28:00,
2013-01-01 03:29:00,11.2,4.2,30.60,WSW,249,0.0,1.0,73,0.00,,SKC,0.00,VWS V14.01,2013-01-01 10:29:00,
2013-01-01 03:30:00,11.2,4.6,30.59,WSW,246,0.0,1.0,74,0.00,,SKC,0.00,VWS V14.01,2013-01-01 10:30:00,
2013-01-01 03:31:00,11.1,4.4,30.59,WSW,252,0.0,2.0,74,0.00,,SKC,0.00,VWS V14.01,2013-01-01 10:31:00,
2013-01-01 03:32:00,11.1,4.4,30.59,WSW,254,0.0,0.0,74,0.00,,SKC,0.00,VWS V14.01,2013-01-01 10:32:00,
2013-01-01 03:33:00,11.0,4.3,30.60,WSW,252,0.0,0.0,74,0.00,,SKC,0.00,VWS V14.01,2013-01-01 10:33:00,
2013-01-01 03:34:00,11.0,4.6,30.59,WSW,252,0.0,0.0,75,0.00,,SKC,0.00,VWS V14.01,2013-01-01 10:34:00,
2013-01-01 03:35:00,11.0,4.9,30.60,WSW,251,0.0,0.0,76,0.00,,SKC,0.00,VWS V14.01,2013-01-01 10:35:00,
2013-01-01 03:36:00,11.0,4.9,30.60,WSW,248,0.0,0.0,76,0.00,,SKC,0.00,VWS V14.01,2013-01-01 10:36:00,
2013-01-01 03:37:00,10.9,4.8,30.60,WSW,252,0.0,0.0,76,0.00,,SKC,0.00,VWS V14.01,2013-01-01 10:37:00,
2013-01-01 03:38:00,10.9,4.8,30.60,WSW,249,0.0,1.0,76,0.00,,SKC,0.00,VWS V14.01,2013-01-01 10:38:00,
2013-01-01 03:39:00,10.9,4.8,30.60,WSW,252,0.0,0.0,76,0.00,,SKC,0.00,VWS V14.01,2013-01-01 10:39:00,
2013-01-01 03:40:00,10.8,4.7,30.60,WSW,251,0.0,0.0,76,0.00,,SKC,0.00,VWS V14.01,2013-01-01 10:40:00,
2013-01-01 03:41:00,10.8,4.7,30.60,North,360,0.0,0.0,76,0.00,,SKC,0.00,VWS V14.01,2013-01-01 10:41:00,
2013-01-01 03:42:00,10.7,4.9,30.60,North,360,0.0,0.0,77,0.00,,SKC,0.00,VWS V14.01,2013-01-01 10:42:00,
2013-01-01 03:43:00,10.7,4.9,30.60,WSW,250,0.0,0.0,77,0.00,,SKC,0.00,VWS V14.01,2013-01-01 10:43:00,
2013-01-01 03:44:00,10.7,4.9,30.60,WSW,252,0.0,0.0,77,0.00,,SKC,0.00,VWS V14.01,2013-01-01 10:44:00,
2013-01-01 03:45:00,10.7,4.9,30.60,WSW,248,0.0,0.0,77,0.00,,SKC,0.00,VWS V14.01,2013-01-01 10:45:00,
2013-01-01 03:46:00,10.6,4.8,30.60,WSW,249,0.0,0.0,77,0.00,,SKC,0.00,VWS V14.01,2013-01-01 10:46:00,
2013-01-01 03:47:00,10.6,4.8,30.60,WSW,251,0.0,0.0,77,0.00,,SKC,0.00,VWS V14.01,2013-01-01 10:47:00,
2013-01-01 03:48:00,10.5,5.0,30.60,North,360,0.0,0.0,78,0.00,,SKC,0.00,VWS V14.01,2013-01-01 10:48:00,
2013-01-01 03:49:00,10.5,5.0,30.60,WSW,251,0.0,0.0,78,0.00,,SKC,0.00,VWS V14.01,2013-01-01 10:49:00,
2013-01-01 03:50:00,10.5,5.0,30.60,North,360,0.0,0.0,78,0.00,,SKC,0.00,VWS V14.01,2013-01-01 10:50:00,
2013-01-01 03:51:00,10.4,5.2,30.60,WSW,252,1.0,2.0,79,0.00,,SKC,0.00,VWS V14.01,2013-01-01 10:51:00,
2013-01-01 03:52:00,10.4,5.2,30.60,WSW,245,1.0,1.0,79,0.00,,SKC,0.00,VWS V14.01,2013-01-01 10:52:00,
2013-01-01 03:53:00,10.4,5.2,30.60,WSW,258,0.0,1.0,79,0.00,,SKC,0.00,VWS V14.01,2013-01-01 10:53:00,
2013-01-01 03:54:00,10.4,5.2,30.60,WSW,249,0.0,0.0,79,0.00,,SKC,0.00,VWS V14.01,2013-01-01 10:54:00,
2013-01-01 03:55:00,10.4,4.9,30.60,WSW,249,0.0,0.0,78,0.00,,SKC,0.00,VWS V14.01,2013-01-01 10:55:00,
2013-01-01 03:56:00,10.3,4.8,30.60,WSW,250,1.0,1.0,78,0.00,,SKC,0.00,VWS V14.01,2013-01-01 10:56:00,
2013-01-01 03:57:00,10.3,4.8,30.60,WSW,251,2.0,3.0,78,0.00,,SKC,0.00,VWS V14.01,2013-01-01 10:57:00,
2013-01-01 03:58:00,10.3,4.8,30.60,WSW,250,2.0,3.0,78,0.00,,SKC,0.00,VWS V14.01,2013-01-01 10:58:00,
2013-01-01 03:59:00,10.3,4.8,30.60,WSW,247,2.0,2.0,78,0.00,,SKC,0.00,VWS V14.01,2013-01-01 10:59:00,
2013-01-01 04:00:00,10.3,4.8,30.60,WSW,253,1.0,2.0,78,0.00,,SKC,0.00,VWS V14.01,2013-01-01 11:00:00,
2013-01-01 04:01:00,10.3,4.8,30.60,WSW,251,0.0,2.0,78,0.00,,SKC,0.00,VWS V14.01,2013-01-01 11:01:00,
2013-01-01 04:02:00,10.3,5.1,30.60,North,360,0.0,0.0,79,0.00,,SKC,0.00,VWS V14.01,2013-01-01 11:02:00,
2013-01-01 04:03:00,10.3,5.1,30.60,WSW,252,0.0,0.0,79,0.00,,SKC,0.00,VWS V14.01,2013-01-01 11:03:00,
2013-01-01 04:04:00,10.4,5.2,30.60,WSW,247,0.0,0.0,79,0.00,,SKC,0.00,VWS V14.01,2013-01-01 11:04:00,
2013-01-01 04:05:00,10.4,5.2,30.60,WSW,252,0.0,0.0,79,0.00,,SKC,0.00,VWS V14.01,2013-01-01 11:05:00,
2013-01-01 04:06:00,10.4,4.9,30.60,North,360,0.0,0.0,78,0.00,,SKC,0.00,VWS V14.01,2013-01-01 11:06:00,
2013-01-01 04:07:00,10.4,4.9,30.60,WSW,251,0.0,0.0,78,0.00,,SKC,0.00,VWS V14.01,2013-01-01 11:07:00,
2013-01-01 04:08:00,10.4,4.9,30.60,WSW,252,0.0,0.0,78,0.00,,SKC,0.00,VWS V14.01,2013-01-01 11:08:00,
2013-01-01 04:09:00,10.3,4.8,30.60,WSW,251,0.0,1.0,78,0.00,,SKC,0.00,VWS V14.01,2013-01-01 11:09:00,
2013-01-01 04:10:00,10.4,5.2,30.60,WSW,247,0.0,0.0,79,0.00,,SKC,0.00,VWS V14.01,2013-01-01 11:10:00,
2013-01-01 04:11:00,10.4,5.2,30.59,WSW,247,0.0,0.0,79,0.00,,SKC,0.00,VWS V14.01,2013-01-01 11:11:00,
2013-01-01 04:12:00,10.5,5.3,30.60,WSW,249,0.0,0.0,79,0.00,,SKC,0.00,VWS V14.01,2013-01-01 11:12:00,
2013-01-01 04:13:00,10.5,5.3,30.60,WSW,252,0.0,0.0,79,0.00,,SKC,0.00,VWS V14.01,2013-01-01 11:13:00,
2013-01-01 04:14:00,10.5,5.3,30.60,WSW,250,0.0,0.0,79,0.00,,SKC,0.00,VWS V14.01,2013-01-01 11:14:00,
2013-01-01 04:15:00,10.5,5.3,30.60,WSW,241,0.0,0.0,79,0.00,,SKC,0.00,VWS V14.01,2013-01-01 11:15:00,
2013-01-01 04:16:00,10.6,5.4,30.60,WSW,246,0.0,0.0,79,0.00,,SKC,0.00,VWS V14.01,2013-01-01 11:16:00,
2013-01-01 04:17:00,10.6,5.4,30.60,WSW,254,0.0,0.0,79,0.00,,SKC,0.00,VWS V14.01,2013-01-01 11:17:00,
2013-01-01 04:18:00,10.6,5.4,30.60,WSW,246,0.0,0.0,79,0.00,,SKC,0.00,VWS V14.01,2013-01-01 11:18:00,
2013-01-01 04:19:00,10.7,5.5,30.60,WSW,254,0.0,0.0,79,0.00,,SKC,0.00,VWS V14.01,2013-01-01 11:19:00,
2013-01-01 04:20:00,10.7,5.5,30.60,WSW,252,0.0,1.0,79,0.00,,SKC,0.00,VWS V14.01,2013-01-01 11:20:00,
2013-01-01 04:21:00,10.7,5.5,30.60,WSW,249,0.0,0.0,79,0.00,,SKC,0.00,VWS V14.01,2013-01-01 11:21:00,
2013-01-01 04:22:00,10.7,5.5,30.60,WSW,249,0.0,0.0,79,0.00,,SKC,0.00,VWS V14.01,2013-01-01 11:22:00,
2013-01-01 04:23:00,10.7,5.5,30.60,WSW,245,0.0,0.0,79,0.00,,SKC,0.00,VWS V14.01,2013-01-01 11:23:00,
2013-01-01 04:24:00,10.7,5.5,30.60,WSW,246,0.0,0.0,79,0.00,,SKC,0.00,VWS V14.01,2013-01-01 11:24:00,
2013-01-01 04:25:00,10.7,5.5,30.60,WSW,251,0.0,0.0,79,0.00,,SKC,0.00,VWS V14.01,2013-01-01 11:25:00,
2013-01-01 04:26:00,10.7,5.5,30.60,WSW,249,0.0,0.0,79,0.00,,SKC,0.00,VWS V14.01,2013-01-01 11:26:00,
2013-01-01 04:27:00,10.7,5.5,30.60,WSW,246,0.0,0.0,79,0.00,,SKC,0.00,VWS V14.01,2013-01-01 11:27:00,
2013-01-01 04:28:00,10.6,5.1,30.60,WSW,250,0.0,0.0,78,0.00,,SKC,0.00,VWS V14.01,2013-01-01 11:28:00,
2013-01-01 04:29:00,10.5,5.0,30.60,WSW,253,0.0,0.0,78,0.00,,SKC,0.00,VWS V14.01,2013-01-01 11:29:00,
2013-01-01 04:30:00,10.5,5.0,30.60,WSW,252,0.0,0.0,78,0.00,,SKC,0.00,VWS V14.01,2013-01-01 11:30:00,
2013-01-01 04:31:00,10.4,4.9,30.60,WSW,254,0.0,1.0,78,0.00,,SKC,0.00,VWS V14.01,2013-01-01 11:31:00,
2013-01-01 04:32:00,10.4,4.9,30.60,WSW,253,0.0,0.0,78,0.00,,SKC,0.00,VWS V14.01,2013-01-01 11:32:00,
2013-01-01 04:33:00,10.4,4.9,30.60,North,360,0.0,0.0,78,0.00,,SKC,0.00,VWS V14.01,2013-01-01 11:33:00,
2013-01-01 04:34:00,10.3,4.8,30.60,North,360,0.0,0.0,78,0.00,,SKC,0.00,VWS V14.01,2013-01-01 11:34:00,
2013-01-01 04:35:00,10.3,4.8,30.60,North,360,0.0,0.0,78,0.00,,SKC,0.00,VWS V14.01,2013-01-01 11:35:00,
2013-01-01 04:36:00,10.2,4.7,30.60,WSW,248,0.0,0.0,78,0.00,,SKC,0.00,VWS V14.01,2013-01-01 11:36:00,
2013-01-01 04:37:00,10.2,4.7,30.61,North,360,0.0,0.0,78,0.00,,SKC,0.00,VWS V14.01,2013-01-01 11:37:00,
2013-01-01 04:38:00,10.1,4.6,30.60,WSW,250,0.0,0.0,78,0.00,,SKC,0.00,VWS V14.01,2013-01-01 11:38:00,
2013-01-01 04:39:00,10.1,4.6,30.60,WSW,248,0.0,0.0,78,0.00,,SKC,0.00,VWS V14.01,2013-01-01 11:39:00,
2013-01-01 04:40:00,10.0,4.5,30.60,WSW,249,0.0,0.0,78,0.00,,SKC,0.00,VWS V14.01,2013-01-01 11:40:00,
2013-01-01 04:41:00,9.9,4.4,30.60,WSW,252,0.0,0.0,78,0.00,,SKC,0.00,VWS V14.01,2013-01-01 11:41:00,
2013-01-01 04:42:00,9.9,4.4,30.60,North,360,0.0,0.0,78,0.00,,SKC,0.00,VWS V14.01,2013-01-01 11:42:00,
2013-01-01 04:43:00,9.9,4.4,30.60,WSW,251,0.0,0.0,78,0.00,,SKC,0.00,VWS V14.01,2013-01-01 11:43:00,
2013-01-01 04:44:00,9.9,4.4,30.60,WSW,250,0.0,0.0,78,0.00,,SKC,0.00,VWS V14.01,2013-01-01 11:44:00,
2013-01-01 04:45:00,9.8,4.3,30.60,WSW,252,0.0,0.0,78,0.00,,SKC,0.00,VWS V14.01,2013-01-01 11:45:00,
2013-01-01 04:46:00,9.8,4.3,30.60,WSW,252,0.0,0.0,78,0.00,,SKC,0.00,VWS V14.01,2013-01-01 11:46:00,
2013-01-01 04:47:00,9.7,4.2,30.60,North,360,0.0,0.0,78,0.00,,SKC,0.00,VWS V14.01,2013-01-01 11:47:00,
2013-01-01 04:48:00,9.6,4.1,30.60,WSW,250,0.0,0.0,78,0.00,,SKC,0.00,VWS V14.01,2013-01-01 11:48:00,
2013-01-01 04:49:00,9.5,4.0,30.60,WSW,246,0.0,0.0,78,0.00,,SKC,0.00,VWS V14.01,2013-01-01 11:49:00,
2013-01-01 04:50:00,9.5,4.0,30.60,North,360,0.0,0.0,78,0.00,,SKC,0.00,VWS V14.01,2013-01-01 11:50:00,
2013-01-01 04:51:00,9.4,3.9,30.60,WSW,251,0.0,0.0,78,0.00,,SKC,0.00,VWS V14.01,2013-01-01 11:51:00,
2013-01-01 04:52:00,9.4,3.9,30.60,WSW,249,0.0,0.0,78,0.00,,SKC,0.00,VWS V14.01,2013-01-01 11:52:00,
2013-01-01 04:53:00,9.3,3.8,30.60,WSW,249,0.0,0.0,78,0.00,,SKC,0.00,VWS V14.01,2013-01-01 11:53:00,
2013-01-01 04:54:00,9.3,3.8,30.60,WSW,250,0.0,0.0,78,0.00,,SKC,0.00,VWS V14.01,2013-01-01 11:54:00,
2013-01-01 04:55:00,9.2,3.7,30.60,North,360,0.0,0.0,78,0.00,,SKC,0.00,VWS V14.01,2013-01-01 11:55:00,
2013-01-01 04:56:00,9.2,4.0,30.60,WSW,249,0.0,0.0,79,0.00,,SKC,0.00,VWS V14.01,2013-01-01 11:56:00,
2013-01-01 04:57:00,9.1,3.9,30.60,WSW,247,0.0,0.0,79,0.00,,SKC,0.00,VWS V14.01,2013-01-01 11:57:00,
2013-01-01 04:58:00,9.2,4.0,30.61,WSW,250,0.0,0.0,79,0.00,,SKC,0.00,VWS V14.01,2013-01-01 11:58:00,
2013-01-01 04:59:00,9.1,3.9,30.61,WSW,254,0.0,0.0,79,0.00,,SKC,0.00,VWS V14.01,2013-01-01 11:59:00,
2013-01-01 05:00:00,9.1,3.9,30.61,WSW,251,0.0,0.0,79,0.00,,SKC,0.00,VWS V14.01,2013-01-01 12:00:00,
2013-01-01 05:01:00,9.0,3.8,30.61,North,360,0.0,0.0,79,0.00,,SKC,0.00,VWS V14.01,2013-01-01 12:01:00,
2013-01-01 05:02:00,9.0,3.8,30.61,WSW,248,0.0,0.0,79,0.00,,SKC,0.00,VWS V14.01,2013-01-01 12:02:00,
2013-01-01 05:03:00,9.0,3.8,30.61,WSW,248,0.0,0.0,79,0.00,,SKC,0.00,VWS V14.01,2013-01-01 12:03:00,
2013-01-01 05:04:00,9.0,3.8,30.61,WSW,251,0.0,0.0,79,0.00,,SKC,0.00,VWS V14.01,2013-01-01 12:04:00,
2013-01-01 05:05:00,8.9,3.7,30.61,WSW,253,0.0,0.0,79,0.00,,SKC,0.00,VWS V14.01,2013-01-01 12:05:00,
2013-01-01 05:06:00,8.9,3.7,30.61,WSW,253,0.0,0.0,79,0.00,,SKC,0.00,VWS V14.01,2013-01-01 12:06:00,
2013-01-01 05:07:00,8.9,3.7,30.61,WSW,252,0.0,0.0,79,0.00,,SKC,0.00,VWS V14.01,2013-01-01 12:07:00,
2013-01-01 05:08:00,8.9,3.7,30.61,WSW,248,0.0,0.0,79,0.00,,SKC,0.00,VWS V14.01,2013-01-01 12:08:00,
2013-01-01 05:09:00,8.9,4.0,30.61,WSW,253,0.0,0.0,80,0.00,,SKC,0.00,VWS V14.01,2013-01-01 12:09:00,
2013-01-01 05:10:00,8.8,3.9,30.61,WSW,250,0.0,0.0,80,0.00,,SKC,0.00,VWS V14.01,2013-01-01 12:10:00,
2013-01-01 05:11:00,8.8,3.9,30.61,WSW,246,0.0,0.0,80,0.00,,SKC,0.00,VWS V14.01,2013-01-01 12:11:00,
2013-01-01 05:12:00,8.8,3.9,30.61,WSW,252,0.0,0.0,80,0.00,,SKC,0.00,VWS V14.01,2013-01-01 12:12:00,
2013-01-01 05:13:00,8.9,4.0,30.61,WSW,249,0.0,0.0,80,0.00,,SKC,0.00,VWS V14.01,2013-01-01 12:13:00,
2013-01-01 05:14:00,8.9,4.0,30.60,WSW,246,0.0,0.0,80,0.00,,SKC,0.00,VWS V14.01,2013-01-01 12:14:00,
2013-01-01 05:15:00,8.9,4.0,30.61,North,360,0.0,0.0,80,0.00,,SKC,0.00,VWS V14.01,2013-01-01 12:15:00,
2013-01-01 05:16:00,8.9,4.0,30.60,WSW,252,0.0,0.0,80,0.00,,SKC,0.00,VWS V14.01,2013-01-01 12:16:00,
2013-01-01 05:17:00,8.9,4.0,30.60,WSW,251,0.0,0.0,80,0.00,,SKC,0.00,VWS V14.01,2013-01-01 12:17:00,
2013-01-01 05:18:00,8.9,4.0,30.61,WSW,249,0.0,0.0,80,0.00,,SKC,0.00,VWS V14.01,2013-01-01 12:18:00,
2013-01-01 05:19:00,8.9,4.0,30.60,WSW,254,0.0,0.0,80,0.00,,SKC,0.00,VWS V14.01,2013-01-01 12:19:00,
2013-01-01 05:20:00,8.9,4.0,30.60,WSW,250,0.0,0.0,80,0.00,,SKC,0.00,VWS V14.01,2013-01-01 12:20:00,
2013-01-01 05:21:00,8.9,4.0,30.60,WSW,249,0.0,0.0,80,0.00,,SKC,0.00,VWS V14.01,2013-01-01 12:21:00,
2013-01-01 05:22:00,8.9,4.0,30.60,WSW,250,0.0,0.0,80,0.00,,SKC,0.00,VWS V14.01,2013-01-01 12:22:00,
2013-01-01 05:23:00,8.8,3.9,30.60,WSW,251,0.0,0.0,80,0.00,,SKC,0.00,VWS V14.01,2013-01-01 12:23:00,
2013-01-01 05:24:00,8.8,3.9,30.60,WSW,244,0.0,0.0,80,0.00,,SKC,0.00,VWS V14.01,2013-01-01 12:24:00,
2013-01-01 05:25:00,8.8,3.9,30.60,WSW,248,0.0,0.0,80,0.00,,SKC,0.00,VWS V14.01,2013-01-01 12:25:00,
2013-01-01 05:26:00,8.8,3.9,30.60,WSW,250,0.0,0.0,80,0.00,,SKC,0.00,VWS V14.01,2013-01-01 12:26:00,
2013-01-01 05:27:00,8.7,3.8,30.60,WSW,247,0.0,0.0,80,0.00,,SKC,0.00,VWS V14.01,2013-01-01 12:27:00,
2013-01-01 05:28:00,8.7,3.8,30.60,WSW,254,0.0,0.0,80,0.00,,SKC,0.00,VWS V14.01,2013-01-01 12:28:00,
2013-01-01 05:29:00,8.7,3.8,30.60,WSW,252,0.0,0.0,80,0.00,,SKC,0.00,VWS V14.01,2013-01-01 12:29:00,
2013-01-01 05:30:00,8.8,3.9,30.60,WSW,249,0.0,0.0,80,0.00,,SKC,0.00,VWS V14.01,2013-01-01 12:30:00,
2013-01-01 05:31:00,8.8,3.9,30.60,North,360,0.0,0.0,80,0.00,,SKC,0.00,VWS V14.01,2013-01-01 12:31:00,
2013-01-01 05:32:00,8.8,4.2,30.60,North,360,0.0,0.0,81,0.00,,SKC,0.00,VWS V14.01,2013-01-01 12:32:00,
2013-01-01 05:33:00,8.9,4.3,30.60,WSW,253,0.0,0.0,81,0.00,,SKC,0.00,VWS V14.01,2013-01-01 12:33:00,
2013-01-01 05:34:00,8.9,4.3,30.60,WSW,251,0.0,0.0,81,0.00,,SKC,0.00,VWS V14.01,2013-01-01 12:34:00,
2013-01-01 05:35:00,8.9,4.0,30.60,North,360,0.0,0.0,80,0.00,,SKC,0.00,VWS V14.01,2013-01-01 12:35:00,
2013-01-01 05:36:00,8.9,4.0,30.60,WSW,247,0.0,0.0,80,0.00,,SKC,0.00,VWS V14.01,2013-01-01 12:36:00,
2013-01-01 05:37:00,8.9,4.0,30.60,WSW,253,0.0,0.0,80,0.00,,SKC,0.00,VWS V14.01,2013-01-01 12:37:00,
2013-01-01 05:38:00,8.9,4.0,30.60,North,360,0.0,0.0,80,0.00,,SKC,0.00,VWS V14.01,2013-01-01 12:38:00,
2013-01-01 05:39:00,8.9,4.0,30.60,WSW,252,0.0,0.0,80,0.00,,SKC,0.00,VWS V14.01,2013-01-01 12:39:00,
2013-01-01 05:40:00,8.9,4.0,30.60,WSW,250,0.0,0.0,80,0.00,,SKC,0.00,VWS V14.01,2013-01-01 12:40:00,
2013-01-01 05:41:00,8.9,4.0,30.60,WSW,248,0.0,0.0,80,0.00,,SKC,0.00,VWS V14.01,2013-01-01 12:41:00,
2013-01-01 05:42:00,8.9,4.0,30.60,WSW,248,0.0,0.0,80,0.00,,SKC,0.00,VWS V14.01,2013-01-01 12:42:00,
2013-01-01 05:43:00,8.9,4.0,30.60,WSW,248,0.0,0.0,80,0.00,,SKC,0.00,VWS V14.01,2013-01-01 12:43:00,
2013-01-01 05:44:00,8.9,4.0,30.60,North,360,0.0,0.0,80,0.00,,SKC,0.00,VWS V14.01,2013-01-01 12:44:00,
2013-01-01 05:45:00,9.0,4.1,30.60,WSW,250,0.0,0.0,80,0.00,,SKC,0.00,VWS V14.01,2013-01-01 12:45:00,
2013-01-01 05:46:00,9.0,4.1,30.60,WSW,250,0.0,0.0,80,0.00,,SKC,0.00,VWS V14.01,2013-01-01 12:46:00,
2013-01-01 05:47:00,9.0,4.1,30.60,WSW,246,0.0,1.0,80,0.00,,SKC,0.00,VWS V14.01,2013-01-01 12:47:00,
2013-01-01 05:48:00,9.0,4.4,30.60,North,360,0.0,1.0,81,0.00,,SKC,0.00,VWS V14.01,2013-01-01 12:48:00,
2013-01-01 05:49:00,9.0,4.4,30.60,WSW,245,0.0,0.0,81,0.00,,SKC,0.00,VWS V14.01,2013-01-01 12:49:00,
2013-01-01 05:50:00,9.0,4.1,30.60,WSW,250,0.0,0.0,80,0.00,,SKC,0.00,VWS V14.01,2013-01-01 12:50:00,
2013-01-01 05:51:00,9.0,4.1,30.60,WSW,252,0.0,0.0,80,0.00,,SKC,0.00,VWS V14.01,2013-01-01 12:51:00,
2013-01-01 05:52:00,9.0,4.1,30.60,WSW,246,0.0,0.0,80,0.00,,SKC,0.00,VWS V14.01,2013-01-01 12:52:00,
2013-01-01 05:53:00,9.0,4.1,30.60,WSW,252,0.0,0.0,80,0.00,,SKC,0.00,VWS V14.01,2013-01-01 12:53:00,
2013-01-01 05:54:00,9.0,4.1,30.60,WSW,249,0.0,0.0,80,0.00,,SKC,0.00,VWS V14.01,2013-01-01 12:54:00,
2013-01-01 05:55:00,9.0,4.1,30.60,North,360,0.0,0.0,80,0.00,,SKC,0.00,VWS V14.01,2013-01-01 12:55:00,
2013-01-01 05:56:00,9.0,4.1,30.60,WSW,252,0.0,0.0,80,0.00,,SKC,0.00,VWS V14.01,2013-01-01 12:56:00,
2013-01-01 05:57:00,9.0,4.1,30.60,WSW,252,0.0,0.0,80,0.00,,SKC,0.00,VWS V14.01,2013-01-01 12:57:00,
2013-01-01 05:58:00,9.1,4.2,30.60,WSW,252,0.0,0.0,80,0.00,,SKC,0.00,VWS V14.01,2013-01-01 12:58:00,
2013-01-01 05:59:00,9.1,4.2,30.60,WSW,250,0.0,0.0,80,0.00,,SKC,0.00,VWS V14.01,2013-01-01 12:59:00,
2013-01-01 06:00:00,9.1,4.2,30.60,WSW,252,0.0,0.0,80,0.00,,SKC,0.00,VWS V14.01,2013-01-01 13:00:00,
2013-01-01 06:01:00,9.1,4.2,30.60,WSW,246,0.0,0.0,80,0.00,,SKC,0.00,VWS V14.01,2013-01-01 13:01:00,
2013-01-01 06:02:00,9.1,4.2,30.60,WSW,242,0.0,0.0,80,0.00,,SKC,0.00,VWS V14.01,2013-01-01 13:02:00,
2013-01-01 06:03:00,9.2,4.3,30.60,North,360,0.0,0.0,80,0.00,,SKC,0.00,VWS V14.01,2013-01-01 13:03:00,
2013-01-01 06:04:00,9.2,4.3,30.60,West,259,0.0,1.0,80,0.00,,SKC,0.00,VWS V14.01,2013-01-01 13:04:00,
2013-01-01 06:05:00,9.2,4.3,30.60,North,360,0.0,0.0,80,0.00,,SKC,0.00,VWS V14.01,2013-01-01 13:05:00,
2013-01-01 06:06:00,9.2,4.3,30.60,WSW,250,0.0,0.0,80,0.00,,SKC,0.00,VWS V14.01,2013-01-01 13:06:00,
2013-01-01 06:07:00,9.3,4.4,30.60,WSW,253,0.0,1.0,80,0.00,,SKC,0.00,VWS V14.01,2013-01-01 13:07:00,
2013-01-01 06:08:00,9.3,4.1,30.60,North,360,0.0,0.0,79,0.00,,SKC,0.00,VWS V14.01,2013-01-01 13:08:00,
2013-01-01 06:09:00,9.3,4.1,30.60,WSW,247,0.0,0.0,79,0.00,,SKC,0.00,VWS V14.01,2013-01-01 13:09:00,
2013-01-01 06:10:00,9.3,4.1,30.61,WSW,254,0.0,0.0,79,0.00,,SKC,0.00,VWS V14.01,2013-01-01 13:10:00,
2013-01-01 06:11:00,9.3,4.1,30.61,WSW,249,0.0,1.0,79,0.00,,SKC,0.00,VWS V14.01,2013-01-01 13:11:00,
2013-01-01 06:12:00,9.4,4.2,30.61,WSW,251,0.0,0.0,79,0.00,,SKC,0.00,VWS V14.01,2013-01-01 13:12:00,
2013-01-01 06:13:00,9.3,4.1,30.61,WSW,254,0.0,0.0,79,0.00,,SKC,0.00,VWS V14.01,2013-01-01 13:13:00,
2013-01-01 06:14:00,9.4,4.2,30.61,WSW,250,0.0,0.0,79,0.00,,SKC,0.00,VWS V14.01,2013-01-01 13:14:00,
2013-01-01 06:15:00,9.4,3.9,30.61,WSW,252,0.0,0.0,78,0.00,,SKC,0.00,VWS V14.01,2013-01-01 13:15:00,
2013-01-01 06:16:00,9.4,3.9,30.61,WSW,252,0.0,0.0,78,0.00,,SKC,0.00,VWS V14.01,2013-01-01 13:16:00,
2013-01-01 06:17:00,9.5,4.0,30.61,WSW,249,0.0,0.0,78,0.00,,SKC,0.00,VWS V14.01,2013-01-01 13:17:00,
2013-01-01 06:18:00,9.6,4.1,30.61,WSW,251,0.0,0.0,78,0.00,,SKC,0.00,VWS V14.01,2013-01-01 13:18:00,
2013-01-01 06:19:00,9.6,3.9,30.61,WSW,246,0.0,0.0,77,0.00,,SKC,0.00,VWS V14.01,2013-01-01 13:19:00,
2013-01-01 06:20:00,9.7,4.0,30.61,WSW,250,0.0,0.0,77,0.00,,SKC,0.00,VWS V14.01,2013-01-01 13:20:00,
2013-01-01 06:21:00,9.9,3.9,30.61,WSW,257,0.0,0.0,76,0.00,,SKC,0.00,VWS V14.01,2013-01-01 13:21:00,
2013-01-01 06:22:00,9.9,3.6,30.61,WSW,257,0.0,0.0,75,0.00,,SKC,0.00,VWS V14.01,2013-01-01 13:22:00,
2013-01-01 06:23:00,10.0,3.4,30.61,WSW,250,0.0,0.0,74,0.00,,SKC,0.00,VWS V14.01,2013-01-01 13:23:00,
2013-01-01 06:24:00,10.2,3.6,30.61,WSW,255,0.0,0.0,74,0.00,,SKC,0.00,VWS V14.01,2013-01-01 13:24:00,
2013-01-01 06:25:00,10.3,3.7,30.61,North,360,0.0,0.0,74,0.00,,SKC,0.00,VWS V14.01,2013-01-01 13:25:00,
2013-01-01 06:26:00,10.4,3.5,30.61,WSW,248,0.0,0.0,73,0.00,,SKC,0.00,VWS V14.01,2013-01-01 13:26:00,
2013-01-01 06:27:00,10.5,3.6,30.61,WSW,247,0.0,0.0,73,0.00,,SKC,0.00,VWS V14.01,2013-01-01 13:27:00,
2013-01-01 06:28:00,10.6,3.7,30.61,WSW,250,0.0,0.0,73,0.00,,SKC,0.00,VWS V14.01,2013-01-01 13:28:00,
2013-01-01 06:29:00,10.7,3.5,30.61,WSW,248,0.0,0.0,72,0.00,,SKC,0.00,VWS V14.01,2013-01-01 13:29:00,
2013-01-01 06:30:00,10.7,3.5,30.62,WSW,248,0.0,0.0,72,0.00,,SKC,0.00,VWS V14.01,2013-01-01 13:30:00,
2013-01-01 06:31:00,10.8,3.3,30.62,WSW,250,0.0,0.0,71,0.00,,SKC,0.00,VWS V14.01,2013-01-01 13:31:00,
2013-01-01 06:32:00,10.8,3.3,30.62,WSW,256,0.0,0.0,71,0.00,,SKC,0.00,VWS V14.01,2013-01-01 13:32:00,
2013-01-01 06:33:00,10.9,3.4,30.62,WSW,252,0.0,0.0,71,0.00,,SKC,0.00,VWS V14.01,2013-01-01 13:33:00,
2013-01-01 06:34:00,10.9,3.0,30.62,WSW,246,0.0,0.0,70,0.00,,SKC,0.00,VWS V14.01,2013-01-01 13:34:00,
2013-01-01 06:35:00,11.0,3.2,30.62,WSW,255,0.0,0.0,70,0.00,,SKC,0.00,VWS V14.01,2013-01-01 13:35:00,
2013-01-01 06:36:00,11.0,3.2,30.62,WSW,250,0.0,0.0,70,0.00,,SKC,0.00,VWS V14.01,2013-01-01 13:36:00,
2013-01-01 06:37:00,11.1,2.9,30.62,WSW,249,0.0,0.0,69,0.00,,SKC,0.00,VWS V14.01,2013-01-01 13:37:00,
2013-01-01 06:38:00,11.2,3.0,30.62,WSW,255,0.0,1.0,69,0.00,,SKC,0.00,VWS V14.01,2013-01-01 13:38:00,
2013-01-01 06:39:00,11.3,2.8,30.62,North,360,0.0,0.0,68,0.00,,SKC,0.00,VWS V14.01,2013-01-01 13:39:00,
2013-01-01 06:40:00,11.4,2.9,30.62,North,360,0.0,0.0,68,0.00,,SKC,0.00,VWS V14.01,2013-01-01 13:40:00,
2013-01-01 06:41:00,11.5,3.0,30.62,WSW,250,0.0,0.0,68,0.00,,SKC,0.00,VWS V14.01,2013-01-01 13:41:00,
2013-01-01 06:42:00,11.6,3.1,30.62,WSW,250,0.0,0.0,68,0.00,,SKC,0.00,VWS V14.01,2013-01-01 13:42:00,
2013-01-01 06:43:00,11.7,2.9,30.62,North,360,0.0,0.0,67,0.00,,SKC,0.00,VWS V14.01,2013-01-01 13:43:00,
2013-01-01 06:44:00,11.8,3.0,30.63,WSW,250,0.0,0.0,67,0.00,,SKC,0.00,VWS V14.01,2013-01-01 13:44:00,
2013-01-01 06:45:00,11.8,3.0,30.63,WSW,252,0.0,0.0,67,0.00,,SKC,0.00,VWS V14.01,2013-01-01 13:45:00,
2013-01-01 06:46:00,11.9,3.1,30.63,WSW,248,0.0,0.0,67,0.00,,SKC,0.00,VWS V14.01,2013-01-01 13:46:00,
2013-01-01 06:47:00,11.9,2.7,30.63,WSW,242,0.0,0.0,66,0.00,,SKC,0.00,VWS V14.01,2013-01-01 13:47:00,
2013-01-01 06:48:00,12.0,2.8,30.63,WSW,247,0.0,0.0,66,0.00,,SKC,0.00,VWS V14.01,2013-01-01 13:48:00,
2013-01-01 06:49:00,12.1,2.6,30.63,North,360,0.0,0.0,65,0.00,,SKC,0.00,VWS V14.01,2013-01-01 13:49:00,
2013-01-01 06:50:00,12.1,2.6,30.63,WSW,250,0.0,1.0,65,0.00,,SKC,0.00,VWS V14.01,2013-01-01 13:50:00,
2013-01-01 06:51:00,12.2,2.7,30.63,WSW,252,0.0,0.0,65,0.00,,SKC,0.00,VWS V14.01,2013-01-01 13:51:00,
2013-01-01 06:52:00,12.2,2.7,30.63,North,360,0.0,0.0,65,0.00,,SKC,0.00,VWS V14.01,2013-01-01 13:52:00,
2013-01-01 06:53:00,12.3,2.8,30.63,WSW,250,0.0,0.0,65,0.00,,SKC,0.00,VWS V14.01,2013-01-01 13:53:00,
2013-01-01 06:54:00,12.3,2.5,30.63,WSW,252,0.0,0.0,64,0.00,,SKC,0.00,VWS V14.01,2013-01-01 13:54:00,
2013-01-01 06:55:00,12.3,2.5,30.63,WSW,252,0.0,0.0,64,0.00,,SKC,0.00,VWS V14.01,2013-01-01 13:55:00,
2013-01-01 06:56:00,12.4,2.6,30.63,WSW,253,0.0,0.0,64,0.00,,SKC,0.00,VWS V14.01,2013-01-01 13:56:00,
2013-01-01 06:57:00,12.4,2.6,30.63,WSW,251,0.0,0.0,64,0.00,,SKC,0.00,VWS V14.01,2013-01-01 13:57:00,
2013-01-01 06:58:00,12.5,2.7,30.63,WSW,255,1.0,2.0,64,0.00,,SKC,0.00,VWS V14.01,2013-01-01 13:58:00,
2013-01-01 06:59:00,12.5,2.7,30.63,WSW,249,0.0,1.0,64,0.00,,SKC,0.00,VWS V14.01,2013-01-01 13:59:00,
2013-01-01 07:00:00,12.6,2.8,30.63,WSW,252,2.0,3.0,64,0.00,,SKC,0.00,VWS V14.01,2013-01-01 14:00:00,
2013-01-01 07:01:00,12.7,1.8,30.63,WSW,252,0.0,2.0,61,0.00,,SKC,0.00,VWS V14.01,2013-01-01 14:01:00,
2013-01-01 07:02:00,12.8,1.9,30.63,WSW,252,0.0,0.0,61,0.00,,SKC,0.00,VWS V14.01,2013-01-01 14:02:00,
2013-01-01 07:03:00,12.9,2.0,30.63,WSW,249,0.0,0.0,61,0.00,,SKC,0.00,VWS V14.01,2013-01-01 14:03:00,
2013-01-01 07:04:00,13.0,1.7,30.63,North,360,0.0,0.0,60,0.00,,SKC,0.00,VWS V14.01,2013-01-01 14:04:00,
2013-01-01 07:05:00,13.1,2.2,30.63,WSW,257,0.0,0.0,61,0.00,,SKC,0.00,VWS V14.01,2013-01-01 14:05:00,
2013-01-01 07:06:00,13.1,1.8,30.63,WSW,249,0.0,0.0,60,0.00,,SKC,0.00,VWS V14.01,2013-01-01 14:06:00,
2013-01-01 07:07:00,13.2,1.9,30.63,WSW,250,0.0,0.0,60,0.00,,SKC,0.00,VWS V14.01,2013-01-01 14:07:00,
2013-01-01 07:08:00,13.3,2.0,30.63,WSW,251,0.0,0.0,60,0.00,,SKC,0.00,VWS V14.01,2013-01-01 14:08:00,
2013-01-01 07:09:00,13.4,2.1,30.63,WSW,249,0.0,0.0,60,0.00,,SKC,0.00,VWS V14.01,2013-01-01 14:09:00,
2013-01-01 07:10:00,13.4,1.8,30.63,WSW,250,0.0,0.0,59,0.00,,SKC,0.00,VWS V14.01,2013-01-01 14:10:00,
2013-01-01 07:11:00,13.5,1.5,30.63,WSW,250,0.0,0.0,58,0.00,,SKC,0.00,VWS V14.01,2013-01-01 14:11:00,
2013-01-01 07:12:00,13.5,1.1,30.63,WSW,248,0.0,0.0,57,0.00,,SKC,0.00,VWS V14.01,2013-01-01 14:12:00,
2013-01-01 07:13:00,13.6,1.2,30.63,WSW,252,0.0,0.0,57,0.00,,SKC,0.00,VWS V14.01,2013-01-01 14:13:00,
2013-01-01 07:14:00,13.7,1.7,30.63,WSW,248,0.0,0.0,58,0.00,,SKC,0.00,VWS V14.01,2013-01-01 14:14:00,
2013-01-01 07:15:00,13.7,1.3,30.63,WSW,247,0.0,0.0,57,0.00,,SKC,0.00,VWS V14.01,2013-01-01 14:15:00,
2013-01-01 07:16:00,13.7,1.3,30.63,WSW,243,0.0,0.0,57,0.00,,SKC,0.00,VWS V14.01,2013-01-01 14:16:00,
2013-01-01 07:17:00,13.7,1.3,30.63,WSW,250,0.0,0.0,57,0.00,,SKC,0.00,VWS V14.01,2013-01-01 14:17:00,
2013-01-01 07:18:00,13.8,1.8,30.63,WSW,252,3.0,3.0,58,0.00,,SKC,0.00,VWS V14.01,2013-01-01 14:18:00,
2013-01-01 07:19:00,13.8,1.8,30.63,WSW,247,1.0,3.0,58,0.00,,SKC,0.00,VWS V14.01,2013-01-01 14:19:00,
2013-01-01 07:20:00,13.8,1.0,30.64,WSW,248,0.0,1.0,56,0.00,,SKC,0.00,VWS V14.01,2013-01-01 14:20:00,
2013-01-01 07:21:00,13.9,1.5,30.64,WSW,250,0.0,0.0,57,0.00,,SKC,0.00,VWS V14.01,2013-01-01 14:21:00,
2013-01-01 07:22:00,13.9,1.5,30.63,WSW,251,1.0,1.0,57,0.00,,SKC,0.00,VWS V14.01,2013-01-01 14:22:00,
2013-01-01 07:23:00,13.9,1.1,30.64,WSW,250,2.0,4.0,56,0.00,,SKC,0.00,VWS V14.01,2013-01-01 14:23:00,
2013-01-01 07:24:00,14.0,1.2,30.64,WSW,250,3.0,3.0,56,0.00,,SKC,0.00,VWS V14.01,2013-01-01 14:24:00,
2013-01-01 07:25:00,14.0,1.6,30.64,WSW,253,2.0,4.0,57,0.00,,SKC,0.00,VWS V14.01,2013-01-01 14:25:00,
2013-01-01 07:26:00,14.0,1.6,30.64,WSW,248,0.0,2.0,57,0.00,,SKC,0.00,VWS V14.01,2013-01-01 14:26:00,
2013-01-01 07:27:00,14.1,0.9,30.64,North,360,0.0,0.0,55,0.00,,SKC,0.00,VWS V14.01,2013-01-01 14:27:00,
2013-01-01 07:28:00,14.1,0.5,30.64,WSW,252,2.0,3.0,54,0.00,,SKC,0.00,VWS V14.01,2013-01-01 14:28:00,
2013-01-01 07:29:00,14.2,1.0,30.64,North,360,0.0,2.0,55,0.00,,SKC,0.00,VWS V14.01,2013-01-01 14:29:00,
2013-01-01 07:30:00,14.2,1.0,30.64,North,360,2.0,2.0,55,0.00,,SKC,0.00,VWS V14.01,2013-01-01 14:30:00,
2013-01-01 07:31:00,14.3,0.7,30.64,WSW,251,0.0,3.0,54,0.00,,SKC,0.00,VWS V14.01,2013-01-01 14:31:00,
2013-01-01 07:32:00,14.3,1.5,30.64,WSW,254,0.0,2.0,56,0.00,,SKC,0.00,VWS V14.01,2013-01-01 14:32:00,
2013-01-01 07:33:00,14.4,1.2,30.64,WSW,254,3.0,3.0,55,0.00,,SKC,0.00,VWS V14.01,2013-01-01 14:33:00,
2013-01-01 07:34:00,14.4,1.2,30.64,WSW,257,2.0,4.0,55,0.00,,SKC,0.00,VWS V14.01,2013-01-01 14:34:00,
2013-01-01 07:35:00,14.4,0.8,30.64,WSW,250,2.0,3.0,54,0.00,,SKC,0.00,VWS V14.01,2013-01-01 14:35:00,
2013-01-01 07:36:00,14.5,1.3,30.64,West,264,4.0,5.0,55,0.00,,SKC,0.00,VWS V14.01,2013-01-01 14:36:00,
2013-01-01 07:37:00,14.6,1.8,30.64,West,261,5.0,5.0,56,0.00,,SKC,0.00,VWS V14.01,2013-01-01 14:37:00,
2013-01-01 07:38:00,14.6,2.2,30.64,West,263,0.0,5.0,57,0.00,,SKC,0.00,VWS V14.01,2013-01-01 14:38:00,
2013-01-01 07:39:00,14.6,1.8,30.64,West,261,1.0,1.0,56,0.00,,SKC,0.00,VWS V14.01,2013-01-01 14:39:00,
2013-01-01 07:40:00,14.6,1.8,30.65,West,262,2.0,5.0,56,0.00,,SKC,0.00,VWS V14.01,2013-01-01 14:40:00,
2013-01-01 07:41:00,14.7,0.7,30.65,WSW,257,4.0,4.0,53,0.00,,SKC,0.00,VWS V14.01,2013-01-01 14:41:00,
2013-01-01 07:42:00,14.7,0.3,30.65,West,259,4.0,6.0,52,0.00,,SKC,0.00,VWS V14.01,2013-01-01 14:42:00,
2013-01-01 07:43:00,14.8,0.8,30.65,West,261,4.0,6.0,53,0.00,,SKC,0.00,VWS V14.01,2013-01-01 14:43:00,
2013-01-01 07:44:00,14.8,0.4,30.65,West,266,4.0,6.0,52,0.00,,SKC,0.00,VWS V14.01,2013-01-01 14:44:00,
2013-01-01 07:45:00,14.9,0.9,30.65,West,259,4.0,7.0,53,0.00,,SKC,0.00,VWS V14.01,2013-01-01 14:45:00,
2013-01-01 07:46:00,15.0,1.0,30.65,West,263,2.0,4.0,53,0.00,,SKC,0.00,VWS V14.01,2013-01-01 14:46:00,
2013-01-01 07:47:00,15.0,1.0,30.65,West,265,3.0,5.0,53,0.00,,SKC,0.00,VWS V14.01,2013-01-01 14:47:00,
2013-01-01 07:48:00,15.1,0.6,30.65,West,261,2.0,5.0,52,0.00,,SKC,0.00,VWS V14.01,2013-01-01 14:48:00,
2013-01-01 07:49:00,15.1,-0.2,30.65,West,262,2.0,7.0,50,0.00,,SKC,0.00,VWS V14.01,2013-01-01 14:49:00,
2013-01-01 07:50:00,15.2,0.8,30.65,West,266,0.0,2.0,52,0.00,,SKC,0.00,VWS V14.01,2013-01-01 14:50:00,
2013-01-01 07:51:00,15.3,0.4,30.65,West,261,1.0,5.0,51,0.00,,SKC,0.00,VWS V14.01,2013-01-01 14:51:00,
2013-01-01 07:52:00,15.3,0.4,30.65,West,269,1.0,5.0,51,0.00,,SKC,0.00,VWS V14.01,2013-01-01 14:52:00,
2013-01-01 07:53:00,15.3,0.0,30.65,North,360,0.0,2.0,50,0.00,,SKC,0.00,VWS V14.01,2013-01-01 14:53:00,
2013-01-01 07:54:00,15.3,0.4,30.65,West,259,2.0,3.0,51,0.00,,SKC,0.00,VWS V14.01,2013-01-01 14:54:00,
2013-01-01 07:55:00,15.4,0.5,30.66,West,264,2.0,4.0,51,0.00,,SKC,0.00,VWS V14.01,2013-01-01 14:55:00,
2013-01-01 07:56:00,15.4,1.3,30.65,West,262,0.0,2.0,53,0.00,,SKC,0.00,VWS V14.01,2013-01-01 14:56:00,
2013-01-01 07:57:00,15.4,0.9,30.65,West,265,4.0,6.0,52,0.00,,SKC,0.00,VWS V14.01,2013-01-01 14:57:00,
2013-01-01 07:58:00,15.4,0.9,30.65,West,265,2.0,9.0,52,0.00,,SKC,0.00,VWS V14.01,2013-01-01 14:58:00,
2013-01-01 07:59:00,15.4,0.5,30.65,West,267,0.0,3.0,51,0.00,,SKC,0.00,VWS V14.01,2013-01-01 14:59:00,
2013-01-01 08:00:00,15.4,0.5,30.66,West,264,2.0,2.0,51,0.00,,SKC,0.00,VWS V14.01,2013-01-01 15:00:00,
2013-01-01 08:01:00,15.4,0.9,30.66,West,265,1.0,3.0,52,0.00,,SKC,0.00,VWS V14.01,2013-01-01 15:01:00,
2013-01-01 08:02:00,15.4,0.9,30.66,North,360,0.0,2.0,52,0.00,,SKC,0.00,VWS V14.01,2013-01-01 15:02:00,
2013-01-01 08:03:00,15.4,1.3,30.66,West,266,0.0,1.0,53,0.00,,SKC,0.00,VWS V14.01,2013-01-01 15:03:00,
2013-01-01 08:04:00,15.4,1.3,30.66,West,264,0.0,0.0,53,0.00,,SKC,0.00,VWS V14.01,2013-01-01 15:04:00,
2013-01-01 08:05:00,15.4,1.7,30.66,West,268,1.0,1.0,54,0.00,,SKC,0.00,VWS V14.01,2013-01-01 15:05:00,
2013-01-01 08:06:00,15.5,1.8,30.66,West,269,0.0,2.0,54,0.00,,SKC,0.00,VWS V14.01,2013-01-01 15:06:00,
2013-01-01 08:07:00,15.4,1.7,30.66,West,262,0.0,0.0,54,0.00,,SKC,0.00,VWS V14.01,2013-01-01 15:07:00,
2013-01-01 08:08:00,15.4,0.9,30.66,West,263,0.0,1.0,52,0.00,,SKC,0.00,VWS V14.01,2013-01-01 15:08:00,
2013-01-01 08:09:00,15.4,1.3,30.66,West,267,0.0,0.0,53,0.00,,SKC,0.00,VWS V14.01,2013-01-01 15:09:00,
2013-01-01 08:10:00,15.4,1.3,30.66,West,261,2.0,2.0,53,0.00,,SKC,0.00,VWS V14.01,2013-01-01 15:10:00,
2013-01-01 08:11:00,15.4,1.3,30.66,West,267,1.0,3.0,53,0.00,,SKC,0.00,VWS V14.01,2013-01-01 15:11:00,
2013-01-01 08:12:00,15.4,1.7,30.66,West,264,1.0,3.0,54,0.00,,SKC,0.00,VWS V14.01,2013-01-01 15:12:00,
2013-01-01 08:13:00,15.4,1.7,30.66,West,263,1.0,1.0,54,0.00,,SKC,0.00,VWS V14.01,2013-01-01 15:13:00,
2013-01-01 08:14:00,15.4,2.1,30.66,West,263,0.0,2.0,55,0.00,,SKC,0.00,VWS V14.01,2013-01-01 15:14:00,
2013-01-01 08:15:00,15.4,2.1,30.66,West,265,2.0,4.0,55,0.00,,SKC,0.00,VWS V14.01,2013-01-01 15:15:00,
2013-01-01 08:16:00,15.4,2.1,30.66,West,261,1.0,4.0,55,0.00,,SKC,0.00,VWS V14.01,2013-01-01 15:16:00,
2013-01-01 08:17:00,15.3,2.0,30.66,West,269,2.0,4.0,55,0.00,,SKC,0.00,VWS V14.01,2013-01-01 15:17:00,
2013-01-01 08:18:00,15.3,2.0,30.66,West,265,0.0,3.0,55,0.00,,SKC,0.00,VWS V14.01,2013-01-01 15:18:00,
2013-01-01 08:19:00,15.3,1.2,30.66,West,267,0.0,0.0,53,0.00,,SKC,0.00,VWS V14.01,2013-01-01 15:19:00,
2013-01-01 08:20:00,15.3,0.8,30.66,West,266,2.0,3.0,52,0.00,,SKC,0.00,VWS V14.01,2013-01-01 15:20:00,
2013-01-01 08:21:00,15.3,0.4,30.66,West,265,0.0,2.0,51,0.00,,SKC,0.00,VWS V14.01,2013-01-01 15:21:00,
2013-01-01 08:22:00,15.3,0.4,30.66,West,265,0.0,0.0,51,0.00,,SKC,0.00,VWS V14.01,2013-01-01 15:22:00,
2013-01-01 08:23:00,15.3,0.4,30.67,North,360,0.0,0.0,51,0.00,,SKC,0.00,VWS V14.01,2013-01-01 15:23:00,
2013-01-01 08:24:00,15.3,0.4,30.66,West,263,0.0,0.0,51,0.00,,SKC,0.00,VWS V14.01,2013-01-01 15:24:00,
2013-01-01 08:25:00,15.3,0.8,30.67,North,360,0.0,2.0,52,0.00,,SKC,0.00,VWS V14.01,2013-01-01 15:25:00,
2013-01-01 08:26:00,15.3,1.2,30.67,West,265,0.0,0.0,53,0.00,,SKC,0.00,VWS V14.01,2013-01-01 15:26:00,
2013-01-01 08:27:00,15.3,0.4,30.67,West,263,2.0,3.0,51,0.00,,SKC,0.00,VWS V14.01,2013-01-01 15:27:00,
2013-01-01 08:28:00,15.4,0.1,30.67,West,267,0.0,2.0,50,0.00,,SKC,0.00,VWS V14.01,2013-01-01 15:28:00,
2013-01-01 08:29:00,15.5,0.2,30.67,West,269,7.0,7.0,50,0.00,,SKC,0.00,VWS V14.01,2013-01-01 15:29:00,
2013-01-01 08:30:00,15.5,0.6,30.67,West,277,2.0,9.0,51,0.00,,SKC,0.00,VWS V14.01,2013-01-01 15:30:00,
2013-01-01 08:31:00,15.5,0.2,30.67,West,274,0.0,2.0,50,0.00,,SKC,0.00,VWS V14.01,2013-01-01 15:31:00,
2013-01-01 08:32:00,15.6,0.3,30.67,West,276,0.0,1.0,50,0.00,,SKC,0.00,VWS V14.01,2013-01-01 15:32:00,
2013-01-01 08:33:00,15.7,0.8,30.66,West,276,0.0,1.0,51,0.00,,SKC,0.00,VWS V14.01,2013-01-01 15:33:00,
2013-01-01 08:34:00,15.7,1.2,30.66,North,360,0.0,0.0,52,0.00,,SKC,0.00,VWS V14.01,2013-01-01 15:34:00,
2013-01-01 08:35:00,15.7,0.8,30.67,West,276,0.0,0.0,51,0.00,,SKC,0.00,VWS V14.01,2013-01-01 15:35:00,
2013-01-01 08:36:00,15.7,0.8,30.66,North,360,0.0,0.0,51,0.00,,SKC,0.00,VWS V14.01,2013-01-01 15:36:00,
2013-01-01 08:37:00,15.7,1.6,30.67,West,275,2.0,4.0,53,0.00,,SKC,0.00,VWS V14.01,2013-01-01 15:37:00,
2013-01-01 08:38:00,15.7,1.6,30.67,West,277,0.0,4.0,53,0.00,,SKC,0.00,VWS V14.01,2013-01-01 15:38:00,
2013-01-01 08:39:00,15.7,0.8,30.67,West,273,0.0,1.0,51,0.00,,SKC,0.00,VWS V14.01,2013-01-01 15:39:00,
2013-01-01 08:40:00,15.7,0.8,30.67,West,273,1.0,2.0,51,0.00,,SKC,0.00,VWS V14.01,2013-01-01 15:40:00,
2013-01-01 08:41:00,15.7,0.8,30.67,West,272,0.0,1.0,51,0.00,,SKC,0.00,VWS V14.01,2013-01-01 15:41:00,
2013-01-01 08:42:00,15.7,0.8,30.66,West,277,2.0,2.0,51,0.00,,SKC,0.00,VWS V14.01,2013-01-01 15:42:00,
2013-01-01 08:43:00,15.7,0.4,30.67,West,277,2.0,4.0,50,0.00,,SKC,0.00,VWS V14.01,2013-01-01 15:43:00,
2013-01-01 08:44:00,15.7,0.8,30.66,West,279,1.0,4.0,51,0.00,,SKC,0.00,VWS V14.01,2013-01-01 15:44:00,
2013-01-01 08:45:00,15.7,1.2,30.66,West,272,2.0,4.0,52,0.00,,SKC,0.00,VWS V14.01,2013-01-01 15:45:00,
2013-01-01 08:46:00,15.7,1.6,30.66,West,275,12.0,12.0,53,0.00,,SKC,0.00,VWS V14.01,2013-01-01 15:46:00,
2013-01-01 08:47:00,15.7,0.4,30.66,West,281,8.0,12.0,50,0.00,,SKC,0.00,VWS V14.01,2013-01-01 15:47:00,
2013-01-01 08:48:00,15.7,-0.5,30.66,West,278,3.0,8.0,48,0.00,,SKC,0.00,VWS V14.01,2013-01-01 15:48:00,
2013-01-01 08:49:00,15.8,0.0,30.66,West,275,5.0,7.0,49,0.00,,SKC,0.00,VWS V14.01,2013-01-01 15:49:00,
2013-01-01 08:50:00,15.8,0.5,30.66,West,278,0.0,5.0,50,0.00,,SKC,0.00,VWS V14.01,2013-01-01 15:50:00,
2013-01-01 08:51:00,15.8,0.9,30.66,North,360,2.0,10.0,51,0.00,,SKC,0.00,VWS V14.01,2013-01-01 15:51:00,
2013-01-01 08:52:00,15.8,0.9,30.66,West,279,0.0,3.0,51,0.00,,SKC,0.00,VWS V14.01,2013-01-01 15:52:00,
2013-01-01 08:53:00,15.8,0.9,30.66,West,277,0.0,1.0,51,0.00,,SKC,0.00,VWS V14.01,2013-01-01 15:53:00,
2013-01-01 08:54:00,15.9,1.0,30.66,West,275,0.0,0.0,51,0.00,,SKC,0.00,VWS V14.01,2013-01-01 15:54:00,
2013-01-01 08:55:00,15.9,1.0,30.66,West,280,0.0,0.0,51,0.00,,SKC,0.00,VWS V14.01,2013-01-01 15:55:00,
2013-01-01 08:56:00,15.9,1.0,30.66,West,275,0.0,0.0,51,0.00,,SKC,0.00,VWS V14.01,2013-01-01 15:56:00,
2013-01-01 08:57:00,15.9,1.0,30.66,WNW,282,0.0,2.0,51,0.00,,SKC,0.00,VWS V14.01,2013-01-01 15:57:00,
2013-01-01 08:58:00,15.9,1.0,30.66,West,277,0.0,0.0,51,0.00,,SKC,0.00,VWS V14.01,2013-01-01 15:58:00,
2013-01-01 08:59:00,15.9,1.0,30.66,West,271,2.0,3.0,51,0.00,,SKC,0.00,VWS V14.01,2013-01-01 15:59:00,
2013-01-01 09:00:00,15.9,1.0,30.66,North,360,1.0,6.0,51,0.00,,SKC,0.00,VWS V14.01,2013-01-01 16:00:00,
2013-01-01 09:01:00,15.9,0.1,30.66,West,278,2.0,3.0,49,0.00,,SKC,0.00,VWS V14.01,2013-01-01 16:01:00,
2013-01-01 09:02:00,15.9,0.1,30.66,West,278,0.0,3.0,49,0.00,,SKC,0.00,VWS V14.01,2013-01-01 16:02:00,
2013-01-01 09:03:00,15.9,0.1,30.66,West,276,0.0,1.0,49,0.00,,SKC,0.00,VWS V14.01,2013-01-01 16:03:00,
2013-01-01 09:04:00,15.9,-0.3,30.66,West,271,1.0,1.0,48,0.00,,SKC,0.00,VWS V14.01,2013-01-01 16:04:00,
2013-01-01 09:05:00,15.9,0.1,30.66,West,275,0.0,2.0,49,0.00,,SKC,0.00,VWS V14.01,2013-01-01 16:05:00,
2013-01-01 09:06:00,16.0,0.2,30.66,West,278,3.0,3.0,49,0.00,,SKC,0.00,VWS V14.01,2013-01-01 16:06:00,
2013-01-01 09:07:00,16.0,0.2,30.66,WNW,285,2.0,3.0,49,0.00,,SKC,0.00,VWS V14.01,2013-01-01 16:07:00,
2013-01-01 09:08:00,16.0,0.2,30.66,West,271,0.0,2.0,49,0.00,,SKC,0.00,VWS V14.01,2013-01-01 16:08:00,
2013-01-01 09:09:00,16.0,0.2,30.66,West,275,0.0,1.0,49,0.00,,SKC,0.00,VWS V14.01,2013-01-01 16:09:00,
2013-01-01 09:10:00,16.0,0.6,30.67,West,273,0.0,0.0,50,0.00,,SKC,0.00,VWS V14.01,2013-01-01 16:10:00,
2013-01-01 09:11:00,16.0,0.6,30.66,West,277,0.0,1.0,50,0.00,,SKC,0.00,VWS V14.01,2013-01-01 16:11:00,
2013-01-01 09:12:00,16.0,0.6,30.66,North,360,0.0,1.0,50,0.00,,SKC,0.00,VWS V14.01,2013-01-01 16:12:00,
2013-01-01 09:13:00,16.1,0.8,30.67,West,272,0.0,1.0,50,0.00,,SKC,0.00,VWS V14.01,2013-01-01 16:13:00,
2013-01-01 09:14:00,16.1,0.8,30.67,West,275,0.0,0.0,50,0.00,,SKC,0.00,VWS V14.01,2013-01-01 16:14:00,
2013-01-01 09:15:00,16.1,0.3,30.67,WNW,284,0.0,1.0,49,0.00,,SKC,0.00,VWS V14.01,2013-01-01 16:15:00,
2013-01-01 09:16:00,16.1,0.8,30.67,West,279,0.0,0.0,50,0.00,,SKC,0.00,VWS V14.01,2013-01-01 16:16:00,
2013-01-01 09:17:00,16.2,0.8,30.67,West,277,0.0,0.0,50,0.00,,SKC,0.00,VWS V14.01,2013-01-01 16:17:00,
2013-01-01 09:18:00,16.2,0.8,30.67,West,277,0.0,0.0,50,0.00,,SKC,0.00,VWS V14.01,2013-01-01 16:18:00,
2013-01-01 09:19:00,16.2,0.8,30.67,West,276,0.0,0.0,50,0.00,,SKC,0.00,VWS V14.01,2013-01-01 16:19:00,
2013-01-01 09:20:00,16.3,1.4,30.67,West,277,0.0,1.0,51,0.00,,SKC,0.00,VWS V14.01,2013-01-01 16:20:00,
2013-01-01 09:21:00,16.3,0.9,30.67,West,281,0.0,0.0,50,0.00,,SKC,0.00,VWS V14.01,2013-01-01 16:21:00,
2013-01-01 09:22:00,16.4,1.0,30.67,North,360,0.0,0.0,50,0.00,,SKC,0.00,VWS V14.01,2013-01-01 16:22:00,
2013-01-01 09:23:00,16.5,0.2,30.67,West,273,2.0,3.0,48,0.00,,SKC,0.00,VWS V14.01,2013-01-01 16:23:00,
2013-01-01 09:24:00,16.6,1.2,30.67,West,276,0.0,2.0,50,0.00,,SKC,0.00,VWS V14.01,2013-01-01 16:24:00,
2013-01-01 09:25:00,16.7,2.1,30.67,North,360,2.0,2.0,52,0.00,,SKC,0.00,VWS V14.01,2013-01-01 16:25:00,
2013-01-01 09:26:00,16.8,3.8,30.67,North,360,1.0,3.0,56,0.00,,SKC,0.00,VWS V14.01,2013-01-01 16:26:00,
2013-01-01 09:27:00,17.0,4.4,30.67,West,280,2.0,4.0,57,0.00,,SKC,0.00,VWS V14.01,2013-01-01 16:27:00,
2013-01-01 09:28:00,17.1,4.9,30.67,West,280,0.0,2.0,58,0.00,,SKC,0.00,VWS V14.01,2013-01-01 16:28:00,
2013-01-01 09:29:00,17.2,5.0,30.67,West,278,1.0,1.0,58,0.00,,SKC,0.00,VWS V14.01,2013-01-01 16:29:00,
2013-01-01 09:30:00,17.3,4.7,30.67,West,279,1.0,3.0,57,0.00,,SKC,0.00,VWS V14.01,2013-01-01 16:30:00,
2013-01-01 09:31:00,17.4,4.8,30.67,West,279,3.0,3.0,57,0.00,,SKC,0.00,VWS V14.01,2013-01-01 16:31:00,
2013-01-01 09:32:00,17.5,4.9,30.67,West,278,2.0,5.0,57,0.00,,SKC,0.00,VWS V14.01,2013-01-01 16:32:00,
2013-01-01 09:33:00,17.6,5.0,30.67,West,275,4.0,4.0,57,0.00,,SKC,0.00,VWS V14.01,2013-01-01 16:33:00,
2013-01-01 09:34:00,17.7,5.1,30.67,West,277,3.0,5.0,57,0.00,,SKC,0.00,VWS V14.01,2013-01-01 16:34:00,
2013-01-01 09:35:00,17.7,5.1,30.67,West,279,3.0,4.0,57,0.00,,SKC,0.00,VWS V14.01,2013-01-01 16:35:00,
2013-01-01 09:36:00,17.9,6.0,30.67,West,273,3.0,5.0,59,0.00,,SKC,0.00,VWS V14.01,2013-01-01 16:36:00,
2013-01-01 09:37:00,18.0,6.5,30.67,North,360,3.0,4.0,60,0.00,,SKC,0.00,VWS V14.01,2013-01-01 16:37:00,
2013-01-01 09:38:00,18.1,6.9,30.67,West,277,4.0,4.0,61,0.00,,SKC,0.00,VWS V14.01,2013-01-01 16:38:00,
2013-01-01 09:39:00,18.2,7.0,30.67,North,360,4.0,4.0,61,0.00,,SKC,0.00,VWS V14.01,2013-01-01 16:39:00,
2013-01-01 09:40:00,18.4,7.6,30.67,North,360,2.0,4.0,62,0.00,,SKC,0.00,VWS V14.01,2013-01-01 16:40:00,
2013-01-01 09:41:00,18.6,8.1,30.67,North,360,2.0,3.0,63,0.00,,SKC,0.00,VWS V14.01,2013-01-01 16:41:00,
2013-01-01 09:42:00,18.7,7.9,30.67,West,279,1.0,2.0,62,0.00,,SKC,0.00,VWS V14.01,2013-01-01 16:42:00,
2013-01-01 09:43:00,18.9,6.9,30.67,West,277,2.0,5.0,59,0.00,,SKC,0.00,VWS V14.01,2013-01-01 16:43:00,
2013-01-01 09:44:00,19.0,7.4,30.67,West,276,4.0,4.0,60,0.00,,SKC,0.00,VWS V14.01,2013-01-01 16:44:00,
2013-01-01 09:45:00,19.1,7.5,30.67,West,276,3.0,4.0,60,0.00,,SKC,0.00,VWS V14.01,2013-01-01 16:45:00,
2013-01-01 09:46:00,19.3,6.6,30.67,West,275,3.0,5.0,57,0.00,,SKC,0.00,VWS V14.01,2013-01-01 16:46:00,
2013-01-01 09:47:00,19.5,7.1,30.67,West,275,1.0,4.0,58,0.00,,SKC,0.00,VWS V14.01,2013-01-01 16:47:00,
2013-01-01 09:48:00,19.7,6.6,30.67,West,273,2.0,3.0,56,0.00,,SKC,0.00,VWS V14.01,2013-01-01 16:48:00,
2013-01-01 09:49:00,19.7,7.3,30.67,WNW,282,2.0,3.0,58,0.00,,SKC,0.00,VWS V14.01,2013-01-01 16:49:00,
2013-01-01 09:50:00,19.8,7.8,30.67,West,276,4.0,5.0,59,0.00,,SKC,0.00,VWS V14.01,2013-01-01 16:50:00,
2013-01-01 09:51:00,20.0,8.0,30.67,West,277,3.0,5.0,59,0.00,,SKC,0.00,VWS V14.01,2013-01-01 16:51:00,
2013-01-01 09:52:00,20.1,8.1,30.67,West,279,3.0,4.0,59,0.00,,SKC,0.00,VWS V14.01,2013-01-01 16:52:00,
2013-01-01 09:53:00,20.2,7.8,30.67,West,275,4.0,6.0,58,0.00,,SKC,0.00,VWS V14.01,2013-01-01 16:53:00,
2013-01-01 09:54:00,20.3,9.0,30.67,West,276,3.0,6.0,61,0.00,,SKC,0.00,VWS V14.01,2013-01-01 16:54:00,
2013-01-01 09:55:00,20.3,9.0,30.67,North,360,3.0,6.0,61,0.00,,SKC,0.00,VWS V14.01,2013-01-01 16:55:00,
2013-01-01 09:56:00,20.4,9.5,30.67,West,277,4.0,5.0,62,0.00,,SKC,0.00,VWS V14.01,2013-01-01 16:56:00,
2013-01-01 09:57:00,20.6,9.7,30.67,North,360,4.0,7.0,62,0.00,,SKC,0.00,VWS V14.01,2013-01-01 16:57:00,
2013-01-01 09:58:00,20.6,9.3,30.67,West,277,4.0,5.0,61,0.00,,SKC,0.00,VWS V14.01,2013-01-01 16:58:00,
2013-01-01 09:59:00,20.7,9.0,30.67,North,360,6.0,6.0,60,0.00,,SKC,0.00,VWS V14.01,2013-01-01 16:59:00,
2013-01-01 10:00:00,20.7,8.6,30.67,West,276,4.0,6.0,59,0.00,,SKC,0.00,VWS V14.01,2013-01-01 17:00:00,
2013-01-01 10:01:00,20.8,9.9,30.67,West,275,5.0,6.0,62,0.00,,SKC,0.00,VWS V14.01,2013-01-01 17:01:00,
2013-01-01 10:02:00,21.0,10.0,30.66,West,273,6.0,6.0,62,0.00,,SKC,0.00,VWS V14.01,2013-01-01 17:02:00,
2013-01-01 10:03:00,21.1,9.8,30.66,North,360,5.0,6.0,61,0.00,,SKC,0.00,VWS V14.01,2013-01-01 17:03:00,
2013-01-01 10:04:00,21.3,10.0,30.67,West,275,3.0,6.0,61,0.00,,SKC,0.00,VWS V14.01,2013-01-01 17:04:00,
2013-01-01 10:05:00,21.4,10.1,30.67,West,276,5.0,5.0,61,0.00,,SKC,0.00,VWS V14.01,2013-01-01 17:05:00,
2013-01-01 10:06:00,21.6,10.6,30.67,West,279,3.0,5.0,62,0.00,,SKC,0.00,VWS V14.01,2013-01-01 17:06:00,
2013-01-01 10:07:00,21.8,10.1,30.67,West,278,3.0,4.0,60,0.00,,SKC,0.00,VWS V14.01,2013-01-01 17:07:00,
2013-01-01 10:08:00,21.9,10.2,30.67,North,360,4.0,6.0,60,0.00,,SKC,0.00,VWS V14.01,2013-01-01 17:08:00,
2013-01-01 10:09:00,22.0,9.5,30.67,West,275,4.0,5.0,58,0.00,,SKC,0.00,VWS V14.01,2013-01-01 17:09:00,
2013-01-01 10:10:00,22.1,8.8,30.67,West,274,2.0,5.0,56,0.00,,SKC,0.00,VWS V14.01,2013-01-01 17:10:00,
2013-01-01 10:11:00,22.2,9.3,30.67,North,360,5.0,5.0,57,0.00,,SKC,0.00,VWS V14.01,2013-01-01 17:11:00,
2013-01-01 10:12:00,22.4,9.5,30.67,North,360,5.0,5.0,57,0.00,,SKC,0.00,VWS V14.01,2013-01-01 17:12:00,
2013-01-01 10:13:00,22.5,9.2,30.67,West,281,4.0,9.0,56,0.00,,SKC,0.00,VWS V14.01,2013-01-01 17:13:00,
2013-01-01 10:14:00,22.4,8.7,30.67,West,279,6.0,6.0,55,0.00,,SKC,0.00,VWS V14.01,2013-01-01 17:14:00,
2013-01-01 10:15:00,22.4,8.7,30.67,North,360,4.0,6.0,55,0.00,,SKC,0.00,VWS V14.01,2013-01-01 17:15:00,
2013-01-01 10:16:00,22.4,8.3,30.67,West,273,2.0,5.0,54,0.00,,SKC,0.00,VWS V14.01,2013-01-01 17:16:00,
2013-01-01 10:17:00,22.4,8.7,30.66,West,275,4.0,5.0,55,0.00,,SKC,0.00,VWS V14.01,2013-01-01 17:17:00,
2013-01-01 10:18:00,22.3,8.6,30.66,North,360,2.0,4.0,55,0.00,,SKC,0.00,VWS V14.01,2013-01-01 17:18:00,
2013-01-01 10:19:00,22.4,8.3,30.66,West,276,3.0,5.0,54,0.00,,SKC,0.00,VWS V14.01,2013-01-01 17:19:00,
2013-01-01 10:20:00,22.5,8.8,30.66,West,278,3.0,4.0,55,0.00,,SKC,0.00,VWS V14.01,2013-01-01 17:20:00,
2013-01-01 10:21:00,22.6,8.5,30.66,West,280,3.0,4.0,54,0.00,,SKC,0.00,VWS V14.01,2013-01-01 17:21:00,
2013-01-01 10:22:00,22.7,8.6,30.66,West,270,2.0,5.0,54,0.00,,SKC,0.00,VWS V14.01,2013-01-01 17:22:00,
2013-01-01 10:23:00,22.7,8.1,30.66,North,360,2.0,6.0,53,0.00,,SKC,0.00,VWS V14.01,2013-01-01 17:23:00,
2013-01-01 10:24:00,22.8,7.8,30.66,West,271,3.0,5.0,52,0.00,,SKC,0.00,VWS V14.01,2013-01-01 17:24:00,
2013-01-01 10:25:00,22.9,8.3,30.66,West,273,4.0,6.0,53,0.00,,SKC,0.00,VWS V14.01,2013-01-01 17:25:00,
2013-01-01 10:26:00,23.0,8.0,30.66,West,278,5.0,5.0,52,0.00,,SKC,0.00,VWS V14.01,2013-01-01 17:26:00,
2013-01-01 10:27:00,23.1,8.1,30.66,West,277,5.0,8.0,52,0.00,,SKC,0.00,VWS V14.01,2013-01-01 17:27:00,
2013-01-01 10:28:00,23.3,7.9,30.66,North,360,4.0,5.0,51,0.00,,SKC,0.00,VWS V14.01,2013-01-01 17:28:00,
2013-01-01 10:29:00,23.4,8.4,30.66,West,277,6.0,6.0,52,0.00,,SKC,0.00,VWS V14.01,2013-01-01 17:29:00,
2013-01-01 10:30:00,23.5,8.1,30.66,West,275,5.0,6.0,51,0.00,,SKC,0.00,VWS V14.01,2013-01-01 17:30:00,
2013-01-01 10:31:00,23.5,7.2,30.66,North,360,5.0,5.0,49,0.00,,SKC,0.00,VWS V14.01,2013-01-01 17:31:00,
2013-01-01 10:32:00,23.6,8.1,30.67,West,272,5.0,6.0,51,0.00,,SKC,0.00,VWS V14.01,2013-01-01 17:32:00,
2013-01-01 10:33:00,23.8,9.2,30.67,West,275,5.0,6.0,53,0.00,,SKC,0.00,VWS V14.01,2013-01-01 17:33:00,
2013-01-01 10:34:00,23.9,8.9,30.67,North,360,3.0,5.0,52,0.00,,SKC,0.00,VWS V14.01,2013-01-01 17:34:00,
2013-01-01 10:35:00,24.0,8.5,30.67,North,360,2.0,4.0,51,0.00,,SKC,0.00,VWS V14.01,2013-01-01 17:35:00,
2013-01-01 10:36:00,24.1,8.6,30.67,West,269,4.0,5.0,51,0.00,,SKC,0.00,VWS V14.01,2013-01-01 17:36:00,
2013-01-01 10:37:00,24.2,8.3,30.67,West,274,4.0,6.0,50,0.00,,SKC,0.00,VWS V14.01,2013-01-01 17:37:00,
2013-01-01 10:38:00,24.3,8.4,30.67,West,277,6.0,7.0,50,0.00,,SKC,0.00,VWS V14.01,2013-01-01 17:38:00,
2013-01-01 10:39:00,24.4,8.0,30.67,SE,131,10.0,11.0,49,0.00,,SKC,0.00,VWS V14.01,2013-01-01 17:39:00,
2013-01-01 10:40:00,24.4,8.0,30.67,SE,128,9.0,11.0,49,0.00,,SKC,0.00,VWS V14.01,2013-01-01 17:40:00,
2013-01-01 10:41:00,24.5,8.5,30.66,SSE,152,6.0,9.0,50,0.00,,SKC,0.00,VWS V14.01,2013-01-01 17:41:00,
2013-01-01 10:42:00,24.5,9.0,30.66,SSE,150,6.0,6.0,51,0.00,,SKC,0.00,VWS V14.01,2013-01-01 17:42:00,
2013-01-01 10:43:00,24.6,9.1,30.66,SE,144,5.0,9.0,51,0.00,,SKC,0.00,VWS V14.01,2013-01-01 17:43:00,
2013-01-01 10:44:00,24.7,9.2,30.66,SE,136,6.0,12.0,51,0.00,,SKC,0.00,VWS V14.01,2013-01-01 17:44:00,
2013-01-01 10:45:00,24.8,9.2,30.66,SE,145,10.0,10.0,51,0.00,,SKC,0.00,VWS V14.01,2013-01-01 17:45:00,
2013-01-01 10:46:00,24.8,9.2,30.66,SE,134,5.0,12.0,51,0.00,,SKC,0.00,VWS V14.01,2013-01-01 17:46:00,
2013-01-01 10:47:00,24.9,9.4,30.66,SE,126,6.0,12.0,51,0.00,,SKC,0.00,VWS V14.01,2013-01-01 17:47:00,
2013-01-01 10:48:00,24.9,9.4,30.66,ESE,110,11.0,12.0,51,0.00,,SKC,0.00,VWS V14.01,2013-01-01 17:48:00,
2013-01-01 10:49:00,25.0,9.9,30.66,ESE,117,6.0,11.0,52,0.00,,SKC,0.00,VWS V14.01,2013-01-01 17:49:00,
2013-01-01 10:50:00,24.9,9.4,30.66,North,360,5.0,11.0,51,0.00,,SKC,0.00,VWS V14.01,2013-01-01 17:50:00,
2013-01-01 10:51:00,24.9,8.9,30.66,ESE,111,5.0,7.0,50,0.00,,SKC,0.00,VWS V14.01,2013-01-01 17:51:00,
2013-01-01 10:52:00,24.9,9.4,30.66,ESE,105,6.0,10.0,51,0.00,,SKC,0.00,VWS V14.01,2013-01-01 17:52:00,
2013-01-01 10:53:00,24.8,9.2,30.66,East,95,9.0,9.0,51,0.00,,SKC,0.00,VWS V14.01,2013-01-01 17:53:00,
2013-01-01 10:54:00,24.7,9.2,30.66,North,360,10.0,12.0,51,0.00,,SKC,0.00,VWS V14.01,2013-01-01 17:54:00,
2013-01-01 10:55:00,24.6,8.6,30.66,East,101,4.0,10.0,50,0.00,,SKC,0.00,VWS V14.01,2013-01-01 17:55:00,
2013-01-01 10:56:00,24.5,8.1,30.66,East,91,5.0,7.0,49,0.00,,SKC,0.00,VWS V14.01,2013-01-01 17:56:00,
2013-01-01 10:57:00,24.5,8.5,30.66,East,98,7.0,12.0,50,0.00,,SKC,0.00,VWS V14.01,2013-01-01 17:57:00,
2013-01-01 10:58:00,24.4,8.4,30.66,East,100,5.0,7.0,50,0.00,,SKC,0.00,VWS V14.01,2013-01-01 17:58:00,
2013-01-01 10:59:00,24.4,8.9,30.66,East,101,9.0,10.0,51,0.00,,SKC,0.00,VWS V14.01,2013-01-01 17:59:00,
2013-01-01 11:00:00,24.3,8.8,30.66,ESE,106,5.0,10.0,51,0.00,,SKC,0.00,VWS V14.01,2013-01-01 18:00:00,
2013-01-01 11:01:00,24.3,9.2,30.66,East,90,9.0,11.0,52,0.00,,SKC,0.00,VWS V14.01,2013-01-01 18:01:00,
2013-01-01 11:02:00,24.2,8.7,30.66,ESE,119,5.0,10.0,51,0.00,,SKC,0.00,VWS V14.01,2013-01-01 18:02:00,
2013-01-01 11:03:00,24.2,9.1,30.66,ESE,111,2.0,10.0,52,0.00,,SKC,0.00,VWS V14.01,2013-01-01 18:03:00,
2013-01-01 11:04:00,24.2,9.1,30.66,ESE,113,9.0,10.0,52,0.00,,SKC,0.00,VWS V14.01,2013-01-01 18:04:00,
2013-01-01 11:05:00,24.3,8.8,30.66,East,85,4.0,9.0,51,0.00,,SKC,0.00,VWS V14.01,2013-01-01 18:05:00,
2013-01-01 11:06:00,24.4,9.3,30.66,East,93,4.0,6.0,52,0.00,,SKC,0.00,VWS V14.01,2013-01-01 18:06:00,
2013-01-01 11:07:00,24.4,9.3,30.66,East,87,6.0,6.0,52,0.00,,SKC,0.00,VWS V14.01,2013-01-01 18:07:00,
2013-01-01 11:08:00,24.5,9.4,30.66,ESE,112,6.0,9.0,52,0.00,,SKC,0.00,VWS V14.01,2013-01-01 18:08:00,
2013-01-01 11:09:00,24.5,9.0,30.66,ESE,109,9.0,10.0,51,0.00,,SKC,0.00,VWS V14.01,2013-01-01 18:09:00,
2013-01-01 11:10:00,24.5,8.1,30.66,East,85,8.0,9.0,49,0.00,,SKC,0.00,VWS V14.01,2013-01-01 18:10:00,
2013-01-01 11:11:00,24.5,8.5,30.66,NE,53,1.0,8.0,50,0.00,,SKC,0.00,VWS V14.01,2013-01-01 18:11:00,
2013-01-01 11:12:00,24.6,8.6,30.66,ENE,57,2.0,4.0,50,0.00,,SKC,0.00,VWS V14.01,2013-01-01 18:12:00,
2013-01-01 11:13:00,24.7,9.2,30.66,ESE,105,4.0,7.0,51,0.00,,SKC,0.00,VWS V14.01,2013-01-01 18:13:00,
2013-01-01 11:14:00,24.8,9.7,30.65,East,87,7.0,8.0,52,0.00,,SKC,0.00,VWS V14.01,2013-01-01 18:14:00,
2013-01-01 11:15:00,24.9,8.9,30.65,East,97,6.0,8.0,50,0.00,,SKC,0.00,VWS V14.01,2013-01-01 18:15:00,
2013-01-01 11:16:00,25.0,8.1,30.65,East,82,5.0,8.0,48,0.00,,SKC,0.00,VWS V14.01,2013-01-01 18:16:00,
2013-01-01 11:17:00,25.1,8.6,30.65,East,92,4.0,6.0,49,0.00,,SKC,0.00,VWS V14.01,2013-01-01 18:17:00,
2013-01-01 11:18:00,25.2,7.8,30.65,East,86,3.0,4.0,47,0.00,,SKC,0.00,VWS V14.01,2013-01-01 18:18:00,
2013-01-01 11:19:00,25.3,8.8,30.65,ESE,108,7.0,7.0,49,0.00,,SKC,0.00,VWS V14.01,2013-01-01 18:19:00,
2013-01-01 11:20:00,25.4,8.9,30.65,East,93,1.0,7.0,49,0.00,,SKC,0.00,VWS V14.01,2013-01-01 18:20:00,
2013-01-01 11:21:00,25.5,9.0,30.65,ESE,111,4.0,4.0,49,0.00,,SKC,0.00,VWS V14.01,2013-01-01 18:21:00,
2013-01-01 11:22:00,25.7,8.3,30.65,ESE,109,4.0,5.0,47,0.00,,SKC,0.00,VWS V14.01,2013-01-01 18:22:00,
2013-01-01 11:23:00,25.8,8.4,30.65,ESE,106,4.0,5.0,47,0.00,,SKC,0.00,VWS V14.01,2013-01-01 18:23:00,
2013-01-01 11:24:00,25.9,8.9,30.65,ESE,112,1.0,4.0,48,0.00,,SKC,0.00,VWS V14.01,2013-01-01 18:24:00,
2013-01-01 11:25:00,26.0,8.6,30.65,SE,131,4.0,4.0,47,0.00,,SKC,0.00,VWS V14.01,2013-01-01 18:25:00,
2013-01-01 11:26:00,26.1,8.6,30.65,SE,126,2.0,4.0,47,0.00,,SKC,0.00,VWS V14.01,2013-01-01 18:26:00,
2013-01-01 11:27:00,26.2,9.2,30.65,SE,127,5.0,5.0,48,0.00,,SKC,0.00,VWS V14.01,2013-01-01 18:27:00,
2013-01-01 11:28:00,26.3,8.8,30.65,SE,142,3.0,5.0,47,0.00,,SKC,0.00,VWS V14.01,2013-01-01 18:28:00,
2013-01-01 11:29:00,26.5,8.5,30.65,SE,140,3.0,4.0,46,0.00,,SKC,0.00,VWS V14.01,2013-01-01 18:29:00,
2013-01-01 11:30:00,26.7,8.2,30.65,SSE,152,5.0,5.0,45,0.00,,SKC,0.00,VWS V14.01,2013-01-01 18:30:00,
2013-01-01 11:31:00,26.8,8.8,30.65,SSE,161,6.0,6.0,46,0.00,,SKC,0.00,VWS V14.01,2013-01-01 18:31:00,
2013-01-01 11:32:00,27.0,8.5,30.65,SSE,159,6.0,6.0,45,0.00,,SKC,0.00,VWS V14.01,2013-01-01 18:32:00,
2013-01-01 11:33:00,27.1,9.1,30.65,SSE,167,5.0,7.0,46,0.00,,SKC,0.00,VWS V14.01,2013-01-01 18:33:00,
2013-01-01 11:34:00,27.2,8.7,30.65,SSE,162,5.0,10.0,45,0.00,,SKC,0.00,VWS V14.01,2013-01-01 18:34:00,
2013-01-01 11:35:00,27.4,8.4,30.64,SSE,151,6.0,7.0,44,0.00,,SKC,0.00,VWS V14.01,2013-01-01 18:35:00,
2013-01-01 11:36:00,27.5,9.4,30.64,SSE,166,6.0,9.0,46,0.00,,SKC,0.00,VWS V14.01,2013-01-01 18:36:00,
2013-01-01 11:37:00,27.6,8.0,30.64,SSE,164,6.0,7.0,43,0.00,,SKC,0.00,VWS V14.01,2013-01-01 18:37:00,
2013-01-01 11:38:00,27.6,7.5,30.64,South,171,6.0,10.0,42,0.00,,SKC,0.00,VWS V14.01,2013-01-01 18:38:00,
2013-01-01 11:39:00,27.4,6.8,30.64,SSE,165,5.0,9.0,41,0.00,,SKC,0.00,VWS V14.01,2013-01-01 18:39:00,
2013-01-01 11:40:00,27.2,6.1,30.64,SSE,167,5.0,6.0,40,0.00,,SKC,0.00,VWS V14.01,2013-01-01 18:40:00,
2013-01-01 11:41:00,27.1,7.6,30.64,SE,145,3.0,7.0,43,0.00,,SKC,0.00,VWS V14.01,2013-01-01 18:41:00,
2013-01-01 11:42:00,27.1,8.1,30.64,South,178,9.0,10.0,44,0.00,,SKC,0.00,VWS V14.01,2013-01-01 18:42:00,
2013-01-01 11:43:00,27.0,7.0,30.64,SSE,157,9.0,11.0,42,0.00,,SKC,0.00,VWS V14.01,2013-01-01 18:43:00,
2013-01-01 11:44:00,26.9,6.9,30.64,SSE,161,1.0,9.0,42,0.00,,SKC,0.00,VWS V14.01,2013-01-01 18:44:00,
2013-01-01 11:45:00,26.9,7.9,30.64,SSE,162,6.0,7.0,44,0.00,,SKC,0.00,VWS V14.01,2013-01-01 18:45:00,
2013-01-01 11:46:00,26.9,7.4,30.64,SE,140,6.0,7.0,43,0.00,,SKC,0.00,VWS V14.01,2013-01-01 18:46:00,
2013-01-01 11:47:00,26.9,7.9,30.64,SSE,148,3.0,6.0,44,0.00,,SKC,0.00,VWS V14.01,2013-01-01 18:47:00,
2013-01-01 11:48:00,27.0,4.8,30.63,South,173,10.0,13.0,38,0.00,,SKC,0.00,VWS V14.01,2013-01-01 18:48:00,
2013-01-01 11:49:00,27.0,3.6,30.63,SSE,164,10.0,12.0,36,0.00,,SKC,0.00,VWS V14.01,2013-01-01 18:49:00,
2013-01-01 11:50:00,27.0,4.8,30.63,West,267,7.0,12.0,38,0.00,,SKC,0.00,VWS V14.01,2013-01-01 18:50:00,
2013-01-01 11:51:00,27.1,3.7,30.63,North,360,7.0,10.0,36,0.00,,SKC,0.00,VWS V14.01,2013-01-01 18:51:00,
2013-01-01 11:52:00,27.2,2.6,30.63,West,260,15.0,15.0,34,0.00,,SKC,0.00,VWS V14.01,2013-01-01 18:52:00,
2013-01-01 11:53:00,27.2,2.6,30.63,North,360,11.0,15.0,34,0.00,,SKC,0.00,VWS V14.01,2013-01-01 18:53:00,
2013-01-01 11:54:00,27.2,2.6,30.63,South,178,10.0,14.0,34,0.00,,SKC,0.00,VWS V14.01,2013-01-01 18:54:00,
2013-01-01 11:55:00,27.0,1.1,30.63,West,265,13.0,18.0,32,0.00,,SKC,0.00,VWS V14.01,2013-01-01 18:55:00,
2013-01-01 11:56:00,26.7,0.1,30.62,North,360,13.0,20.0,31,0.00,,SKC,0.00,VWS V14.01,2013-01-01 18:56:00,
2013-01-01 11:57:00,26.2,-0.3,30.63,West,275,11.0,14.0,31,0.00,,SKC,0.00,VWS V14.01,2013-01-01 18:57:00,
2013-01-01 11:58:00,26.0,-0.5,30.63,West,276,16.0,18.0,31,0.00,,SKC,0.00,VWS V14.01,2013-01-01 18:58:00,
2013-01-01 11:59:00,25.8,0.0,30.63,West,272,13.0,16.0,32,0.00,,SKC,0.00,VWS V14.01,2013-01-01 18:59:00,
2013-01-01 12:00:00,25.7,-0.1,30.62,West,269,15.0,19.0,32,0.00,,SKC,0.00,VWS V14.01,2013-01-01 19:00:00,
2013-01-01 12:01:00,25.5,-0.2,30.62,West,267,11.0,17.0,32,0.00,,SKC,0.00,VWS V14.01,2013-01-01 19:01:00,
2013-01-01 12:02:00,25.5,0.4,30.63,West,263,15.0,16.0,33,0.00,,SKC,0.00,VWS V14.01,2013-01-01 19:02:00,
2013-01-01 12:03:00,25.6,1.1,30.62,North,360,17.0,19.0,34,0.00,,SKC,0.00,VWS V14.01,2013-01-01 19:03:00,
2013-01-01 12:04:00,25.6,0.5,30.62,WSW,257,18.0,19.0,33,0.00,,SKC,0.00,VWS V14.01,2013-01-01 19:04:00,
2013-01-01 12:05:00,25.6,0.5,30.63,SSW,193,12.0,18.0,33,0.00,,SKC,0.00,VWS V14.01,2013-01-01 19:05:00,
2013-01-01 12:06:00,25.5,-0.2,30.62,West,267,16.0,17.0,32,0.00,,SKC,0.00,VWS V14.01,2013-01-01 19:06:00,
2013-01-01 12:07:00,25.4,-0.3,30.63,North,360,14.0,17.0,32,0.00,,SKC,0.00,VWS V14.01,2013-01-01 19:07:00,
2013-01-01 12:08:00,25.4,0.3,30.62,WNW,285,7.0,14.0,33,0.00,,SKC,0.00,VWS V14.01,2013-01-01 19:08:00,
2013-01-01 12:09:00,25.5,1.0,30.62,West,281,6.0,7.0,34,0.00,,SKC,0.00,VWS V14.01,2013-01-01 19:09:00,
2013-01-01 12:10:00,25.5,-0.2,30.62,West,279,13.0,14.0,32,0.00,,SKC,0.00,VWS V14.01,2013-01-01 19:10:00,
2013-01-01 12:11:00,25.6,1.1,30.62,West,276,3.0,13.0,34,0.00,,SKC,0.00,VWS V14.01,2013-01-01 19:11:00,
2013-01-01 12:12:00,25.5,-0.2,30.62,West,281,10.0,12.0,32,0.00,,SKC,0.00,VWS V14.01,2013-01-01 19:12:00,
2013-01-01 12:13:00,25.5,0.4,30.62,West,274,12.0,13.0,33,0.00,,SKC,0.00,VWS V14.01,2013-01-01 19:13:00,
2013-01-01 12:14:00,25.6,0.5,30.62,North,360,10.0,15.0,33,0.00,,SKC,0.00,VWS V14.01,2013-01-01 19:14:00,
2013-01-01 12:15:00,25.7,0.6,30.62,West,279,7.0,10.0,33,0.00,,SKC,0.00,VWS V14.01,2013-01-01 19:15:00,
2013-01-01 12:16:00,25.8,0.0,30.62,West,261,8.0,14.0,32,0.00,,SKC,0.00,VWS V14.01,2013-01-01 19:16:00,
2013-01-01 12:17:00,25.7,-0.7,30.62,SSW,192,11.0,15.0,31,0.00,,SKC,0.00,VWS V14.01,2013-01-01 19:17:00,
2013-01-01 12:18:00,25.5,-0.9,30.62,SSW,213,20.0,20.0,31,0.00,,SKC,0.00,VWS V14.01,2013-01-01 19:18:00,
2013-01-01 12:19:00,25.4,-0.3,30.62,West,281,12.0,20.0,32,0.00,,SKC,0.00,VWS V14.01,2013-01-01 19:19:00,
2013-01-01 12:20:00,25.3,0.2,30.61,West,267,16.0,18.0,33,0.00,,SKC,0.00,VWS V14.01,2013-01-01 19:20:00,
2013-01-01 12:21:00,25.3,0.2,30.62,North,360,12.0,17.0,33,0.00,,SKC,0.00,VWS V14.01,2013-01-01 19:21:00,
2013-01-01 12:22:00,25.2,-1.2,30.61,West,279,16.0,19.0,31,0.00,,SKC,0.00,VWS V14.01,2013-01-01 19:22:00,
2013-01-01 12:23:00,25.1,0.1,30.62,West,264,12.0,21.0,33,0.00,,SKC,0.00,VWS V14.01,2013-01-01 19:23:00,
2013-01-01 12:24:00,25.1,0.1,30.61,West,272,17.0,17.0,33,0.00,,SKC,0.00,VWS V14.01,2013-01-01 19:24:00,
2013-01-01 12:25:00,25.1,0.1,30.62,WNW,283,15.0,18.0,33,0.00,,SKC,0.00,VWS V14.01,2013-01-01 19:25:00,
2013-01-01 12:26:00,25.0,0.0,30.62,West,279,8.0,16.0,33,0.00,,SKC,0.00,VWS V14.01,2013-01-01 19:26:00,
2013-01-01 12:27:00,25.0,-0.7,30.61,West,277,14.0,17.0,32,0.00,,SKC,0.00,VWS V14.01,2013-01-01 19:27:00,
2013-01-01 12:28:00,24.9,-0.8,30.61,West,278,9.0,15.0,32,0.00,,SKC,0.00,VWS V14.01,2013-01-01 19:28:00,
2013-01-01 12:29:00,25.0,0.0,30.62,West,265,15.0,18.0,33,0.00,,SKC,0.00,VWS V14.01,2013-01-01 19:29:00,
2013-01-01 12:30:00,25.1,0.1,30.62,West,268,12.0,15.0,33,0.00,,SKC,0.00,VWS V14.01,2013-01-01 19:30:00,
2013-01-01 12:31:00,25.1,-0.6,30.62,West,267,11.0,18.0,32,0.00,,SKC,0.00,VWS V14.01,2013-01-01 19:31:00,
2013-01-01 12:32:00,25.0,0.0,30.62,North,360,11.0,16.0,33,0.00,,SKC,0.00,VWS V14.01,2013-01-01 19:32:00,
2013-01-01 12:33:00,25.1,0.1,30.62,West,275,7.0,13.0,33,0.00,,SKC,0.00,VWS V14.01,2013-01-01 19:33:00,
2013-01-01 12:34:00,25.2,0.8,30.61,North,360,13.0,18.0,34,0.00,,SKC,0.00,VWS V14.01,2013-01-01 19:34:00,
2013-01-01 12:35:00,25.3,0.2,30.62,WNW,287,10.0,20.0,33,0.00,,SKC,0.00,VWS V14.01,2013-01-01 19:35:00,
2013-01-01 12:36:00,25.4,0.3,30.61,West,281,15.0,19.0,33,0.00,,SKC,0.00,VWS V14.01,2013-01-01 19:36:00,
2013-01-01 12:37:00,25.4,-0.3,30.61,West,277,13.0,18.0,32,0.00,,SKC,0.00,VWS V14.01,2013-01-01 19:37:00,
2013-01-01 12:38:00,25.4,-0.3,30.61,North,360,9.0,14.0,32,0.00,,SKC,0.00,VWS V14.01,2013-01-01 19:38:00,
2013-01-01 12:39:00,25.4,1.0,30.61,North,360,16.0,16.0,34,0.00,,SKC,0.00,VWS V14.01,2013-01-01 19:39:00,
2013-01-01 12:40:00,25.5,0.4,30.61,West,277,12.0,16.0,33,0.00,,SKC,0.00,VWS V14.01,2013-01-01 19:40:00,
2013-01-01 12:41:00,25.5,-0.2,30.61,North,360,17.0,19.0,32,0.00,,SKC,0.00,VWS V14.01,2013-01-01 19:41:00,
2013-01-01 12:42:00,25.5,0.4,30.61,WSW,242,12.0,19.0,33,0.00,,SKC,0.00,VWS V14.01,2013-01-01 19:42:00,
2013-01-01 12:43:00,25.6,-0.2,30.61,North,360,15.0,19.0,32,0.00,,SKC,0.00,VWS V14.01,2013-01-01 19:43:00,
2013-01-01 12:44:00,25.6,-0.2,30.61,West,273,9.0,18.0,32,0.00,,SKC,0.00,VWS V14.01,2013-01-01 19:44:00,
2013-01-01 12:45:00,25.6,0.5,30.60,West,280,17.0,19.0,33,0.00,,SKC,0.00,VWS V14.01,2013-01-01 19:45:00,
2013-01-01 12:46:00,25.7,0.6,30.60,SW,224,9.0,17.0,33,0.00,,SKC,0.00,VWS V14.01,2013-01-01 19:46:00,
2013-01-01 12:47:00,25.6,-0.8,30.60,West,267,10.0,14.0,31,0.00,,SKC,0.00,VWS V14.01,2013-01-01 19:47:00,
2013-01-01 12:48:00,25.5,-0.9,30.61,West,275,11.0,15.0,31,0.00,,SKC,0.00,VWS V14.01,2013-01-01 19:48:00,
2013-01-01 12:49:00,25.5,0.4,30.61,WSW,258,6.0,13.0,33,0.00,,SKC,0.00,VWS V14.01,2013-01-01 19:49:00,
2013-01-01 12:50:00,25.7,1.2,30.61,West,268,12.0,12.0,34,0.00,,SKC,0.00,VWS V14.01,2013-01-01 19:50:00,
2013-01-01 12:51:00,25.8,0.7,30.61,West,271,8.0,14.0,33,0.00,,SKC,0.00,VWS V14.01,2013-01-01 19:51:00,
2013-01-01 12:52:00,25.9,0.1,30.60,SSW,201,13.0,16.0,32,0.00,,SKC,0.00,VWS V14.01,2013-01-01 19:52:00,
2013-01-01 12:53:00,26.0,0.2,30.60,WSW,238,25.0,25.0,32,0.00,,SKC,0.00,VWS V14.01,2013-01-01 19:53:00,
2013-01-01 12:54:00,25.9,0.1,30.61,WSW,246,17.0,25.0,32,0.00,,SKC,0.00,VWS V14.01,2013-01-01 19:54:00,
2013-01-01 12:55:00,25.8,-0.6,30.61,WSW,239,15.0,21.0,31,0.00,,SKC,0.00,VWS V14.01,2013-01-01 19:55:00,
2013-01-01 12:56:00,25.6,-0.8,30.60,WSW,238,15.0,19.0,31,0.00,,SKC,0.00,VWS V14.01,2013-01-01 19:56:00,
2013-01-01 12:57:00,25.4,-0.3,30.61,West,273,17.0,17.0,32,0.00,,SKC,0.00,VWS V14.01,2013-01-01 19:57:00,
2013-01-01 12:58:00,25.4,-0.3,30.61,WNW,284,15.0,17.0,32,0.00,,SKC,0.00,VWS V14.01,2013-01-01 19:58:00,
2013-01-01 12:59:00,25.4,-0.3,30.61,West,273,18.0,18.0,32,0.00,,SKC,0.00,VWS V14.01,2013-01-01 19:59:00,
2013-01-01 13:00:00,25.4,-0.3,30.61,North,360,12.0,18.0,32,0.00,,SKC,0.00,VWS V14.01,2013-01-01 20:00:00,
2013-01-01 13:01:00,25.4,0.3,30.61,West,269,14.0,16.0,33,0.00,,SKC,0.00,VWS V14.01,2013-01-01 20:01:00,
2013-01-01 13:02:00,25.5,-0.2,30.61,West,262,15.0,16.0,32,0.00,,SKC,0.00,VWS V14.01,2013-01-01 20:02:00,
2013-01-01 13:03:00,25.6,-0.2,30.60,WNW,288,14.0,18.0,32,0.00,,SKC,0.00,VWS V14.01,2013-01-01 20:03:00,
2013-01-01 13:04:00,25.6,-0.8,30.60,WNW,292,9.0,14.0,31,0.00,,SKC,0.00,VWS V14.01,2013-01-01 20:04:00,
2013-01-01 13:05:00,25.7,-0.1,30.60,WSW,239,10.0,19.0,32,0.00,,SKC,0.00,VWS V14.01,2013-01-01 20:05:00,
2013-01-01 13:06:00,25.5,-0.9,30.60,West,260,15.0,15.0,31,0.00,,SKC,0.00,VWS V14.01,2013-01-01 20:06:00,
2013-01-01 13:07:00,25.5,-0.9,30.60,West,273,10.0,18.0,31,0.00,,SKC,0.00,VWS V14.01,2013-01-01 20:07:00,
2013-01-01 13:08:00,25.4,-1.0,30.60,West,263,19.0,20.0,31,0.00,,SKC,0.00,VWS V14.01,2013-01-01 20:08:00,
2013-01-01 13:09:00,25.3,-1.1,30.60,West,259,17.0,19.0,31,0.00,,SKC,0.00,VWS V14.01,2013-01-01 20:09:00,
2013-01-01 13:10:00,25.3,-1.1,30.60,North,360,10.0,17.0,31,0.00,,SKC,0.00,VWS V14.01,2013-01-01 20:10:00,
2013-01-01 13:11:00,25.4,-0.3,30.60,West,264,20.0,23.0,32,0.00,,SKC,0.00,VWS V14.01,2013-01-01 20:11:00,
2013-01-01 13:12:00,25.5,-0.9,30.59,SW,236,15.0,21.0,31,0.00,,SKC,0.00,VWS V14.01,2013-01-01 20:12:00,
2013-01-01 13:13:00,25.5,-0.9,30.59,North,360,14.0,21.0,31,0.00,,SKC,0.00,VWS V14.01,2013-01-01 20:13:00,
2013-01-01 13:14:00,25.4,-0.3,30.60,West,270,11.0,17.0,32,0.00,,SKC,0.00,VWS V14.01,2013-01-01 20:14:00,
2013-01-01 13:15:00,25.5,-0.2,30.60,North,360,18.0,20.0,32,0.00,,SKC,0.00,VWS V14.01,2013-01-01 20:15:00,
2013-01-01 13:16:00,25.6,-0.2,30.60,West,267,21.0,23.0,32,0.00,,SKC,0.00,VWS V14.01,2013-01-01 20:16:00,
2013-01-01 13:17:00,25.7,-0.7,30.60,West,263,15.0,23.0,31,0.00,,SKC,0.00,VWS V14.01,2013-01-01 20:17:00,
2013-01-01 13:18:00,25.7,-0.1,30.60,West,267,13.0,21.0,32,0.00,,SKC,0.00,VWS V14.01,2013-01-01 20:18:00,
2013-01-01 13:19:00,25.7,-0.1,30.60,West,266,11.0,17.0,32,0.00,,SKC,0.00,VWS V14.01,2013-01-01 20:19:00,
2013-01-01 13:20:00,25.8,0.0,30.60,WSW,244,15.0,19.0,32,0.00,,SKC,0.00,VWS V14.01,2013-01-01 20:20:00,
2013-01-01 13:21:00,25.7,-0.7,30.60,West,270,22.0,22.0,31,0.00,,SKC,0.00,VWS V14.01,2013-01-01 20:21:00,
2013-01-01 13:22:00,25.7,-0.7,30.60,North,360,16.0,22.0,31,0.00,,SKC,0.00,VWS V14.01,2013-01-01 20:22:00,
2013-01-01 13:23:00,25.7,-0.1,30.60,North,360,10.0,16.0,32,0.00,,SKC,0.00,VWS V14.01,2013-01-01 20:23:00,
2013-01-01 13:24:00,25.7,-0.1,30.60,North,360,6.0,12.0,32,0.00,,SKC,0.00,VWS V14.01,2013-01-01 20:24:00,
2013-01-01 13:25:00,25.8,0.0,30.60,West,265,16.0,18.0,32,0.00,,SKC,0.00,VWS V14.01,2013-01-01 20:25:00,
2013-01-01 13:26:00,25.9,0.1,30.60,WSW,248,20.0,20.0,32,0.00,,SKC,0.00,VWS V14.01,2013-01-01 20:26:00,
2013-01-01 13:27:00,25.9,-0.6,30.59,West,277,15.0,21.0,31,0.00,,SKC,0.00,VWS V14.01,2013-01-01 20:27:00,
2013-01-01 13:28:00,26.0,0.2,30.60,WNW,284,15.0,21.0,32,0.00,,SKC,0.00,VWS V14.01,2013-01-01 20:28:00,
2013-01-01 13:29:00,25.9,-0.6,30.59,West,266,9.0,19.0,31,0.00,,SKC,0.00,VWS V14.01,2013-01-01 20:29:00,
2013-01-01 13:30:00,25.9,-0.6,30.59,West,265,13.0,15.0,31,0.00,,SKC,0.00,VWS V14.01,2013-01-01 20:30:00,
2013-01-01 13:31:00,25.9,-0.6,30.59,WSW,238,7.0,13.0,31,0.00,,SKC,0.00,VWS V14.01,2013-01-01 20:31:00,
2013-01-01 13:32:00,25.9,0.1,30.60,SW,236,13.0,13.0,32,0.00,,SKC,0.00,VWS V14.01,2013-01-01 20:32:00,
2013-01-01 13:33:00,25.9,0.8,30.60,SW,232,9.0,16.0,33,0.00,,SKC,0.00,VWS V14.01,2013-01-01 20:33:00,
2013-01-01 13:34:00,26.1,0.9,30.60,WSW,243,9.0,12.0,33,0.00,,SKC,0.00,VWS V14.01,2013-01-01 20:34:00,
2013-01-01 13:35:00,26.2,0.4,30.60,West,267,9.0,15.0,32,0.00,,SKC,0.00,VWS V14.01,2013-01-01 20:35:00,
2013-01-01 13:36:00,26.2,1.7,30.59,North,360,16.0,17.0,34,0.00,,SKC,0.00,VWS V14.01,2013-01-01 20:36:00,
2013-01-01 13:37:00,26.3,0.5,30.60,North,360,16.0,22.0,32,0.00,,SKC,0.00,VWS V14.01,2013-01-01 20:37:00,
2013-01-01 13:38:00,26.3,-0.2,30.60,North,360,16.0,19.0,31,0.00,,SKC,0.00,VWS V14.01,2013-01-01 20:38:00,
2013-01-01 13:39:00,26.2,-0.3,30.60,West,267,12.0,20.0,31,0.00,,SKC,0.00,VWS V14.01,2013-01-01 20:39:00,
2013-01-01 13:40:00,26.1,-0.4,30.60,West,265,18.0,19.0,31,0.00,,SKC,0.00,VWS V14.01,2013-01-01 20:40:00,
2013-01-01 13:41:00,26.1,-0.4,30.60,North,360,13.0,18.0,31,0.00,,SKC,0.00,VWS V14.01,2013-01-01 20:41:00,
2013-01-01 13:42:00,26.0,-0.5,30.60,WSW,256,13.0,15.0,31,0.00,,SKC,0.00,VWS V14.01,2013-01-01 20:42:00,
2013-01-01 13:43:00,26.0,-0.5,30.60,West,259,13.0,16.0,31,0.00,,SKC,0.00,VWS V14.01,2013-01-01 20:43:00,
2013-01-01 13:44:00,26.0,-0.5,30.60,WNW,285,8.0,16.0,31,0.00,,SKC,0.00,VWS V14.01,2013-01-01 20:44:00,
2013-01-01 13:45:00,26.0,-0.5,30.60,WSW,250,12.0,14.0,31,0.00,,SKC,0.00,VWS V14.01,2013-01-01 20:45:00,
2013-01-01 13:46:00,26.0,0.2,30.60,WSW,242,10.0,15.0,32,0.00,,SKC,0.00,VWS V14.01,2013-01-01 20:46:00,
2013-01-01 13:47:00,26.1,0.3,30.60,West,267,19.0,19.0,32,0.00,,SKC,0.00,VWS V14.01,2013-01-01 20:47:00,
2013-01-01 13:48:00,26.2,-0.3,30.60,WSW,250,16.0,21.0,31,0.00,,SKC,0.00,VWS V14.01,2013-01-01 20:48:00,
2013-01-01 13:49:00,26.2,-0.3,30.60,West,274,18.0,20.0,31,0.00,,SKC,0.00,VWS V14.01,2013-01-01 20:49:00,
2013-01-01 13:50:00,26.1,-0.4,30.60,WSW,247,19.0,20.0,31,0.00,,SKC,0.00,VWS V14.01,2013-01-01 20:50:00,
2013-01-01 13:51:00,26.0,-0.5,30.60,West,269,15.0,20.0,31,0.00,,SKC,0.00,VWS V14.01,2013-01-01 20:51:00,
2013-01-01 13:52:00,25.9,-0.6,30.60,SW,218,14.0,17.0,31,0.00,,SKC,0.00,VWS V14.01,2013-01-01 20:52:00,
2013-01-01 13:53:00,25.7,-0.7,30.60,WSW,244,9.0,14.0,31,0.00,,SKC,0.00,VWS V14.01,2013-01-01 20:53:00,
2013-01-01 13:54:00,25.6,-0.8,30.60,WSW,239,16.0,16.0,31,0.00,,SKC,0.00,VWS V14.01,2013-01-01 20:54:00,
2013-01-01 13:55:00,25.6,-0.2,30.60,West,266,10.0,16.0,32,0.00,,SKC,0.00,VWS V14.01,2013-01-01 20:55:00,
2013-01-01 13:56:00,25.6,-0.2,30.60,WSW,258,12.0,15.0,32,0.00,,SKC,0.00,VWS V14.01,2013-01-01 20:56:00,
2013-01-01 13:57:00,25.6,-0.2,30.60,SSW,206,7.0,12.0,32,0.00,,SKC,0.00,VWS V14.01,2013-01-01 20:57:00,
2013-01-01 13:58:00,25.7,0.6,30.60,North,360,20.0,28.0,33,0.00,,SKC,0.00,VWS V14.01,2013-01-01 20:58:00,
2013-01-01 13:59:00,25.6,-0.8,30.60,West,261,23.0,28.0,31,0.00,,SKC,0.00,VWS V14.01,2013-01-01 20:59:00,
2013-01-01 14:00:00,25.3,-1.1,30.60,WSW,254,18.0,23.0,31,0.00,,SKC,0.00,VWS V14.01,2013-01-01 21:00:00,
2013-01-01 14:01:00,25.1,-0.6,30.60,West,275,18.0,21.0,32,0.00,,SKC,0.00,VWS V14.01,2013-01-01 21:01:00,
2013-01-01 14:02:00,25.0,-0.7,30.60,WSW,251,15.0,22.0,32,0.00,,SKC,0.00,VWS V14.01,2013-01-01 21:02:00,
2013-01-01 14:03:00,24.9,-0.1,30.60,SW,234,19.0,20.0,33,0.00,,SKC,0.00,VWS V14.01,2013-01-01 21:03:00,
2013-01-01 14:04:00,24.8,-0.9,30.60,North,360,25.0,26.0,32,0.00,,SKC,0.00,VWS V14.01,2013-01-01 21:04:00,
2013-01-01 14:05:00,24.8,-0.2,30.60,WSW,257,19.0,25.0,33,0.00,,SKC,0.00,VWS V14.01,2013-01-01 21:05:00,
2013-01-01 14:06:00,24.7,-0.9,30.60,WSW,246,21.0,21.0,32,0.00,,SKC,0.00,VWS V14.01,2013-01-01 21:06:00,
2013-01-01 14:07:00,24.5,-1.1,30.60,WSW,254,18.0,24.0,32,0.00,,SKC,0.00,VWS V14.01,2013-01-01 21:07:00,
2013-01-01 14:08:00,24.4,-0.6,30.60,West,261,29.0,29.0,33,0.00,,SKC,0.00,VWS V14.01,2013-01-01 21:08:00,
2013-01-01 14:09:00,24.3,-0.6,30.60,West,260,15.0,29.0,33,0.00,,SKC,0.00,VWS V14.01,2013-01-01 21:09:00,
2013-01-01 14:10:00,24.3,0.0,30.60,WSW,244,20.0,20.0,34,0.00,,SKC,0.00,VWS V14.01,2013-01-01 21:10:00,
2013-01-01 14:11:00,24.3,0.0,30.60,SSW,207,14.0,20.0,34,0.00,,SKC,0.00,VWS V14.01,2013-01-01 21:11:00,
2013-01-01 14:12:00,24.4,0.1,30.60,WSW,250,15.0,17.0,34,0.00,,SKC,0.00,VWS V14.01,2013-01-01 21:12:00,
2013-01-01 14:13:00,24.4,-0.6,30.60,West,267,16.0,26.0,33,0.00,,SKC,0.00,VWS V14.01,2013-01-01 21:13:00,
2013-01-01 14:14:00,24.4,-0.6,30.60,WSW,252,18.0,22.0,33,0.00,,SKC,0.00,VWS V14.01,2013-01-01 21:14:00,
2013-01-01 14:15:00,24.2,-0.7,30.60,WSW,256,15.0,23.0,33,0.00,,SKC,0.00,VWS V14.01,2013-01-01 21:15:00,
2013-01-01 14:16:00,24.2,-0.1,30.60,West,280,14.0,19.0,34,0.00,,SKC,0.00,VWS V14.01,2013-01-01 21:16:00,
2013-01-01 14:17:00,24.2,-0.1,30.60,WSW,247,15.0,21.0,34,0.00,,SKC,0.00,VWS V14.01,2013-01-01 21:17:00,
2013-01-01 14:18:00,24.2,-0.1,30.60,WSW,246,20.0,22.0,34,0.00,,SKC,0.00,VWS V14.01,2013-01-01 21:18:00,
2013-01-01 14:19:00,24.1,-0.8,30.60,WSW,254,14.0,21.0,33,0.00,,SKC,0.00,VWS V14.01,2013-01-01 21:19:00,
2013-01-01 14:20:00,24.1,-0.2,30.60,WSW,242,21.0,26.0,34,0.00,,SKC,0.00,VWS V14.01,2013-01-01 21:20:00,
2013-01-01 14:21:00,24.0,-0.9,30.60,WSW,257,26.0,29.0,33,0.00,,SKC,0.00,VWS V14.01,2013-01-01 21:21:00,
2013-01-01 14:22:00,23.9,-1.0,30.60,WSW,248,23.0,26.0,33,0.00,,SKC,0.00,VWS V14.01,2013-01-01 21:22:00,
2013-01-01 14:23:00,23.8,-1.1,30.60,North,360,19.0,23.0,33,0.00,,SKC,0.00,VWS V14.01,2013-01-01 21:23:00,
2013-01-01 14:24:00,23.6,-1.3,30.60,WSW,258,16.0,20.0,33,0.00,,SKC,0.00,VWS V14.01,2013-01-01 21:24:00,
2013-01-01 14:25:00,23.5,-0.7,30.60,North,360,12.0,16.0,34,0.00,,SKC,0.00,VWS V14.01,2013-01-01 21:25:00,
2013-01-01 14:26:00,23.5,-0.7,30.60,North,360,18.0,18.0,34,0.00,,SKC,0.00,VWS V14.01,2013-01-01 21:26:00,
2013-01-01 14:27:00,23.5,-0.7,30.60,SW,214,15.0,18.0,34,0.00,,SKC,0.00,VWS V14.01,2013-01-01 21:27:00,
2013-01-01 14:28:00,23.6,-0.6,30.60,WSW,252,12.0,19.0,34,0.00,,SKC,0.00,VWS V14.01,2013-01-01 21:28:00,
2013-01-01 14:29:00,23.7,-0.6,30.60,North,360,13.0,16.0,34,0.00,,SKC,0.00,VWS V14.01,2013-01-01 21:29:00,
2013-01-01 14:30:00,23.8,-0.5,30.60,SW,235,14.0,14.0,34,0.00,,SKC,0.00,VWS V14.01,2013-01-01 21:30:00,
2013-01-01 14:31:00,23.9,-0.4,30.60,SW,234,12.0,17.0,34,0.00,,SKC,0.00,VWS V14.01,2013-01-01 21:31:00,
2013-01-01 14:32:00,24.0,-0.9,30.60,West,272,6.0,14.0,33,0.00,,SKC,0.00,VWS V14.01,2013-01-01 21:32:00,
2013-01-01 14:33:00,24.0,-0.3,30.60,WSW,254,12.0,16.0,34,0.00,,SKC,0.00,VWS V14.01,2013-01-01 21:33:00,
2013-01-01 14:34:00,24.1,-0.2,30.60,WSW,246,9.0,15.0,34,0.00,,SKC,0.00,VWS V14.01,2013-01-01 21:34:00,
2013-01-01 14:35:00,24.2,-1.4,30.60,West,277,15.0,17.0,32,0.00,,SKC,0.00,VWS V14.01,2013-01-01 21:35:00,
2013-01-01 14:36:00,24.2,-1.4,30.60,SSW,208,13.0,16.0,32,0.00,,SKC,0.00,VWS V14.01,2013-01-01 21:36:00,
2013-01-01 14:37:00,24.2,-1.4,30.60,WSW,240,10.0,15.0,32,0.00,,SKC,0.00,VWS V14.01,2013-01-01 21:37:00,
2013-01-01 14:38:00,24.2,-0.7,30.60,SW,223,11.0,14.0,33,0.00,,SKC,0.00,VWS V14.01,2013-01-01 21:38:00,
2013-01-01 14:39:00,24.2,-0.7,30.60,North,360,15.0,21.0,33,0.00,,SKC,0.00,VWS V14.01,2013-01-01 21:39:00,
2013-01-01 14:40:00,24.2,-0.7,30.60,SW,232,16.0,21.0,33,0.00,,SKC,0.00,VWS V14.01,2013-01-01 21:40:00,
2013-01-01 14:41:00,24.2,-0.7,30.60,North,360,17.0,20.0,33,0.00,,SKC,0.00,VWS V14.01,2013-01-01 21:41:00,
2013-01-01 14:42:00,24.1,-0.8,30.61,West,261,13.0,17.0,33,0.00,,SKC,0.00,VWS V14.01,2013-01-01 21:42:00,
2013-01-01 14:43:00,24.1,-0.8,30.60,North,360,26.0,26.0,33,0.00,,SKC,0.00,VWS V14.01,2013-01-01 21:43:00,
2013-01-01 14:44:00,24.0,-0.9,30.60,West,259,14.0,26.0,33,0.00,,SKC,0.00,VWS V14.01,2013-01-01 21:44:00,
2013-01-01 14:45:00,24.0,-0.9,30.60,WSW,258,15.0,18.0,33,0.00,,SKC,0.00,VWS V14.01,2013-01-01 21:45:00,
2013-01-01 14:46:00,24.0,-0.9,30.60,WSW,240,16.0,20.0,33,0.00,,SKC,0.00,VWS V14.01,2013-01-01 21:46:00,
2013-01-01 14:47:00,24.0,-0.9,30.60,WSW,246,12.0,20.0,33,0.00,,SKC,0.00,VWS V14.01,2013-01-01 21:47:00,
2013-01-01 14:48:00,24.0,-0.9,30.60,WSW,242,17.0,22.0,33,0.00,,SKC,0.00,VWS V14.01,2013-01-01 21:48:00,
2013-01-01 14:49:00,24.0,-0.3,30.60,North,360,17.0,22.0,34,0.00,,SKC,0.00,VWS V14.01,2013-01-01 21:49:00,
2013-01-01 14:50:00,23.9,-1.0,30.60,WSW,241,22.0,24.0,33,0.00,,SKC,0.00,VWS V14.01,2013-01-01 21:50:00,
2013-01-01 14:51:00,23.8,-1.1,30.60,WSW,254,21.0,27.0,33,0.00,,SKC,0.00,VWS V14.01,2013-01-01 21:51:00,
2013-01-01 14:52:00,23.7,-1.2,30.60,West,271,19.0,21.0,33,0.00,,SKC,0.00,VWS V14.01,2013-01-01 21:52:00,
2013-01-01 14:53:00,23.6,-1.3,30.60,North,360,15.0,24.0,33,0.00,,SKC,0.00,VWS V14.01,2013-01-01 21:53:00,
2013-01-01 14:54:00,23.4,-0.8,30.60,North,360,21.0,21.0,34,0.00,,SKC,0.00,VWS V14.01,2013-01-01 21:54:00,
2013-01-01 14:55:00,23.3,-1.5,30.60,West,264,17.0,21.0,33,0.00,,SKC,0.00,VWS V14.01,2013-01-01 21:55:00,
2013-01-01 14:56:00,23.3,-0.9,30.60,West,277,14.0,21.0,34,0.00,,SKC,0.00,VWS V14.01,2013-01-01 21:56:00,
2013-01-01 14:57:00,23.3,-0.9,30.60,WSW,243,19.0,20.0,34,0.00,,SKC,0.00,VWS V14.01,2013-01-01 21:57:00,
2013-01-01 14:58:00,23.4,-0.8,30.61,WSW,254,19.0,26.0,34,0.00,,SKC,0.00,VWS V14.01,2013-01-01 21:58:00,
2013-01-01 14:59:00,23.3,-1.5,30.60,WSW,244,19.0,20.0,33,0.00,,SKC,0.00,VWS V14.01,2013-01-01 21:59:00,
2013-01-01 15:00:00,23.2,-1.0,30.60,WNW,296,14.0,19.0,34,0.00,,SKC,0.00,VWS V14.01,2013-01-01 22:00:00,
2013-01-01 15:01:00,23.1,-1.1,30.60,WSW,258,27.0,27.0,34,0.00,,SKC,0.00,VWS V14.01,2013-01-01 22:01:00,
2013-01-01 15:02:00,23.1,-1.1,30.61,SSW,212,19.0,27.0,34,0.00,,SKC,0.00,VWS V14.01,2013-01-01 22:02:00,
2013-01-01 15:03:00,23.0,-1.8,30.60,North,360,23.0,23.0,33,0.00,,SKC,0.00,VWS V14.01,2013-01-01 22:03:00,
2013-01-01 15:04:00,22.9,-1.3,30.60,West,259,17.0,23.0,34,0.00,,SKC,0.00,VWS V14.01,2013-01-01 22:04:00,
2013-01-01 15:05:00,22.9,-0.6,30.61,North,360,14.0,25.0,35,0.00,,SKC,0.00,VWS V14.01,2013-01-01 22:05:00,
2013-01-01 15:06:00,22.9,-0.6,30.60,WSW,253,20.0,24.0,35,0.00,,SKC,0.00,VWS V14.01,2013-01-01 22:06:00,
2013-01-01 15:07:00,22.8,-1.4,30.61,SW,229,15.0,20.0,34,0.00,,SKC,0.00,VWS V14.01,2013-01-01 22:07:00,
2013-01-01 15:08:00,22.8,-1.4,30.60,WSW,237,15.0,15.0,34,0.00,,SKC,0.00,VWS V14.01,2013-01-01 22:08:00,
2013-01-01 15:09:00,22.7,-1.4,30.60,West,271,14.0,16.0,34,0.00,,SKC,0.00,VWS V14.01,2013-01-01 22:09:00,
2013-01-01 15:10:00,22.7,-1.4,30.61,SW,231,13.0,15.0,34,0.00,,SKC,0.00,VWS V14.01,2013-01-01 22:10:00,
2013-01-01 15:11:00,22.8,-1.4,30.60,WSW,246,14.0,14.0,34,0.00,,SKC,0.00,VWS V14.01,2013-01-01 22:11:00,
2013-01-01 15:12:00,22.9,-1.3,30.61,WSW,256,18.0,18.0,34,0.00,,SKC,0.00,VWS V14.01,2013-01-01 22:12:00,
2013-01-01 15:13:00,23.0,-1.2,30.61,WSW,241,13.0,23.0,34,0.00,,SKC,0.00,VWS V14.01,2013-01-01 22:13:00,
2013-01-01 15:14:00,23.1,-1.1,30.61,North,360,18.0,20.0,34,0.00,,SKC,0.00,VWS V14.01,2013-01-01 22:14:00,
2013-01-01 15:15:00,23.1,-1.1,30.60,SW,236,10.0,18.0,34,0.00,,SKC,0.00,VWS V14.01,2013-01-01 22:15:00,
2013-01-01 15:16:00,23.0,-1.2,30.60,SW,220,11.0,13.0,34,0.00,,SKC,0.00,VWS V14.01,2013-01-01 22:16:00,
2013-01-01 15:17:00,22.9,-1.3,30.60,WSW,246,14.0,16.0,34,0.00,,SKC,0.00,VWS V14.01,2013-01-01 22:17:00,
2013-01-01 15:18:00,22.9,-1.3,30.60,SW,234,11.0,14.0,34,0.00,,SKC,0.00,VWS V14.01,2013-01-01 22:18:00,
2013-01-01 15:19:00,22.9,-1.3,30.61,SSW,209,7.0,12.0,34,0.00,,SKC,0.00,VWS V14.01,2013-01-01 22:19:00,
2013-01-01 15:20:00,22.9,-1.3,30.60,WSW,251,7.0,12.0,34,0.00,,SKC,0.00,VWS V14.01,2013-01-01 22:20:00,
2013-01-01 15:21:00,22.9,-1.3,30.61,SW,229,13.0,13.0,34,0.00,,SKC,0.00,VWS V14.01,2013-01-01 22:21:00,
2013-01-01 15:22:00,22.9,-0.6,30.60,WSW,258,17.0,17.0,35,0.00,,SKC,0.00,VWS V14.01,2013-01-01 22:22:00,
2013-01-01 15:23:00,23.0,-1.2,30.61,SW,217,15.0,17.0,34,0.00,,SKC,0.00,VWS V14.01,2013-01-01 22:23:00,
2013-01-01 15:24:00,23.0,-1.2,30.60,WSW,254,11.0,15.0,34,0.00,,SKC,0.00,VWS V14.01,2013-01-01 22:24:00,
2013-01-01 15:25:00,23.0,-1.2,30.60,West,262,11.0,14.0,34,0.00,,SKC,0.00,VWS V14.01,2013-01-01 22:25:00,
2013-01-01 15:26:00,23.1,-1.1,30.60,SW,232,14.0,17.0,34,0.00,,SKC,0.00,VWS V14.01,2013-01-01 22:26:00,
2013-01-01 15:27:00,23.2,-1.0,30.60,North,360,10.0,14.0,34,0.00,,SKC,0.00,VWS V14.01,2013-01-01 22:27:00,
2013-01-01 15:28:00,23.2,-1.0,30.60,North,360,14.0,15.0,34,0.00,,SKC,0.00,VWS V14.01,2013-01-01 22:28:00,
2013-01-01 15:29:00,23.2,-1.0,30.60,West,264,8.0,18.0,34,0.00,,SKC,0.00,VWS V14.01,2013-01-01 22:29:00,
2013-01-01 15:30:00,23.2,-1.0,30.60,WSW,258,7.0,14.0,34,0.00,,SKC,0.00,VWS V14.01,2013-01-01 22:30:00,
2013-01-01 15:31:00,23.2,-1.0,30.60,WSW,244,12.0,14.0,34,0.00,,SKC,0.00,VWS V14.01,2013-01-01 22:31:00,
2013-01-01 15:32:00,23.3,-0.9,30.60,WSW,248,11.0,12.0,34,0.00,,SKC,0.00,VWS V14.01,2013-01-01 22:32:00,
2013-01-01 15:33:00,23.4,-0.8,30.60,West,263,11.0,17.0,34,0.00,,SKC,0.00,VWS V14.01,2013-01-01 22:33:00,
2013-01-01 15:34:00,23.5,-0.7,30.60,West,265,12.0,16.0,34,0.00,,SKC,0.00,VWS V14.01,2013-01-01 22:34:00,
2013-01-01 15:35:00,23.4,-1.5,30.60,SW,232,18.0,18.0,33,0.00,,SKC,0.00,VWS V14.01,2013-01-01 22:35:00,
2013-01-01 15:36:00,23.3,-1.5,30.60,WSW,251,11.0,19.0,33,0.00,,SKC,0.00,VWS V14.01,2013-01-01 22:36:00,
2013-01-01 15:37:00,23.1,-1.1,30.60,WSW,252,22.0,22.0,34,0.00,,SKC,0.00,VWS V14.01,2013-01-01 22:37:00,
2013-01-01 15:38:00,23.0,-1.2,30.60,West,261,20.0,25.0,34,0.00,,SKC,0.00,VWS V14.01,2013-01-01 22:38:00,
2013-01-01 15:39:00,22.9,-1.3,30.60,North,360,14.0,20.0,34,0.00,,SKC,0.00,VWS V14.01,2013-01-01 22:39:00,
2013-01-01 15:40:00,22.7,-1.4,30.60,WSW,256,11.0,15.0,34,0.00,,SKC,0.00,VWS V14.01,2013-01-01 22:40:00,
2013-01-01 15:41:00,22.7,-1.4,30.60,WSW,251,12.0,14.0,34,0.00,,SKC,0.00,VWS V14.01,2013-01-01 22:41:00,
2013-01-01 15:42:00,22.6,-1.5,30.60,WNW,282,11.0,13.0,34,0.00,,SKC,0.00,VWS V14.01,2013-01-01 22:42:00,
2013-01-01 15:43:00,22.6,-1.5,30.60,WSW,256,14.0,17.0,34,0.00,,SKC,0.00,VWS V14.01,2013-01-01 22:43:00,
2013-01-01 15:44:00,22.7,-1.4,30.60,SW,226,12.0,15.0,34,0.00,,SKC,0.00,VWS V14.01,2013-01-01 22:44:00,
2013-01-01 15:45:00,22.6,-1.5,30.60,West,274,15.0,17.0,34,0.00,,SKC,0.00,VWS V14.01,2013-01-01 22:45:00,
2013-01-01 15:46:00,22.6,-0.9,30.59,West,270,16.0,17.0,35,0.00,,SKC,0.00,VWS V14.01,2013-01-01 22:46:00,
2013-01-01 15:47:00,22.7,-1.4,30.60,SW,232,15.0,19.0,34,0.00,,SKC,0.00,VWS V14.01,2013-01-01 22:47:00,
2013-01-01 15:48:00,22.6,-1.5,30.60,West,281,14.0,17.0,34,0.00,,SKC,0.00,VWS V14.01,2013-01-01 22:48:00,
2013-01-01 15:49:00,22.6,-0.9,30.60,North,360,12.0,16.0,35,0.00,,SKC,0.00,VWS V14.01,2013-01-01 22:49:00,
2013-01-01 15:50:00,22.6,-0.9,30.60,North,360,12.0,19.0,35,0.00,,SKC,0.00,VWS V14.01,2013-01-01 22:50:00,
2013-01-01 15:51:00,22.6,-1.5,30.59,WSW,253,11.0,14.0,34,0.00,,SKC,0.00,VWS V14.01,2013-01-01 22:51:00,
2013-01-01 15:52:00,22.5,-1.6,30.60,WSW,257,14.0,17.0,34,0.00,,SKC,0.00,VWS V14.01,2013-01-01 22:52:00,
2013-01-01 15:53:00,22.5,-1.6,30.60,WSW,249,14.0,16.0,34,0.00,,SKC,0.00,VWS V14.01,2013-01-01 22:53:00,
2013-01-01 15:54:00,22.4,-1.7,30.60,WSW,250,15.0,17.0,34,0.00,,SKC,0.00,VWS V14.01,2013-01-01 22:54:00,
2013-01-01 15:55:00,22.2,-1.9,30.60,WSW,257,11.0,17.0,34,0.00,,SKC,0.00,VWS V14.01,2013-01-01 22:55:00,
2013-01-01 15:56:00,22.0,-2.1,30.60,WSW,240,11.0,16.0,34,0.00,,SKC,0.00,VWS V14.01,2013-01-01 22:56:00,
2013-01-01 15:57:00,21.7,-2.3,30.60,West,277,11.0,15.0,34,0.00,,SKC,0.00,VWS V14.01,2013-01-01 22:57:00,
2013-01-01 15:58:00,21.5,-1.9,30.60,West,274,13.0,16.0,35,0.00,,SKC,0.00,VWS V14.01,2013-01-01 22:58:00,
2013-01-01 15:59:00,21.3,-2.1,30.60,West,273,9.0,14.0,35,0.00,,SKC,0.00,VWS V14.01,2013-01-01 22:59:00,
2013-01-01 16:00:00,21.1,-2.3,30.60,West,274,10.0,12.0,35,0.00,,SKC,0.00,VWS V14.01,2013-01-01 23:00:00,
2013-01-01 16:01:00,20.9,-2.4,30.60,West,280,11.0,13.0,35,0.00,,SKC,0.00,VWS V14.01,2013-01-01 23:01:00,
2013-01-01 16:02:00,20.7,-2.0,30.60,WSW,252,9.0,12.0,36,0.00,,SKC,0.00,VWS V14.01,2013-01-01 23:02:00,
2013-01-01 16:03:00,20.6,-2.1,30.60,West,260,10.0,13.0,36,0.00,,SKC,0.00,VWS V14.01,2013-01-01 23:03:00,
2013-01-01 16:04:00,20.4,-2.3,30.60,West,268,9.0,13.0,36,0.00,,SKC,0.00,VWS V14.01,2013-01-01 23:04:00,
2013-01-01 16:05:00,20.3,-2.4,30.60,WSW,254,14.0,15.0,36,0.00,,SKC,0.00,VWS V14.01,2013-01-01 23:05:00,
2013-01-01 16:06:00,20.3,-2.4,30.60,WSW,252,14.0,17.0,36,0.00,,SKC,0.00,VWS V14.01,2013-01-01 23:06:00,
2013-01-01 16:07:00,20.2,-2.5,30.60,North,360,13.0,14.0,36,0.00,,SKC,0.00,VWS V14.01,2013-01-01 23:07:00,
2013-01-01 16:08:00,20.1,-2.6,30.60,West,262,9.0,14.0,36,0.00,,SKC,0.00,VWS V14.01,2013-01-01 23:08:00,
2013-01-01 16:09:00,20.0,-2.1,30.60,West,264,10.0,15.0,37,0.00,,SKC,0.00,VWS V14.01,2013-01-01 23:09:00,
2013-01-01 16:10:00,19.9,-2.2,30.61,WSW,255,15.0,15.0,37,0.00,,SKC,0.00,VWS V14.01,2013-01-01 23:10:00,
2013-01-01 16:11:00,19.9,-2.2,30.60,West,277,13.0,18.0,37,0.00,,SKC,0.00,VWS V14.01,2013-01-01 23:11:00,
2013-01-01 16:12:00,19.8,-2.2,30.60,North,360,15.0,15.0,37,0.00,,SKC,0.00,VWS V14.01,2013-01-01 23:12:00,
2013-01-01 16:13:00,19.7,-2.3,30.60,WSW,257,17.0,17.0,37,0.00,,SKC,0.00,VWS V14.01,2013-01-01 23:13:00,
2013-01-01 16:14:00,19.7,-2.3,30.61,West,263,12.0,17.0,37,0.00,,SKC,0.00,VWS V14.01,2013-01-01 23:14:00,
2013-01-01 16:15:00,19.7,-2.3,30.61,West,271,14.0,16.0,37,0.00,,SKC,0.00,VWS V14.01,2013-01-01 23:15:00,
2013-01-01 16:16:00,19.7,-1.8,30.60,WSW,254,14.0,17.0,38,0.00,,SKC,0.00,VWS V14.01,2013-01-01 23:16:00,
2013-01-01 16:17:00,19.7,-1.8,30.61,WSW,256,10.0,14.0,38,0.00,,SKC,0.00,VWS V14.01,2013-01-01 23:17:00,
2013-01-01 16:18:00,19.6,-1.9,30.61,North,360,15.0,17.0,38,0.00,,SKC,0.00,VWS V14.01,2013-01-01 23:18:00,
2013-01-01 16:19:00,19.5,-2.0,30.61,North,360,20.0,20.0,38,0.00,,SKC,0.00,VWS V14.01,2013-01-01 23:19:00,
2013-01-01 16:20:00,19.5,-2.0,30.61,North,360,19.0,24.0,38,0.00,,SKC,0.00,VWS V14.01,2013-01-01 23:20:00,
2013-01-01 16:21:00,19.4,-2.0,30.61,West,279,15.0,19.0,38,0.00,,SKC,0.00,VWS V14.01,2013-01-01 23:21:00,
2013-01-01 16:22:00,19.4,-2.0,30.61,North,360,16.0,21.0,38,0.00,,SKC,0.00,VWS V14.01,2013-01-01 23:22:00,
2013-01-01 16:23:00,19.3,-2.1,30.61,North,360,11.0,17.0,38,0.00,,SKC,0.00,VWS V14.01,2013-01-01 23:23:00,
2013-01-01 16:24:00,19.2,-2.2,30.61,WSW,252,14.0,21.0,38,0.00,,SKC,0.00,VWS V14.01,2013-01-01 23:24:00,
2013-01-01 16:25:00,19.1,-2.3,30.61,West,265,16.0,25.0,38,0.00,,SKC,0.00,VWS V14.01,2013-01-01 23:25:00,
2013-01-01 16:26:00,19.0,-1.9,30.61,WSW,255,18.0,25.0,39,0.00,,SKC,0.00,VWS V14.01,2013-01-01 23:26:00,
2013-01-01 16:27:00,19.0,-1.9,30.61,North,360,14.0,22.0,39,0.00,,SKC,0.00,VWS V14.01,2013-01-01 23:27:00,
2013-01-01 16:28:00,18.9,-2.0,30.61,North,360,17.0,28.0,39,0.00,,SKC,0.00,VWS V14.01,2013-01-01 23:28:00,
2013-01-01 16:29:00,18.8,-2.0,30.60,North,360,16.0,21.0,39,0.00,,SKC,0.00,VWS V14.01,2013-01-01 23:29:00,
2013-01-01 16:30:00,18.8,-2.0,30.60,North,360,19.0,19.0,39,0.00,,SKC,0.00,VWS V14.01,2013-01-01 23:30:00,
2013-01-01 16:31:00,18.7,-2.1,30.60,North,360,18.0,23.0,39,0.00,,SKC,0.00,VWS V14.01,2013-01-01 23:31:00,
2013-01-01 16:32:00,18.7,-2.1,30.60,North,360,19.0,21.0,39,0.00,,SKC,0.00,VWS V14.01,2013-01-01 23:32:00,
2013-01-01 16:33:00,18.6,-2.2,30.61,WSW,258,18.0,26.0,39,0.00,,SKC,0.00,VWS V14.01,2013-01-01 23:33:00,
2013-01-01 16:34:00,18.6,-1.7,30.60,North,360,16.0,22.0,40,0.00,,SKC,0.00,VWS V14.01,2013-01-01 23:34:00,
2013-01-01 16:35:00,18.5,-2.3,30.60,WNW,289,13.0,20.0,39,0.00,,SKC,0.00,VWS V14.01,2013-01-01 23:35:00,
2013-01-01 16:36:00,18.5,-1.8,30.60,WNW,287,10.0,19.0,40,0.00,,SKC,0.00,VWS V14.01,2013-01-01 23:36:00,
2013-01-01 16:37:00,18.4,-1.9,30.60,West,265,8.0,15.0,40,0.00,,SKC,0.00,VWS V14.01,2013-01-01 23:37:00,
2013-01-01 16:38:00,18.4,-1.9,30.60,West,267,8.0,16.0,40,0.00,,SKC,0.00,VWS V14.01,2013-01-01 23:38:00,
2013-01-01 16:39:00,18.4,-2.4,30.60,WSW,247,11.0,16.0,39,0.00,,SKC,0.00,VWS V14.01,2013-01-01 23:39:00,
2013-01-01 16:40:00,18.4,-1.9,30.60,West,266,11.0,13.0,40,0.00,,SKC,0.00,VWS V14.01,2013-01-01 23:40:00,
2013-01-01 16:41:00,18.3,-2.0,30.60,WNW,289,7.0,18.0,40,0.00,,SKC,0.00,VWS V14.01,2013-01-01 23:41:00,
2013-01-01 16:42:00,18.3,-2.0,30.60,West,264,10.0,13.0,40,0.00,,SKC,0.00,VWS V14.01,2013-01-01 23:42:00,
2013-01-01 16:43:00,18.2,-2.1,30.60,WNW,294,7.0,13.0,40,0.00,,SKC,0.00,VWS V14.01,2013-01-01 23:43:00,
2013-01-01 16:44:00,18.2,-2.1,30.59,West,278,12.0,14.0,40,0.00,,SKC,0.00,VWS V14.01,2013-01-01 23:44:00,
2013-01-01 16:45:00,18.1,-2.2,30.60,West,273,5.0,12.0,40,0.00,,SKC,0.00,VWS V14.01,2013-01-01 23:45:00,
2013-01-01 16:46:00,18.1,-2.2,30.60,WSW,258,17.0,17.0,40,0.00,,SKC,0.00,VWS V14.01,2013-01-01 23:46:00,
2013-01-01 16:47:00,18.1,-2.2,30.60,West,276,13.0,17.0,40,0.00,,SKC,0.00,VWS V14.01,2013-01-01 23:47:00,
2013-01-01 16:48:00,18.1,-2.2,30.60,North,360,17.0,18.0,40,0.00,,SKC,0.00,VWS V14.01,2013-01-01 23:48:00,
2013-01-01 16:49:00,18.1,-2.2,30.60,West,263,13.0,17.0,40,0.00,,SKC,0.00,VWS V14.01,2013-01-01 23:49:00,
2013-01-01 16:50:00,18.0,-2.2,30.60,WNW,288,6.0,16.0,40,0.00,,SKC,0.00,VWS V14.01,2013-01-01 23:50:00,
2013-01-01 16:51:00,18.0,-2.8,30.60,SW,232,20.0,20.0,39,0.00,,SKC,0.00,VWS V14.01,2013-01-01 23:51:00,
2013-01-01 16:52:00,18.0,-2.8,30.60,WNW,286,13.0,20.0,39,0.00,,SKC,0.00,VWS V14.01,2013-01-01 23:52:00,
2013-01-01 16:53:00,18.0,-2.8,30.60,WNW,286,14.0,14.0,39,0.00,,SKC,0.00,VWS V14.01,2013-01-01 23:53:00,
2013-01-01 16:54:00,18.0,-2.8,30.59,North,360,10.0,14.0,39,0.00,,SKC,0.00,VWS V14.01,2013-01-01 23:54:00,
2013-01-01 16:55:00,18.0,-2.8,30.60,WNW,288,10.0,15.0,39,0.00,,SKC,0.00,VWS V14.01,2013-01-01 23:55:00,
2013-01-01 16:56:00,18.0,-2.8,30.59,SW,230,15.0,16.0,39,0.00,,SKC,0.00,VWS V14.01,2013-01-01 23:56:00,
2013-01-01 16:57:00,18.0,-2.8,30.59,West,275,9.0,15.0,39,0.00,,SKC,0.00,VWS V14.01,2013-01-01 23:57:00,
2013-01-01 16:58:00,18.0,-2.8,30.59,West,259,12.0,13.0,39,0.00,,SKC,0.00,VWS V14.01,2013-01-01 23:58:00,
2013-01-01 16:59:00,18.0,-2.8,30.59,WNW,286,7.0,15.0,39,0.00,,SKC,0.00,VWS V14.01,2013-01-01 23:59:00,
2013-01-01 17:00:00,18.0,-2.8,30.59,West,265,11.0,14.0,39,0.00,,SKC,0.00,VWS V14.01,2013-01-02 00:00:00,
2013-01-01 17:01:00,18.0,-2.8,30.59,WNW,299,11.0,13.0,39,0.00,,SKC,0.00,VWS V14.01,2013-01-02 00:01:00,
2013-01-01 17:02:00,18.0,-2.8,30.59,North,360,13.0,17.0,39,0.00,,SKC,0.00,VWS V14.01,2013-01-02 00:02:00,
2013-01-01 17:03:00,18.0,-2.8,30.59,WNW,303,6.0,18.0,39,0.00,,SKC,0.00,VWS V14.01,2013-01-02 00:03:00,
2013-01-01 17:04:00,18.0,-2.8,30.59,West,281,8.0,11.0,39,0.00,,SKC,0.00,VWS V14.01,2013-01-02 00:04:00,
2013-01-01 17:05:00,17.9,-2.9,30.59,North,360,15.0,15.0,39,0.00,,SKC,0.00,VWS V14.01,2013-01-02 00:05:00,
2013-01-01 17:06:00,17.9,-2.9,30.59,North,360,18.0,21.0,39,0.00,,SKC,0.00,VWS V14.01,2013-01-02 00:06:00,
2013-01-01 17:07:00,17.9,-2.9,30.59,North,360,19.0,19.0,39,0.00,,SKC,0.00,VWS V14.01,2013-01-02 00:07:00,
2013-01-01 17:08:00,17.9,-2.9,30.59,West,264,12.0,19.0,39,0.00,,SKC,0.00,VWS V14.01,2013-01-02 00:08:00,
2013-01-01 17:09:00,17.9,-2.9,30.59,West,265,15.0,18.0,39,0.00,,SKC,0.00,VWS V14.01,2013-01-02 00:09:00,
2013-01-01 17:10:00,17.9,-2.9,30.59,North,360,16.0,19.0,39,0.00,,SKC,0.00,VWS V14.01,2013-01-02 00:10:00,
2013-01-01 17:11:00,17.9,-2.9,30.59,WSW,241,18.0,24.0,39,0.00,,SKC,0.00,VWS V14.01,2013-01-02 00:11:00,
2013-01-01 17:12:00,18.0,-2.8,30.59,WSW,242,12.0,22.0,39,0.00,,SKC,0.00,VWS V14.01,2013-01-02 00:12:00,
2013-01-01 17:13:00,18.0,-2.8,30.59,North,360,22.0,22.0,39,0.00,,SKC,0.00,VWS V14.01,2013-01-02 00:13:00,
2013-01-01 17:14:00,18.0,-2.8,30.58,West,264,21.0,22.0,39,0.00,,SKC,0.00,VWS V14.01,2013-01-02 00:14:00,
2013-01-01 17:15:00,18.0,-3.3,30.59,West,263,9.0,21.0,38,0.00,,SKC,0.00,VWS V14.01,2013-01-02 00:15:00,
2013-01-01 17:16:00,18.0,-2.8,30.59,WNW,292,15.0,15.0,39,0.00,,SKC,0.00,VWS V14.01,2013-01-02 00:16:00,
2013-01-01 17:17:00,18.0,-2.8,30.59,North,360,12.0,16.0,39,0.00,,SKC,0.00,VWS V14.01,2013-01-02 00:17:00,
2013-01-01 17:18:00,18.1,-2.7,30.59,WSW,255,14.0,14.0,39,0.00,,SKC,0.00,VWS V14.01,2013-01-02 00:18:00,
2013-01-01 17:19:00,18.1,-2.7,30.59,WNW,284,10.0,18.0,39,0.00,,SKC,0.00,VWS V14.01,2013-01-02 00:19:00,
2013-01-01 17:20:00,18.0,-3.3,30.59,North,360,19.0,19.0,38,0.00,,SKC,0.00,VWS V14.01,2013-01-02 00:20:00,
2013-01-01 17:21:00,18.1,-3.2,30.59,North,360,17.0,21.0,38,0.00,,SKC,0.00,VWS V14.01,2013-01-02 00:21:00,
2013-01-01 17:22:00,18.1,-3.2,30.59,NW,304,7.0,17.0,38,0.00,,SKC,0.00,VWS V14.01,2013-01-02 00:22:00,
2013-01-01 17:23:00,18.1,-3.2,30.59,WNW,296,3.0,12.0,38,0.00,,SKC,0.00,VWS V14.01,2013-01-02 00:23:00,
2013-01-01 17:24:00,18.1,-3.2,30.59,North,360,10.0,12.0,38,0.00,,SKC,0.00,VWS V14.01,2013-01-02 00:24:00,
2013-01-01 17:25:00,18.1,-2.7,30.59,West,272,11.0,12.0,39,0.00,,SKC,0.00,VWS V14.01,2013-01-02 00:25:00,
2013-01-01 17:26:00,18.0,-2.8,30.59,NW,304,6.0,13.0,39,0.00,,SKC,0.00,VWS V14.01,2013-01-02 00:26:00,
2013-01-01 17:27:00,18.0,-2.8,30.59,WSW,253,11.0,14.0,39,0.00,,SKC,0.00,VWS V14.01,2013-01-02 00:27:00,
2013-01-01 17:28:00,18.0,-2.8,30.59,West,278,3.0,21.0,39,0.00,,SKC,0.00,VWS V14.01,2013-01-02 00:28:00,
2013-01-01 17:29:00,18.0,-3.3,30.59,West,281,11.0,12.0,38,0.00,,SKC,0.00,VWS V14.01,2013-01-02 00:29:00,
2013-01-01 17:30:00,17.9,-2.9,30.59,North,360,7.0,16.0,39,0.00,,SKC,0.00,VWS V14.01,2013-01-02 00:30:00,
2013-01-01 17:31:00,17.9,-2.9,30.59,North,360,11.0,13.0,39,0.00,,SKC,0.00,VWS V14.01,2013-01-02 00:31:00,
2013-01-01 17:32:00,17.9,-2.9,30.59,WNW,298,10.0,14.0,39,0.00,,SKC,0.00,VWS V14.01,2013-01-02 00:32:00,
2013-01-01 17:33:00,17.9,-2.9,30.59,WNW,282,16.0,18.0,39,0.00,,SKC,0.00,VWS V14.01,2013-01-02 00:33:00,
2013-01-01 17:34:00,17.9,-2.9,30.59,West,263,8.0,16.0,39,0.00,,SKC,0.00,VWS V14.01,2013-01-02 00:34:00,
2013-01-01 17:35:00,17.9,-2.9,30.59,North,360,7.0,12.0,39,0.00,,SKC,0.00,VWS V14.01,2013-01-02 00:35:00,
2013-01-01 17:36:00,17.9,-2.9,30.59,West,267,3.0,9.0,39,0.00,,SKC,0.00,VWS V14.01,2013-01-02 00:36:00,
2013-01-01 17:37:00,17.9,-2.9,30.59,North,360,6.0,12.0,39,0.00,,SKC,0.00,VWS V14.01,2013-01-02 00:37:00,
2013-01-01 17:38:00,17.8,-3.0,30.59,West,259,12.0,12.0,39,0.00,,SKC,0.00,VWS V14.01,2013-01-02 00:38:00,
2013-01-01 17:39:00,17.8,-3.0,30.59,WNW,288,14.0,22.0,39,0.00,,SKC,0.00,VWS V14.01,2013-01-02 00:39:00,
2013-01-01 17:40:00,17.8,-3.0,30.59,WNW,286,8.0,14.0,39,0.00,,SKC,0.00,VWS V14.01,2013-01-02 00:40:00,
2013-01-01 17:41:00,17.8,-3.0,30.59,WSW,254,14.0,18.0,39,0.00,,SKC,0.00,VWS V14.01,2013-01-02 00:41:00,
2013-01-01 17:42:00,17.8,-3.0,30.58,WNW,298,12.0,17.0,39,0.00,,SKC,0.00,VWS V14.01,2013-01-02 00:42:00,
2013-01-01 17:43:00,17.8,-3.0,30.58,North,360,14.0,14.0,39,0.00,,SKC,0.00,VWS V14.01,2013-01-02 00:43:00,
2013-01-01 17:44:00,17.8,-3.0,30.58,West,280,17.0,17.0,39,0.00,,SKC,0.00,VWS V14.01,2013-01-02 00:44:00,
2013-01-01 17:45:00,17.8,-3.0,30.59,North,360,16.0,17.0,39,0.00,,SKC,0.00,VWS V14.01,2013-01-02 00:45:00,
2013-01-01 17:46:00,17.8,-3.0,30.59,West,270,9.0,18.0,39,0.00,,SKC,0.00,VWS V14.01,2013-01-02 00:46:00,
2013-01-01 17:47:00,17.8,-3.0,30.58,WSW,258,6.0,13.0,39,0.00,,SKC,0.00,VWS V14.01,2013-01-02 00:47:00,
2013-01-01 17:48:00,17.8,-3.0,30.59,North,360,13.0,13.0,39,0.00,,SKC,0.00,VWS V14.01,2013-01-02 00:48:00,
2013-01-01 17:49:00,17.8,-3.0,30.58,WNW,287,5.0,22.0,39,0.00,,SKC,0.00,VWS V14.01,2013-01-02 00:49:00,
2013-01-01 17:50:00,17.7,-3.0,30.58,NW,307,6.0,9.0,39,0.00,,SKC,0.00,VWS V14.01,2013-01-02 00:50:00,
2013-01-01 17:51:00,17.8,-3.0,30.58,North,360,7.0,13.0,39,0.00,,SKC,0.00,VWS V14.01,2013-01-02 00:51:00,
2013-01-01 17:52:00,17.7,-3.0,30.59,West,281,10.0,13.0,39,0.00,,SKC,0.00,VWS V14.01,2013-01-02 00:52:00,
2013-01-01 17:53:00,17.7,-3.0,30.59,WNW,286,10.0,17.0,39,0.00,,SKC,0.00,VWS V14.01,2013-01-02 00:53:00,
2013-01-01 17:54:00,17.7,-3.0,30.58,WSW,252,14.0,20.0,39,0.00,,SKC,0.00,VWS V14.01,2013-01-02 00:54:00,
2013-01-01 17:55:00,17.7,-3.0,30.58,North,360,7.0,14.0,39,0.00,,SKC,0.00,VWS V14.01,2013-01-02 00:55:00,
2013-01-01 17:56:00,17.8,-3.0,30.58,West,273,13.0,16.0,39,0.00,,SKC,0.00,VWS V14.01,2013-01-02 00:56:00,
2013-01-01 17:57:00,17.7,-3.6,30.59,West,273,10.0,18.0,38,0.00,,SKC,0.00,VWS V14.01,2013-01-02 00:57:00,
2013-01-01 17:58:00,17.7,-3.6,30.59,West,261,11.0,16.0,38,0.00,,SKC,0.00,VWS V14.01,2013-01-02 00:58:00,
2013-01-01 17:59:00,17.8,-3.5,30.59,West,277,9.0,18.0,38,0.00,,SKC,0.00,VWS V14.01,2013-01-02 00:59:00,
2013-01-01 18:00:00,17.8,-3.5,30.59,NW,306,6.0,18.0,38,0.00,,SKC,0.00,VWS V14.01,2013-01-02 01:00:00,
2013-01-01 18:01:00,17.8,-3.5,30.58,West,270,13.0,15.0,38,0.00,,SKC,0.00,VWS V14.01,2013-01-02 01:01:00,
2013-01-01 18:02:00,17.8,-3.5,30.59,West,272,18.0,19.0,38,0.00,,SKC,0.00,VWS V14.01,2013-01-02 01:02:00,
2013-01-01 18:03:00,17.9,-3.4,30.58,North,360,11.0,18.0,38,0.00,,SKC,0.00,VWS V14.01,2013-01-02 01:03:00,
2013-01-01 18:04:00,17.8,-3.0,30.58,West,269,9.0,12.0,39,0.00,,SKC,0.00,VWS V14.01,2013-01-02 01:04:00,
2013-01-01 18:05:00,17.8,-3.0,30.59,North,360,20.0,20.0,39,0.00,,SKC,0.00,VWS V14.01,2013-01-02 01:05:00,
2013-01-01 18:06:00,17.9,-2.9,30.58,West,275,13.0,20.0,39,0.00,,SKC,0.00,VWS V14.01,2013-01-02 01:06:00,
2013-01-01 18:07:00,17.9,-2.9,30.59,West,267,9.0,15.0,39,0.00,,SKC,0.00,VWS V14.01,2013-01-02 01:07:00,
2013-01-01 18:08:00,17.9,-3.4,30.59,WNW,293,13.0,13.0,38,0.00,,SKC,0.00,VWS V14.01,2013-01-02 01:08:00,
2013-01-01 18:09:00,17.8,-3.0,30.59,NW,304,14.0,15.0,39,0.00,,SKC,0.00,VWS V14.01,2013-01-02 01:09:00,
2013-01-01 18:10:00,17.8,-3.0,30.59,North,360,16.0,20.0,39,0.00,,SKC,0.00,VWS V14.01,2013-01-02 01:10:00,
2013-01-01 18:11:00,17.8,-3.5,30.58,WNW,296,9.0,16.0,38,0.00,,SKC,0.00,VWS V14.01,2013-01-02 01:11:00,
2013-01-01 18:12:00,17.7,-3.0,30.59,North,360,12.0,14.0,39,0.00,,SKC,0.00,VWS V14.01,2013-01-02 01:12:00,
2013-01-01 18:13:00,17.7,-3.6,30.59,West,267,6.0,13.0,38,0.00,,SKC,0.00,VWS V14.01,2013-01-02 01:13:00,
2013-01-01 18:14:00,17.7,-3.6,30.59,North,360,5.0,13.0,38,0.00,,SKC,0.00,VWS V14.01,2013-01-02 01:14:00,
2013-01-01 18:15:00,17.7,-3.6,30.59,North,360,11.0,15.0,38,0.00,,SKC,0.00,VWS V14.01,2013-01-02 01:15:00,
2013-01-01 18:16:00,17.7,-3.0,30.59,North,360,14.0,15.0,39,0.00,,SKC,0.00,VWS V14.01,2013-01-02 01:16:00,
2013-01-01 18:17:00,17.7,-3.0,30.59,WNW,288,13.0,15.0,39,0.00,,SKC,0.00,VWS V14.01,2013-01-02 01:17:00,
2013-01-01 18:18:00,17.7,-3.6,30.59,WNW,288,7.0,13.0,38,0.00,,SKC,0.00,VWS V14.01,2013-01-02 01:18:00,
2013-01-01 18:19:00,17.7,-3.6,30.59,West,279,9.0,12.0,38,0.00,,SKC,0.00,VWS V14.01,2013-01-02 01:19:00,
2013-01-01 18:20:00,17.7,-3.6,30.59,North,360,13.0,18.0,38,0.00,,SKC,0.00,VWS V14.01,2013-01-02 01:20:00,
2013-01-01 18:21:00,17.7,-3.6,30.59,West,269,7.0,16.0,38,0.00,,SKC,0.00,VWS V14.01,2013-01-02 01:21:00,
2013-01-01 18:22:00,17.8,-3.0,30.59,WSW,256,11.0,11.0,39,0.00,,SKC,0.00,VWS V14.01,2013-01-02 01:22:00,
2013-01-01 18:23:00,17.8,-3.5,30.59,WNW,292,13.0,18.0,38,0.00,,SKC,0.00,VWS V14.01,2013-01-02 01:23:00,
2013-01-01 18:24:00,17.7,-3.6,30.59,West,281,16.0,18.0,38,0.00,,SKC,0.00,VWS V14.01,2013-01-02 01:24:00,
2013-01-01 18:25:00,17.7,-3.6,30.59,WSW,253,14.0,18.0,38,0.00,,SKC,0.00,VWS V14.01,2013-01-02 01:25:00,
2013-01-01 18:26:00,17.8,-3.5,30.59,North,360,12.0,15.0,38,0.00,,SKC,0.00,VWS V14.01,2013-01-02 01:26:00,
2013-01-01 18:27:00,17.8,-3.5,30.59,West,279,12.0,12.0,38,0.00,,SKC,0.00,VWS V14.01,2013-01-02 01:27:00,
2013-01-01 18:28:00,17.8,-3.5,30.59,West,267,10.0,13.0,38,0.00,,SKC,0.00,VWS V14.01,2013-01-02 01:28:00,
2013-01-01 18:29:00,17.8,-3.5,30.59,West,278,9.0,15.0,38,0.00,,SKC,0.00,VWS V14.01,2013-01-02 01:29:00,
2013-01-01 18:30:00,17.8,-3.5,30.59,WNW,303,7.0,10.0,38,0.00,,SKC,0.00,VWS V14.01,2013-01-02 01:30:00,
2013-01-01 18:31:00,17.8,-3.5,30.59,West,277,7.0,11.0,38,0.00,,SKC,0.00,VWS V14.01,2013-01-02 01:31:00,
2013-01-01 18:32:00,17.8,-3.5,30.60,North,360,4.0,8.0,38,0.00,,SKC,0.00,VWS V14.01,2013-01-02 01:32:00,
2013-01-01 18:33:00,17.8,-3.5,30.60,West,265,12.0,19.0,38,0.00,,SKC,0.00,VWS V14.01,2013-01-02 01:33:00,
2013-01-01 18:34:00,17.8,-3.5,30.60,WNW,286,14.0,14.0,38,0.00,,SKC,0.00,VWS V14.01,2013-01-02 01:34:00,
2013-01-01 18:35:00,17.8,-3.5,30.60,North,360,13.0,15.0,38,0.00,,SKC,0.00,VWS V14.01,2013-01-02 01:35:00,
2013-01-01 18:36:00,17.8,-3.5,30.60,West,269,15.0,15.0,38,0.00,,SKC,0.00,VWS V14.01,2013-01-02 01:36:00,
2013-01-01 18:37:00,17.8,-3.5,30.60,North,360,15.0,21.0,38,0.00,,SKC,0.00,VWS V14.01,2013-01-02 01:37:00,
2013-01-01 18:38:00,17.8,-3.5,30.60,NW,306,10.0,18.0,38,0.00,,SKC,0.00,VWS V14.01,2013-01-02 01:38:00,
2013-01-01 18:39:00,17.7,-3.6,30.60,WNW,301,16.0,22.0,38,0.00,,SKC,0.00,VWS V14.01,2013-01-02 01:39:00,
2013-01-01 18:40:00,17.7,-3.6,30.60,WSW,244,14.0,18.0,38,0.00,,SKC,0.00,VWS V14.01,2013-01-02 01:40:00,
2013-01-01 18:41:00,17.7,-3.6,30.60,North,360,14.0,16.0,38,0.00,,SKC,0.00,VWS V14.01,2013-01-02 01:41:00,
2013-01-01 18:42:00,17.7,-3.6,30.60,North,360,13.0,15.0,38,0.00,,SKC,0.00,VWS V14.01,2013-01-02 01:42:00,
2013-01-01 18:43:00,17.6,-3.1,30.60,North,360,13.0,23.0,39,0.00,,SKC,0.00,VWS V14.01,2013-01-02 01:43:00,
2013-01-01 18:44:00,17.6,-3.7,30.60,West,276,10.0,14.0,38,0.00,,SKC,0.00,VWS V14.01,2013-01-02 01:44:00,
2013-01-01 18:45:00,17.6,-3.7,30.60,WNW,288,24.0,24.0,38,0.00,,SKC,0.00,VWS V14.01,2013-01-02 01:45:00,
2013-01-01 18:46:00,17.6,-3.7,30.60,North,360,13.0,24.0,38,0.00,,SKC,0.00,VWS V14.01,2013-01-02 01:46:00,
2013-01-01 18:47:00,17.6,-3.7,30.60,WNW,297,15.0,16.0,38,0.00,,SKC,0.00,VWS V14.01,2013-01-02 01:47:00,
2013-01-01 18:48:00,17.6,-3.7,30.60,WNW,282,10.0,15.0,38,0.00,,SKC,0.00,VWS V14.01,2013-01-02 01:48:00,
2013-01-01 18:49:00,17.6,-3.7,30.60,West,273,8.0,13.0,38,0.00,,SKC,0.00,VWS V14.01,2013-01-02 01:49:00,
2013-01-01 18:50:00,17.6,-3.7,30.60,North,360,11.0,14.0,38,0.00,,SKC,0.00,VWS V14.01,2013-01-02 01:50:00,
2013-01-01 18:51:00,17.5,-3.8,30.60,NW,314,13.0,17.0,38,0.00,,SKC,0.00,VWS V14.01,2013-01-02 01:51:00,
2013-01-01 18:52:00,17.5,-3.8,30.60,North,360,12.0,19.0,38,0.00,,SKC,0.00,VWS V14.01,2013-01-02 01:52:00,
2013-01-01 18:53:00,17.5,-3.8,30.61,West,264,9.0,16.0,38,0.00,,SKC,0.00,VWS V14.01,2013-01-02 01:53:00,
2013-01-01 18:54:00,17.5,-3.8,30.60,North,360,13.0,20.0,38,0.00,,SKC,0.00,VWS V14.01,2013-01-02 01:54:00,
2013-01-01 18:55:00,17.5,-3.8,30.61,West,273,14.0,18.0,38,0.00,,SKC,0.00,VWS V14.01,2013-01-02 01:55:00,
2013-01-01 18:56:00,17.6,-3.7,30.61,WSW,238,21.0,23.0,38,0.00,,SKC,0.00,VWS V14.01,2013-01-02 01:56:00,
2013-01-01 18:57:00,17.6,-3.7,30.61,West,267,18.0,27.0,38,0.00,,SKC,0.00,VWS V14.01,2013-01-02 01:57:00,
2013-01-01 18:58:00,17.6,-3.1,30.61,North,360,20.0,25.0,39,0.00,,SKC,0.00,VWS V14.01,2013-01-02 01:58:00,
2013-01-01 18:59:00,17.6,-3.7,30.61,North,360,19.0,21.0,38,0.00,,SKC,0.00,VWS V14.01,2013-01-02 01:59:00,
2013-01-01 19:00:00,17.6,-3.1,30.61,West,272,15.0,19.0,39,0.00,,SKC,0.00,VWS V14.01,2013-01-02 02:00:00,
2013-01-01 19:01:00,17.6,-3.7,30.61,WSW,246,15.0,19.0,38,0.00,,SKC,0.00,VWS V14.01,2013-01-02 02:01:00,
2013-01-01 19:02:00,17.6,-3.7,30.61,WSW,257,17.0,18.0,38,0.00,,SKC,0.00,VWS V14.01,2013-01-02 02:02:00,
2013-01-01 19:03:00,17.5,-3.2,30.61,North,360,15.0,17.0,39,0.00,,SKC,0.00,VWS V14.01,2013-01-02 02:03:00,
2013-01-01 19:04:00,17.5,-3.2,30.61,North,360,15.0,21.0,39,0.00,,SKC,0.00,VWS V14.01,2013-01-02 02:04:00,
2013-01-01 19:05:00,17.5,-3.2,30.61,North,360,11.0,18.0,39,0.00,,SKC,0.00,VWS V14.01,2013-01-02 02:05:00,
2013-01-01 19:06:00,17.4,-3.3,30.61,West,275,15.0,19.0,39,0.00,,SKC,0.00,VWS V14.01,2013-01-02 02:06:00,
2013-01-01 19:07:00,17.4,-3.3,30.61,North,360,13.0,22.0,39,0.00,,SKC,0.00,VWS V14.01,2013-01-02 02:07:00,
2013-01-01 19:08:00,17.4,-3.3,30.61,West,259,11.0,14.0,39,0.00,,SKC,0.00,VWS V14.01,2013-01-02 02:08:00,
2013-01-01 19:09:00,17.4,-3.3,30.61,WSW,252,22.0,24.0,39,0.00,,SKC,0.00,VWS V14.01,2013-01-02 02:09:00,
2013-01-01 19:10:00,17.3,-3.4,30.61,North,360,15.0,22.0,39,0.00,,SKC,0.00,VWS V14.01,2013-01-02 02:10:00,
2013-01-01 19:11:00,17.4,-3.3,30.61,West,259,14.0,15.0,39,0.00,,SKC,0.00,VWS V14.01,2013-01-02 02:11:00,
2013-01-01 19:12:00,17.3,-3.4,30.61,North,360,10.0,15.0,39,0.00,,SKC,0.00,VWS V14.01,2013-01-02 02:12:00,
2013-01-01 19:13:00,17.3,-3.4,30.61,North,360,16.0,16.0,39,0.00,,SKC,0.00,VWS V14.01,2013-01-02 02:13:00,
2013-01-01 19:14:00,17.3,-3.4,30.62,WSW,239,19.0,24.0,39,0.00,,SKC,0.00,VWS V14.01,2013-01-02 02:14:00,
2013-01-01 19:15:00,17.2,-3.5,30.61,North,360,17.0,20.0,39,0.00,,SKC,0.00,VWS V14.01,2013-01-02 02:15:00,
2013-01-01 19:16:00,17.2,-3.5,30.61,WNW,288,9.0,17.0,39,0.00,,SKC,0.00,VWS V14.01,2013-01-02 02:16:00,
2013-01-01 19:17:00,17.2,-3.5,30.61,North,360,23.0,23.0,39,0.00,,SKC,0.00,VWS V14.01,2013-01-02 02:17:00,
2013-01-01 19:18:00,17.2,-3.5,30.61,North,360,12.0,23.0,39,0.00,,SKC,0.00,VWS V14.01,2013-01-02 02:18:00,
2013-01-01 19:19:00,17.2,-3.5,30.61,North,360,23.0,23.0,39,0.00,,SKC,0.00,VWS V14.01,2013-01-02 02:19:00,
2013-01-01 19:20:00,17.2,-3.5,30.61,North,360,14.0,23.0,39,0.00,,SKC,0.00,VWS V14.01,2013-01-02 02:20:00,
2013-01-01 19:21:00,17.2,-3.5,30.61,WNW,294,14.0,23.0,39,0.00,,SKC,0.00,VWS V14.01,2013-01-02 02:21:00,
2013-01-01 19:22:00,17.2,-3.5,30.61,North,360,18.0,20.0,39,0.00,,SKC,0.00,VWS V14.01,2013-01-02 02:22:00,
2013-01-01 19:23:00,17.2,-3.0,30.61,North,360,8.0,20.0,40,0.00,,SKC,0.00,VWS V14.01,2013-01-02 02:23:00,
2013-01-01 19:24:00,17.1,-3.0,30.61,WNW,291,11.0,16.0,40,0.00,,SKC,0.00,VWS V14.01,2013-01-02 02:24:00,
2013-01-01 19:25:00,17.1,-3.0,30.61,West,277,11.0,14.0,40,0.00,,SKC,0.00,VWS V14.01,2013-01-02 02:25:00,
2013-01-01 19:26:00,17.1,-3.0,30.61,North,360,8.0,14.0,40,0.00,,SKC,0.00,VWS V14.01,2013-01-02 02:26:00,
2013-01-01 19:27:00,17.1,-3.0,30.61,West,268,14.0,19.0,40,0.00,,SKC,0.00,VWS V14.01,2013-01-02 02:27:00,
2013-01-01 19:28:00,17.0,-3.1,30.61,North,360,14.0,18.0,40,0.00,,SKC,0.00,VWS V14.01,2013-01-02 02:28:00,
2013-01-01 19:29:00,17.0,-3.1,30.61,WNW,292,10.0,15.0,40,0.00,,SKC,0.00,VWS V14.01,2013-01-02 02:29:00,
2013-01-01 19:30:00,17.0,-3.1,30.61,WSW,253,11.0,16.0,40,0.00,,SKC,0.00,VWS V14.01,2013-01-02 02:30:00,
2013-01-01 19:31:00,17.1,-3.0,30.61,North,360,12.0,17.0,40,0.00,,SKC,0.00,VWS V14.01,2013-01-02 02:31:00,
2013-01-01 19:32:00,17.0,-3.1,30.60,North,360,7.0,13.0,40,0.00,,SKC,0.00,VWS V14.01,2013-01-02 02:32:00,
2013-01-01 19:33:00,17.1,-3.0,30.61,West,268,7.0,12.0,40,0.00,,SKC,0.00,VWS V14.01,2013-01-02 02:33:00,
2013-01-01 19:34:00,17.0,-3.1,30.61,WSW,250,11.0,18.0,40,0.00,,SKC,0.00,VWS V14.01,2013-01-02 02:34:00,
2013-01-01 19:35:00,17.0,-3.1,30.61,WSW,248,10.0,18.0,40,0.00,,SKC,0.00,VWS V14.01,2013-01-02 02:35:00,
2013-01-01 19:36:00,17.0,-3.1,30.61,West,268,10.0,16.0,40,0.00,,SKC,0.00,VWS V14.01,2013-01-02 02:36:00,
2013-01-01 19:37:00,17.0,-3.1,30.62,West,266,12.0,17.0,40,0.00,,SKC,0.00,VWS V14.01,2013-01-02 02:37:00,
2013-01-01 19:38:00,17.0,-3.1,30.62,West,265,18.0,19.0,40,0.00,,SKC,0.00,VWS V14.01,2013-01-02 02:38:00,
2013-01-01 19:39:00,17.0,-3.1,30.62,West,267,15.0,19.0,40,0.00,,SKC,0.00,VWS V14.01,2013-01-02 02:39:00,
2013-01-01 19:40:00,17.0,-3.1,30.62,West,273,10.0,18.0,40,0.00,,SKC,0.00,VWS V14.01,2013-01-02 02:40:00,
2013-01-01 19:41:00,16.9,-3.2,30.62,North,360,13.0,20.0,40,0.00,,SKC,0.00,VWS V14.01,2013-01-02 02:41:00,
2013-01-01 19:42:00,17.0,-3.1,30.61,WSW,244,19.0,19.0,40,0.00,,SKC,0.00,VWS V14.01,2013-01-02 02:42:00,
2013-01-01 19:43:00,16.9,-3.2,30.62,West,259,12.0,19.0,40,0.00,,SKC,0.00,VWS V14.01,2013-01-02 02:43:00,
2013-01-01 19:44:00,16.9,-3.2,30.62,SW,227,16.0,20.0,40,0.00,,SKC,0.00,VWS V14.01,2013-01-02 02:44:00,
2013-01-01 19:45:00,16.9,-3.2,30.62,West,260,18.0,18.0,40,0.00,,SKC,0.00,VWS V14.01,2013-01-02 02:45:00,
2013-01-01 19:46:00,16.9,-3.2,30.62,North,360,20.0,20.0,40,0.00,,SKC,0.00,VWS V14.01,2013-01-02 02:46:00,
2013-01-01 19:47:00,16.9,-3.2,30.62,WSW,250,19.0,20.0,40,0.00,,SKC,0.00,VWS V14.01,2013-01-02 02:47:00,
2013-01-01 19:48:00,16.9,-3.2,30.62,North,360,15.0,20.0,40,0.00,,SKC,0.00,VWS V14.01,2013-01-02 02:48:00,
2013-01-01 19:49:00,16.9,-3.2,30.62,West,281,21.0,24.0,40,0.00,,SKC,0.00,VWS V14.01,2013-01-02 02:49:00,
2013-01-01 19:50:00,16.9,-3.2,30.62,North,360,21.0,21.0,40,0.00,,SKC,0.00,VWS V14.01,2013-01-02 02:50:00,
2013-01-01 19:51:00,16.9,-3.2,30.62,SW,234,23.0,26.0,40,0.00,,SKC,0.00,VWS V14.01,2013-01-02 02:51:00,
2013-01-01 19:52:00,17.0,-3.1,30.61,West,259,18.0,26.0,40,0.00,,SKC,0.00,VWS V14.01,2013-01-02 02:52:00,
2013-01-01 19:53:00,17.0,-3.1,30.61,WSW,258,11.0,23.0,40,0.00,,SKC,0.00,VWS V14.01,2013-01-02 02:53:00,
2013-01-01 19:54:00,17.0,-3.1,30.61,North,360,18.0,25.0,40,0.00,,SKC,0.00,VWS V14.01,2013-01-02 02:54:00,
2013-01-01 19:55:00,17.0,-3.1,30.61,North,360,20.0,23.0,40,0.00,,SKC,0.00,VWS V14.01,2013-01-02 02:55:00,
2013-01-01 19:56:00,17.0,-3.1,30.62,West,261,15.0,24.0,40,0.00,,SKC,0.00,VWS V14.01,2013-01-02 02:56:00,
2013-01-01 20:05:00,16.8,-2.8,30.61,North,360,25.0,25.0,41,0.00,,SKC,0.00,VWS V14.01,2013-01-02 03:05:00,
2013-01-01 20:06:00,16.8,-2.8,30.61,West,270,16.0,23.0,41,0.00,,SKC,0.00,VWS V14.01,2013-01-02 03:06:00,
2013-01-01 20:07:00,16.9,-2.7,30.61,West,265,13.0,22.0,41,0.00,,SKC,0.00,VWS V14.01,2013-01-02 03:07:00,
2013-01-01 20:08:00,17.0,-2.6,30.62,WNW,286,11.0,16.0,41,0.00,,SKC,0.00,VWS V14.01,2013-01-02 03:08:00,
2013-01-01 20:09:00,17.0,-3.1,30.61,West,259,14.0,16.0,40,0.00,,SKC,0.00,VWS V14.01,2013-01-02 03:09:00,
2013-01-01 20:10:00,17.0,-3.1,30.61,West,281,18.0,25.0,40,0.00,,SKC,0.00,VWS V14.01,2013-01-02 03:10:00,
2013-01-01 20:11:00,17.0,-3.1,30.61,North,360,23.0,27.0,40,0.00,,SKC,0.00,VWS V14.01,2013-01-02 03:11:00,
2013-01-01 20:12:00,17.0,-3.1,30.61,West,263,13.0,23.0,40,0.00,,SKC,0.00,VWS V14.01,2013-01-02 03:12:00,
2013-01-01 20:13:00,17.0,-3.1,30.61,WSW,254,16.0,23.0,40,0.00,,SKC,0.00,VWS V14.01,2013-01-02 03:13:00,
2013-01-01 20:14:00,17.1,-3.0,30.61,WSW,250,19.0,21.0,40,0.00,,SKC,0.00,VWS V14.01,2013-01-02 03:14:00,
2013-01-01 20:15:00,17.1,-3.0,30.61,West,275,20.0,25.0,40,0.00,,SKC,0.00,VWS V14.01,2013-01-02 03:15:00,
2013-01-01 20:16:00,17.1,-3.0,30.61,SW,235,19.0,21.0,40,0.00,,SKC,0.00,VWS V14.01,2013-01-02 03:16:00,
2013-01-01 20:17:00,17.1,-3.0,30.61,West,269,22.0,22.0,40,0.00,,SKC,0.00,VWS V14.01,2013-01-02 03:17:00,
2013-01-01 20:18:00,17.1,-3.0,30.61,West,277,16.0,22.0,40,0.00,,SKC,0.00,VWS V14.01,2013-01-02 03:18:00,
2013-01-01 20:28:00,17.1,-3.0,30.62,SW,227,14.0,20.0,40,0.00,,SKC,0.00,VWS V14.01,2013-01-02 03:28:00,
2013-01-01 20:33:00,17.1,-3.0,30.63,WSW,252,18.0,18.0,40,0.00,,SKC,0.00,VWS V14.01,2013-01-02 03:33:00,
2013-01-01 20:38:00,17.0,-2.6,30.62,WNW,289,15.0,20.0,41,0.00,,SKC,0.00,VWS V14.01,2013-01-02 03:38:00,
2013-01-01 20:44:00,16.8,-2.3,30.63,WSW,253,14.0,14.0,42,0.00,,SKC,0.00,VWS V14.01,2013-01-02 03:44:00,
2013-01-01 20:49:00,16.7,-2.4,30.63,WSW,254,17.0,27.0,42,0.00,,SKC,0.00,VWS V14.01,2013-01-02 03:49:00,
2013-01-01 20:54:00,16.7,-2.4,30.62,North,360,13.0,22.0,42,0.00,,SKC,0.00,VWS V14.01,2013-01-02 03:54:00,
2013-01-01 20:59:00,16.7,-2.4,30.62,NW,304,5.0,14.0,42,0.00,,SKC,0.00,VWS V14.01,2013-01-02 03:59:00,
2013-01-01 21:04:00,16.8,-2.8,30.62,North,360,7.0,10.0,41,0.00,,SKC,0.00,VWS V14.01,2013-01-02 04:04:00,
2013-01-01 21:10:00,16.9,-3.2,30.61,WNW,298,18.0,19.0,40,0.00,,SKC,0.00,VWS V14.01,2013-01-02 04:10:00,
2013-01-01 21:15:00,17.1,-3.0,30.61,WSW,254,16.0,17.0,40,0.00,,SKC,0.00,VWS V14.01,2013-01-02 04:15:00,
2013-01-01 21:21:00,17.5,-2.7,30.61,North,360,13.0,17.0,40,0.00,,SKC,0.00,VWS V14.01,2013-01-02 04:21:00,
2013-01-01 21:26:00,17.7,-2.0,30.61,North,360,13.0,20.0,41,0.00,,SKC,0.00,VWS V14.01,2013-01-02 04:26:00,
2013-01-01 21:31:00,18.0,-1.7,30.61,WNW,291,13.0,19.0,41,0.00,,SKC,0.00,VWS V14.01,2013-01-02 04:31:00,
2013-01-01 21:36:00,18.4,-1.4,30.61,WSW,258,18.0,18.0,41,0.00,,SKC,0.00,VWS V14.01,2013-01-02 04:36:00,
2013-01-01 21:42:00,18.4,-1.4,30.60,West,281,12.0,19.0,41,0.00,,SKC,0.00,VWS V14.01,2013-01-02 04:42:00,
2013-01-01 21:47:00,18.5,-1.3,30.61,North,360,5.0,11.0,41,0.00,,SKC,0.00,VWS V14.01,2013-01-02 04:47:00,
2013-01-01 21:52:00,18.7,-0.6,30.60,North,360,12.0,14.0,42,0.00,,SKC,0.00,VWS V14.01,2013-01-02 04:52:00,
2013-01-01 21:57:00,18.9,-0.4,30.60,North,360,10.0,14.0,42,0.00,,SKC,0.00,VWS V14.01,2013-01-02 04:57:00,
2013-01-01 22:01:00,19.1,-0.2,30.60,WSW,256,17.0,19.0,42,0.00,,SKC,0.00,VWS V14.01,2013-01-02 05:01:00,
2013-01-01 22:02:00,19.2,-0.6,30.60,West,277,11.0,17.0,41,0.00,,SKC,0.00,VWS V14.01,2013-01-02 05:02:00,
2013-01-01 22:05:00,19.3,0.0,30.60,WNW,288,4.0,8.0,42,0.00,,SKC,0.00,VWS V14.01,2013-01-02 05:05:00,
2013-01-01 22:09:00,19.4,-0.4,30.61,North,360,6.0,11.0,41,0.00,,SKC,0.00,VWS V14.01,2013-01-02 05:09:00,
2013-01-01 22:14:00,19.5,0.2,30.61,WSW,254,10.0,10.0,42,0.00,,SKC,0.00,VWS V14.01,2013-01-02 05:14:00,
2013-01-01 22:20:00,19.7,-0.2,30.62,WNW,300,16.0,17.0,41,0.00,,SKC,0.00,VWS V14.01,2013-01-02 05:20:00,
2013-01-01 22:25:00,19.7,-0.2,30.63,WNW,290,14.0,15.0,41,0.00,,SKC,0.00,VWS V14.01,2013-01-02 05:25:00,
2013-01-01 22:30:00,19.7,-0.2,30.64,WNW,300,5.0,11.0,41,0.00,,SKC,0.00,VWS V14.01,2013-01-02 05:30:00,
2013-01-01 22:35:00,19.7,-0.2,30.63,WNW,294,9.0,9.0,41,0.00,,SKC,0.00,VWS V14.01,2013-01-02 05:35:00,
2013-01-01 22:41:00,19.5,-0.4,30.63,WNW,284,2.0,6.0,41,0.00,,SKC,0.00,VWS V14.01,2013-01-02 05:41:00,
2013-01-01 22:46:00,19.3,0.0,30.63,North,360,4.0,4.0,42,0.00,,SKC,0.00,VWS V14.01,2013-01-02 05:46:00,
2013-01-01 22:51:00,19.1,-0.2,30.63,WSW,245,3.0,7.0,42,0.00,,SKC,0.00,VWS V14.01,2013-01-02 05:51:00,
2013-01-01 22:56:00,19.1,-0.2,30.63,WSW,257,6.0,14.0,42,0.00,,SKC,0.00,VWS V14.01,2013-01-02 05:56:00,
2013-01-01 23:01:00,18.9,-0.4,30.63,West,265,7.0,13.0,42,0.00,,SKC,0.00,VWS V14.01,2013-01-02 06:01:00,
2013-01-01 23:06:00,18.9,-0.4,30.63,WSW,239,10.0,16.0,42,0.00,,SKC,0.00,VWS V14.01,2013-01-02 06:06:00,
2013-01-01 23:12:00,18.8,-0.5,30.63,North,360,16.0,16.0,42,0.00,,SKC,0.00,VWS V14.01,2013-01-02 06:12:00,
2013-01-01 23:17:00,18.6,-0.7,30.63,WNW,286,9.0,11.0,42,0.00,,SKC,0.00,VWS V14.01,2013-01-02 06:17:00,
2013-01-01 23:23:00,18.4,-0.9,30.63,WNW,299,7.0,12.0,42,0.00,,SKC,0.00,VWS V14.01,2013-01-02 06:23:00,
2013-01-01 23:28:00,18.3,-0.9,30.63,NW,311,10.0,15.0,42,0.00,,SKC,0.00,VWS V14.01,2013-01-02 06:28:00,
2013-01-01 23:33:00,18.2,-1.0,30.63,WNW,296,4.0,8.0,42,0.00,,SKC,0.00,VWS V14.01,2013-01-02 06:33:00,
2013-01-01 23:38:00,18.1,-0.6,30.63,WNW,288,6.0,11.0,43,0.00,,SKC,0.00,VWS V14.01,2013-01-02 06:38:00,
2013-01-01 23:43:00,17.9,-0.8,30.63,WNW,289,4.0,10.0,43,0.00,,SKC,0.00,VWS V14.01,2013-01-02 06:43:00,
2013-01-01 23:48:00,17.9,-0.8,30.63,North,360,5.0,13.0,43,0.00,,SKC,0.00,VWS V14.01,2013-01-02 06:48:00,
2013-01-01 23:53:00,17.8,-0.9,30.63,WNW,296,9.0,13.0,43,0.00,,SKC,0.00,VWS V14.01,2013-01-02 06:53:00,
2013-01-01 23:58:00,17.8,-0.9,30.63,West,271,15.0,16.0,43,0.00,,SKC,0.00,VWS V14.01,2013-01-02 06:58:00,